Darstellungsparameter: Aktuell verwendete Einstellungen:
Skalierung der Graphiken ... ?
xyx+y,   Skalierungsfaktor:      Skalierung: Modus: x, Faktor: 1
Darstellungszeitraum ... ?
Vom - - bis: - -   Zeitraum: 01.02.2015 - 31.07.2015
Min/Max/Avg-Anzeige ... ?
Zeige MMA aktuell
Zeige MMA Monat
Zeige MMA alles
Zeige --A aktuell
Zeige --A Monat
Zeige --A alles
Keine MMA-Anzeige
MMA:
Average (ber die Originaldaten)
MMA-Basis: 23.02.2003 - 03.08.2020
Quicknavigation für Darstellung... ?
Tage:      1T, 2T, 3T, 5T -1T -2T -3T -5T +1T +2T +3T +5T
Wochen: 1W, 2W, 3W -1W -2W -3W +1W +2W +3W
Monate: 1M, 3M, 6M -1M -3M -6M +1M +3M +6M
Jahre:    1J, 3J, 5J, 10J -1J -3J -5J -10J +1J +3J +5J +10J
Nutze für die Darstellung ... ?
Originaldaten oder ...
Mittelwerte Minima Maxima auf...
Stundenbasis Tagesbasis Wochenbasis
Monatsbasis Jahresbasis      Datenbasis: Mittelwerte auf Stundenbasis
Darstellen als:
Statistik (Auto) Statistik J:M      Darstellung:
Zur Graphik,    zurück zur Übersicht aller Sensoren.
 
Tabellarische Datenbersicht: ?
 
Sensor: Nr:Datum:Temp:Abs-Feuchte:Windchill:Wind:
Aussen-T/F 1 01-02-2015 08:00:00 0.65 C 4.54 g/m*3 0.65 C 2.4 km/h
2 01-02-2015 09:00:00 0.47143 C 4.55 g/m*3 0.47 C 2.28571 km/h
3 01-02-2015 10:00:00 1.55 C 4.75 g/m*3 -1.09 C 8.60833 km/h
4 01-02-2015 11:00:00 1.84167 C 4.92 g/m*3 -0.39 C 7.38333 km/h
5 01-02-2015 12:00:00 1.35833 C 5.05 g/m*3 1.36 C 3.06667 km/h
6 01-02-2015 13:00:00 2.3 C 5.4 g/m*3 0.88 C 5.34167 km/h
7 01-02-2015 14:00:00 3.26667 C 5.65 g/m*3 1.98 C 5.33333 km/h
8 01-02-2015 15:00:00 3.87143 C 5.8 g/m*3 3.87 C 3.2 km/h
9 01-02-2015 16:00:00 3.71667 C 5.5 g/m*3 3.72 C 3.60833 km/h
10 01-02-2015 17:00:00 3.24 C 5.44 g/m*3 3.24 C 4.18 km/h
11 01-02-2015 20:00:00 1.63636 C 5.24 g/m*3 1.64 C 0 km/h
12 01-02-2015 21:00:00 1.38 C 5.16 g/m*3 1.38 C 2.56 km/h
13 01-02-2015 22:00:00 1.66667 C 5.27 g/m*3 0.27 C 5.075 km/h
14 01-02-2015 23:00:00 1.79167 C 5.31 g/m*3 1.79 C 2.13333 km/h
15 02-02-2015 00:00:00 1.9 C 5.35 g/m*3 1.9 C 2.675 km/h
16 02-02-2015 01:00:00 2.03333 C 5.4 g/m*3 2.03 C 2.13333 km/h
17 02-02-2015 02:00:00 2 C 5.39 g/m*3 2 C 3.2 km/h
18 02-02-2015 03:00:00 2.125 C 5.44 g/m*3 2.13 C 2.4 km/h
19 02-02-2015 04:00:00 2.25 C 5.44 g/m*3 2.25 C 2.66667 km/h
20 02-02-2015 05:00:00 2.19167 C 5.4 g/m*3 2.19 C 0.93333 km/h
21 02-02-2015 06:00:00 2.08333 C 5.29 g/m*3 2.08 C 3.475 km/h
22 02-02-2015 07:00:00 1.9 C 5.19 g/m*3 1.9 C 3.86667 km/h
23 02-02-2015 08:00:00 1.83333 C 5.21 g/m*3 1.83 C 3.475 km/h
24 02-02-2015 09:00:00 1.9875 C 5.16 g/m*3 0.17 C 6.25 km/h
25 02-02-2015 11:00:00 2.7 C 5.1 g/m*3 0.33 C 8.38 km/h
Sensor: Nr:Datum:Temp:Abs-Feuchte:Windchill:Wind:
Aussen-T/F 26 02-02-2015 12:00:00 2.53333 C 5.18 g/m*3 0.34 C 7.65 km/h
27 02-02-2015 13:00:00 3.50833 C 5.11 g/m*3 0.68 C 10.89167 km/h
28 02-02-2015 14:00:00 3.83333 C 5 g/m*3 0.46 C 14.1 km/h
29 02-02-2015 15:00:00 3.375 C 4.89 g/m*3 0.22 C 12.35833 km/h
30 02-02-2015 16:00:00 3.05 C 4.76 g/m*3 -0.77 C 15.7 km/h
31 02-02-2015 17:00:00 2.61 C 4.77 g/m*3 -0.46 C 11.14 km/h
32 02-02-2015 18:00:00 2.40909 C 4.73 g/m*3 0.16 C 7.76364 km/h
33 02-02-2015 19:00:00 2.225 C 4.74 g/m*3 0.11 C 7.23333 km/h
34 02-02-2015 20:00:00 2.15833 C 4.73 g/m*3 -0.14 C 7.79167 km/h
35 02-02-2015 21:00:00 1.925 C 4.68 g/m*3 -0.37 C 7.65833 km/h
36 02-02-2015 22:00:00 1.4 C 4.53 g/m*3 -0.56 C 6.4 km/h
37 02-02-2015 23:00:00 1.525 C 4.52 g/m*3 -0.38 C 6.29167 km/h
38 03-02-2015 00:00:00 1.625 C 4.55 g/m*3 1.63 C 4.14167 km/h
39 03-02-2015 01:00:00 1.38333 C 4.57 g/m*3 1.38 C 2.53333 km/h
40 03-02-2015 02:00:00 1.04167 C 4.54 g/m*3 1.04 C 2 km/h
41 03-02-2015 03:00:00 0.71667 C 4.49 g/m*3 0.72 C 2.26667 km/h
42 03-02-2015 04:00:00 0.56667 C 4.5 g/m*3 0.57 C 1.06667 km/h
43 03-02-2015 05:00:00 0.61667 C 4.5 g/m*3 0.62 C 0.53333 km/h
44 03-02-2015 06:00:00 0.59167 C 4.48 g/m*3 0.59 C 0.8 km/h
45 03-02-2015 07:00:00 0.60833 C 4.45 g/m*3 0.61 C 1.73333 km/h
46 03-02-2015 08:00:00 0.4 C 4.43 g/m*3 0.4 C 0 km/h
47 03-02-2015 12:00:00 2.5 C 5.75 g/m*3 0.06 C 8.475 km/h
48 03-02-2015 16:00:00 2.89091 C 5.16 g/m*3 2.89 C 1.6 km/h
49 03-02-2015 17:00:00 1.11111 C 4.8 g/m*3 1.11 C 3.2 km/h
50 03-02-2015 18:00:00 0.7 C 4.75 g/m*3 0.7 C 3.46667 km/h
Sensor: Nr:Datum:Temp:Abs-Feuchte:Windchill:Wind:
Aussen-T/F 51 03-02-2015 19:00:00 0.65833 C 4.81 g/m*3 0.66 C 1.6 km/h
52 03-02-2015 20:00:00 0.89167 C 4.89 g/m*3 0.89 C 0.53333 km/h
53 03-02-2015 21:00:00 1.025 C 4.92 g/m*3 1.02 C 1.46667 km/h
54 03-02-2015 22:00:00 0.09167 C 4.61 g/m*3 0.09 C 1.33333 km/h
55 03-02-2015 23:00:00 -0.50833 C 4.46 g/m*3 -0.51 C 0.66667 km/h
56 04-02-2015 00:00:00 -0.4 C 4.52 g/m*3 -0.4 C 0.26667 km/h
57 04-02-2015 01:00:00 -0.08333 C 4.65 g/m*3 -0.08 C 1.73333 km/h
58 04-02-2015 02:00:00 0.31667 C 4.78 g/m*3 0.32 C 1.06667 km/h
59 04-02-2015 03:00:00 0.25833 C 4.73 g/m*3 0.26 C 1.33333 km/h
60 04-02-2015 04:00:00 0.46667 C 4.64 g/m*3 0.47 C 4.025 km/h
61 04-02-2015 05:00:00 0.5 C 4.54 g/m*3 0.5 C 3.73333 km/h
62 04-02-2015 06:00:00 0.1 C 4.32 g/m*3 0.1 C 4.15 km/h
63 04-02-2015 07:00:00 -0.56667 C 4.16 g/m*3 -0.57 C 2.13333 km/h
64 04-02-2015 08:00:00 -0.7 C 4.06 g/m*3 -0.7 C 1.06667 km/h
65 04-02-2015 10:00:00 -0.03333 C 4.04 g/m*3 -4.36 C 14.5 km/h
66 04-02-2015 11:00:00 0.50833 C 3.91 g/m*3 -3.27 C 12.36667 km/h
67 04-02-2015 12:00:00 0.94167 C 3.92 g/m*3 -2.74 C 12.36667 km/h
68 04-02-2015 13:00:00 1.41667 C 4.01 g/m*3 -1.5 C 9.53333 km/h
69 04-02-2015 14:00:00 2.36667 C 4.2 g/m*3 -0.06 C 8.34167 km/h
70 04-02-2015 15:00:00 3.15 C 4.26 g/m*3 0.65 C 9.15 km/h
71 04-02-2015 16:00:00 2.15833 C 4.2 g/m*3 -0.22 C 8.05833 km/h
72 04-02-2015 17:00:00 0.44167 C 4.18 g/m*3 0.44 C 1.33333 km/h
73 04-02-2015 18:00:00 -0.425 C 4.13 g/m*3 -0.43 C 4.4 km/h
74 04-02-2015 19:00:00 -1.10833 C 4.06 g/m*3 -1.11 C 1.73333 km/h
75 04-02-2015 20:00:00 -1.63333 C 4 g/m*3 -1.63 C 0 km/h
Sensor: Nr:Datum:Temp:Abs-Feuchte:Windchill:Wind:
Aussen-T/F 76 04-02-2015 21:00:00 -2.05833 C 3.91 g/m*3 -2.06 C 0 km/h
77 04-02-2015 22:00:00 -2.45833 C 3.84 g/m*3 -2.46 C 0.13333 km/h
78 04-02-2015 23:00:00 -2.625 C 3.8 g/m*3 -2.63 C 0.93333 km/h
79 05-02-2015 00:00:00 -2.86667 C 3.73 g/m*3 -2.87 C 1.46667 km/h
80 05-02-2015 01:00:00 -3.39167 C 3.62 g/m*3 -3.39 C 0.26667 km/h
81 05-02-2015 02:00:00 -3.70833 C 3.55 g/m*3 -3.71 C 1.46667 km/h
82 05-02-2015 03:00:00 -3.76667 C 3.49 g/m*3 -3.77 C 2.8 km/h
83 05-02-2015 04:00:00 -4.19167 C 3.38 g/m*3 -4.19 C 2.53333 km/h
84 05-02-2015 05:00:00 -4.35 C 3.33 g/m*3 -4.35 C 1.2 km/h
85 05-02-2015 06:00:00 -4.56667 C 3.29 g/m*3 -4.57 C 0.13333 km/h
86 05-02-2015 07:00:00 -3.9 C 3.48 g/m*3 -3.9 C 0.66667 km/h
87 05-02-2015 17:00:00 0.81667 C 3.63 g/m*3 -3.32 C 14.5 km/h
88 05-02-2015 18:00:00 0.65833 C 3.67 g/m*3 -3.38 C 13.83333 km/h
89 05-02-2015 19:00:00 0.49167 C 3.7 g/m*3 -3.2 C 11.96667 km/h
90 05-02-2015 20:00:00 0.625 C 3.57 g/m*3 -3.4 C 13.7 km/h
91 05-02-2015 21:00:00 0.325 C 3.49 g/m*3 -3.71 C 13.43333 km/h
92 05-02-2015 22:00:00 0.00833 C 3.47 g/m*3 -3.56 C 11.025 km/h
93 05-02-2015 23:00:00 -0.2 C 3.53 g/m*3 -3.36 C 9.275 km/h
94 06-02-2015 00:00:00 -0.08333 C 3.56 g/m*3 -3.29 C 9.55 km/h
95 06-02-2015 01:00:00 -0.06667 C 3.57 g/m*3 -4.32 C 14.09167 km/h
96 06-02-2015 02:00:00 -0.10833 C 3.59 g/m*3 -3.6 C 10.625 km/h
97 06-02-2015 03:00:00 -0.55 C 3.46 g/m*3 -4.02 C 10.19167 km/h
98 06-02-2015 04:00:00 -0.55833 C 3.47 g/m*3 -3.49 C 8.31667 km/h
99 06-02-2015 05:00:00 -0.40833 C 3.49 g/m*3 -3.71 C 9.66667 km/h
100 06-02-2015 06:00:00 -0.63333 C 3.45 g/m*3 -3.91 C 9.41667 km/h
Sensor: Nr:Datum:Temp:Abs-Feuchte:Windchill:Wind:
Aussen-T/F 101 06-02-2015 07:00:00 -0.64167 C 3.46 g/m*3 -3.96 C 9.55 km/h
102 06-02-2015 08:00:00 -0.25833 C 3.5 g/m*3 -4.2 C 12.36667 km/h
103 06-02-2015 09:00:00 0.06667 C 3.53 g/m*3 -3.8 C 12.35833 km/h
104 06-02-2015 10:00:00 0.28333 C 3.51 g/m*3 -4.05 C 14.90833 km/h
105 06-02-2015 11:00:00 0.61667 C 3.53 g/m*3 -3.78 C 15.7 km/h
106 06-02-2015 12:00:00 1.50833 C 3.54 g/m*3 -2.42 C 14.23333 km/h
107 06-02-2015 13:00:00 2.51667 C 3.55 g/m*3 -1.76 C 17.83333 km/h
108 06-02-2015 14:00:00 3.35 C 3.55 g/m*3 -0.67 C 17.45 km/h
109 06-02-2015 15:00:00 3.75833 C 3.41 g/m*3 1.41 C 9 km/h
110 06-02-2015 16:00:00 2.95 C 3.29 g/m*3 -0.27 C 12.2 km/h
111 06-02-2015 17:00:00 1.41667 C 3.34 g/m*3 -0.88 C 7.38333 km/h
112 06-02-2015 18:00:00 0.20833 C 3.35 g/m*3 -1.4 C 5.09167 km/h
113 06-02-2015 19:00:00 -0.35 C 3.39 g/m*3 -0.35 C 2.8 km/h
114 06-02-2015 20:00:00 -0.45833 C 3.42 g/m*3 -0.46 C 4.00833 km/h
115 06-02-2015 21:00:00 -0.46667 C 3.41 g/m*3 -0.47 C 4.69167 km/h
116 06-02-2015 22:00:00 -0.88333 C 3.41 g/m*3 -3.06 C 6.04167 km/h
117 06-02-2015 23:00:00 -1.09167 C 3.31 g/m*3 -4 C 7.925 km/h
118 07-02-2015 00:00:00 -1.31667 C 3.26 g/m*3 -4.91 C 10.08333 km/h
119 07-02-2015 01:00:00 -1.71667 C 3.21 g/m*3 -3.71 C 5.35833 km/h
120 07-02-2015 02:00:00 -3.00833 C 3.18 g/m*3 -3.01 C 4.13333 km/h
121 07-02-2015 03:00:00 -3.43333 C 3.17 g/m*3 -3.43 C 4.8 km/h
122 07-02-2015 04:00:00 -3.65 C 3.1 g/m*3 -3.65 C 4.26667 km/h
123 07-02-2015 05:00:00 -3.81667 C 3.1 g/m*3 -3.82 C 4.93333 km/h
124 07-02-2015 06:00:00 -3.89167 C 3.07 g/m*3 -3.89 C 4.53333 km/h
125 07-02-2015 07:00:00 -4.63333 C 3.01 g/m*3 -4.63 C 0 km/h
Sensor: Nr:Datum:Temp:Abs-Feuchte:Windchill:Wind:
Aussen-T/F 126 07-02-2015 08:00:00 -4.95 C 3.01 g/m*3 -4.95 C 0.4 km/h
127 07-02-2015 09:00:00 -4.40833 C 3.12 g/m*3 -4.41 C 1.2 km/h
128 07-02-2015 10:00:00 -3.25833 C 3.27 g/m*3 -3.26 C 2.66667 km/h
129 07-02-2015 11:00:00 -2.2 C 3.46 g/m*3 -2.2 C 4.00833 km/h
130 07-02-2015 12:00:00 -0.93333 C 3.61 g/m*3 -0.93 C 3.06667 km/h
131 07-02-2015 13:00:00 -0.04167 C 3.8 g/m*3 -0.04 C 3.6 km/h
132 07-02-2015 14:00:00 1.73333 C 4.05 g/m*3 1.73 C 4 km/h
133 07-02-2015 15:00:00 2.48333 C 4.09 g/m*3 2.48 C 4.13333 km/h
134 07-02-2015 16:00:00 3.525 C 3.74 g/m*3 0.64 C 11.15 km/h
135 07-02-2015 17:00:00 2.38333 C 3.83 g/m*3 2.38 C 4.28333 km/h
136 07-02-2015 18:00:00 2.01667 C 4.2 g/m*3 2.02 C 3.06667 km/h
137 07-02-2015 19:00:00 2.69167 C 4.42 g/m*3 2.69 C 4.675 km/h
138 07-02-2015 20:00:00 2.675 C 4.88 g/m*3 0.85 C 6.575 km/h
139 07-02-2015 21:00:00 2.64167 C 5.29 g/m*3 1.26 C 5.35 km/h
140 07-02-2015 22:00:00 2.75833 C 5.49 g/m*3 1.34 C 5.48333 km/h
141 07-02-2015 23:00:00 3.19167 C 5.68 g/m*3 0.41 C 10.36667 km/h
142 08-02-2015 00:00:00 3.48333 C 5.77 g/m*3 1.23 C 8.45833 km/h
143 08-02-2015 01:00:00 3.875 C 5.87 g/m*3 1.21 C 10.48333 km/h
144 08-02-2015 02:00:00 3.96667 C 5.85 g/m*3 1.9 C 8.06667 km/h
145 08-02-2015 03:00:00 3.68333 C 5.8 g/m*3 1.85 C 7.10833 km/h
146 08-02-2015 04:00:00 4.15 C 5.71 g/m*3 1.08 C 12.76667 km/h
147 08-02-2015 05:00:00 4.29167 C 5.53 g/m*3 1 C 14.23333 km/h
148 08-02-2015 06:00:00 4.25833 C 5.39 g/m*3 1.44 C 11.55833 km/h
149 08-02-2015 07:00:00 3.625 C 5.38 g/m*3 0.68 C 11.55 km/h
150 08-02-2015 08:00:00 3.26667 C 5.17 g/m*3 0.64 C 9.79167 km/h
Sensor: Nr:Datum:Temp:Abs-Feuchte:Windchill:Wind:
Aussen-T/F 151 08-02-2015 09:00:00 3.55833 C 5.07 g/m*3 0.83 C 10.475 km/h
152 08-02-2015 10:00:00 3.325 C 5.27 g/m*3 -0.19 C 14.23333 km/h
153 08-02-2015 11:00:00 3.93333 C 5.07 g/m*3 -0.24 C 19.7 km/h
154 08-02-2015 12:00:00 4.11667 C 4.85 g/m*3 0.31 C 17.3 km/h
155 08-02-2015 13:00:00 4.71667 C 4.52 g/m*3 0.95 C 18.1 km/h
156 08-02-2015 14:00:00 4.89167 C 4.42 g/m*3 1.02 C 19.3 km/h
157 08-02-2015 15:00:00 4.80833 C 4.13 g/m*3 1.14 C 17.56667 km/h
158 08-02-2015 16:00:00 4.225 C 3.91 g/m*3 0.96 C 13.95833 km/h
159 08-02-2015 17:00:00 3.125 C 4.17 g/m*3 3.13 C 4.95 km/h
160 08-02-2015 18:00:00 1.46667 C 4.25 g/m*3 1.47 C 3.06667 km/h
161 08-02-2015 19:00:00 1.19167 C 4.26 g/m*3 1.19 C 3.46667 km/h
162 08-02-2015 20:00:00 0.65 C 4.23 g/m*3 0.65 C 2.8 km/h
163 08-02-2015 21:00:00 0.13333 C 4.3 g/m*3 0.13 C 2.4 km/h
164 08-02-2015 22:00:00 0.65 C 4.47 g/m*3 0.65 C 2.13333 km/h
165 08-02-2015 23:00:00 1.275 C 4.65 g/m*3 1.27 C 3.46667 km/h
166 09-02-2015 00:00:00 1.425 C 4.68 g/m*3 1.43 C 1.46667 km/h
167 09-02-2015 01:00:00 1.50833 C 4.8 g/m*3 1.51 C 1.33333 km/h
168 09-02-2015 02:00:00 1.7 C 4.9 g/m*3 1.7 C 1.2 km/h
169 09-02-2015 03:00:00 1.825 C 4.96 g/m*3 1.83 C 2.4 km/h
170 09-02-2015 04:00:00 2.41667 C 5.23 g/m*3 2.42 C 3.46667 km/h
171 09-02-2015 05:00:00 2.35833 C 5.27 g/m*3 2.36 C 2.53333 km/h
172 09-02-2015 06:00:00 2.725 C 5.34 g/m*3 2.73 C 2.8 km/h
173 09-02-2015 07:00:00 3.375 C 5.51 g/m*3 1.66 C 6.58333 km/h
174 09-02-2015 08:00:00 4.30833 C 5.7 g/m*3 1.7 C 10.61667 km/h
175 09-02-2015 09:00:00 4.65833 C 5.61 g/m*3 2.64 C 8.34167 km/h
Sensor: Nr:Datum:Temp:Abs-Feuchte:Windchill:Wind:
Aussen-T/F 176 09-02-2015 10:00:00 4.84167 C 5.8 g/m*3 2.97 C 7.925 km/h
177 09-02-2015 11:00:00 4.75 C 6.03 g/m*3 3.13 C 6.975 km/h
178 09-02-2015 12:00:00 5.54167 C 6.24 g/m*3 3.62 C 8.59167 km/h
179 09-02-2015 13:00:00 5.825 C 6.36 g/m*3 3.54 C 10.48333 km/h
180 09-02-2015 14:00:00 5.53333 C 6.34 g/m*3 4.04 C 6.98333 km/h
181 09-02-2015 15:00:00 5.25 C 6.33 g/m*3 3.96 C 6.16667 km/h
182 09-02-2015 16:00:00 5.09167 C 6.36 g/m*3 5.09 C 4.54167 km/h
183 09-02-2015 17:00:00 4.91667 C 6.3 g/m*3 4.92 C 3.73333 km/h
184 09-02-2015 18:00:00 5.075 C 6.35 g/m*3 5.08 C 4.81667 km/h
185 09-02-2015 19:00:00 5.075 C 6.38 g/m*3 5.08 C 3.60833 km/h
186 09-02-2015 20:00:00 5 C 6.35 g/m*3 5 C 1.86667 km/h
187 09-02-2015 21:00:00 4.98333 C 6.4 g/m*3 4.98 C 2 km/h
188 09-02-2015 22:00:00 4.7 C 6.37 g/m*3 4.7 C 1.73333 km/h
189 09-02-2015 23:00:00 4.7 C 6.39 g/m*3 4.7 C 2.66667 km/h
190 10-02-2015 00:00:00 4.51667 C 6.28 g/m*3 4.52 C 1.06667 km/h
191 10-02-2015 01:00:00 4.24167 C 6.21 g/m*3 4.24 C 0.8 km/h
192 10-02-2015 02:00:00 4.2 C 6.2 g/m*3 4.2 C 2.13333 km/h
193 10-02-2015 03:00:00 4.28333 C 6.23 g/m*3 4.28 C 1.33333 km/h
194 10-02-2015 04:00:00 4.26667 C 6.26 g/m*3 4.27 C 0.8 km/h
195 10-02-2015 05:00:00 4.275 C 6.28 g/m*3 4.28 C 0.26667 km/h
196 10-02-2015 06:00:00 4.23333 C 6.26 g/m*3 4.23 C 0.13333 km/h
197 10-02-2015 07:00:00 4.39167 C 6.33 g/m*3 4.39 C 0.93333 km/h
198 10-02-2015 08:00:00 4.41667 C 6.34 g/m*3 4.42 C 1.06667 km/h
199 10-02-2015 09:00:00 4.66667 C 6.45 g/m*3 4.67 C 0.13333 km/h
200 10-02-2015 10:00:00 5.10833 C 6.63 g/m*3 5.11 C 1.46667 km/h
Sensor: Nr:Datum:Temp:Abs-Feuchte:Windchill:Wind:
Aussen-T/F 201 10-02-2015 11:00:00 5.70833 C 6.72 g/m*3 5.71 C 1.6 km/h
202 10-02-2015 12:00:00 6.05 C 6.44 g/m*3 3.92 C 9.95 km/h
203 10-02-2015 13:00:00 6.31667 C 6.33 g/m*3 4.73 C 7.8 km/h
204 10-02-2015 14:00:00 6.2 C 6.31 g/m*3 6.2 C 4.53333 km/h
205 10-02-2015 15:00:00 6.10833 C 6.21 g/m*3 6.11 C 4.80833 km/h
206 10-02-2015 16:00:00 5.85 C 6.07 g/m*3 4.48 C 6.70833 km/h
207 10-02-2015 17:00:00 5.65 C 6.01 g/m*3 4.64 C 5.49167 km/h
208 10-02-2015 18:00:00 5.45 C 6 g/m*3 5.45 C 4.00833 km/h
209 10-02-2015 19:00:00 5.23333 C 6 g/m*3 5.23 C 2.675 km/h
210 10-02-2015 20:00:00 4.94167 C 5.87 g/m*3 4.94 C 2.4 km/h
211 10-02-2015 21:00:00 4.675 C 5.86 g/m*3 4.68 C 0.53333 km/h
212 10-02-2015 22:00:00 4.28333 C 5.92 g/m*3 4.28 C 0 km/h
213 10-02-2015 23:00:00 4.1 C 5.89 g/m*3 4.1 C 0 km/h
214 11-02-2015 00:00:00 3.95 C 5.88 g/m*3 3.95 C 0 km/h
215 11-02-2015 01:00:00 3.9 C 5.86 g/m*3 3.9 C 0.4 km/h
216 11-02-2015 02:00:00 3.9 C 5.8 g/m*3 3.9 C 0.4 km/h
217 11-02-2015 03:00:00 3.85833 C 5.71 g/m*3 3.86 C 0.4 km/h
218 11-02-2015 04:00:00 3.825 C 5.6 g/m*3 3.83 C 1.46667 km/h
219 11-02-2015 05:00:00 3.74167 C 5.58 g/m*3 3.74 C 0.8 km/h
220 11-02-2015 06:00:00 3.68333 C 5.49 g/m*3 3.68 C 3.6 km/h
221 11-02-2015 07:00:00 3.475 C 5.38 g/m*3 3.48 C 2.66667 km/h
222 11-02-2015 08:00:00 3.4 C 5.37 g/m*3 3.4 C 1.86667 km/h
223 11-02-2015 09:00:00 3.50833 C 5.4 g/m*3 3.51 C 2.8 km/h
224 11-02-2015 10:00:00 3.675 C 5.37 g/m*3 3.68 C 4.28333 km/h
225 11-02-2015 11:00:00 4.03333 C 5.42 g/m*3 2.9 C 5.21667 km/h
Sensor: Nr:Datum:Temp:Abs-Feuchte:Windchill:Wind:
Aussen-T/F 226 11-02-2015 12:00:00 4.33333 C 5.44 g/m*3 3.14 C 5.48333 km/h
227 11-02-2015 13:00:00 4.775 C 5.55 g/m*3 3 C 7.525 km/h
228 11-02-2015 14:00:00 5.26667 C 5.61 g/m*3 3.77 C 6.85 km/h
229 11-02-2015 15:00:00 5.29167 C 5.62 g/m*3 4.29 C 5.33333 km/h
230 11-02-2015 16:00:00 4.825 C 5.53 g/m*3 4.83 C 3.475 km/h
231 11-02-2015 17:00:00 4.03333 C 5.42 g/m*3 4.03 C 1.6 km/h
232 11-02-2015 18:00:00 3.34167 C 5.32 g/m*3 3.34 C 2.13333 km/h
233 11-02-2015 19:00:00 3.15833 C 5.24 g/m*3 3.16 C 3.60833 km/h
234 11-02-2015 20:00:00 3.10833 C 5.24 g/m*3 3.11 C 1.6 km/h
235 11-02-2015 21:00:00 3.05 C 5.23 g/m*3 3.05 C 3.60833 km/h
236 11-02-2015 22:00:00 2.95 C 5.2 g/m*3 2.95 C 2.94167 km/h
237 11-02-2015 23:00:00 2.81667 C 5.22 g/m*3 2.82 C 1.2 km/h
238 12-02-2015 00:00:00 2.8 C 5.26 g/m*3 2.8 C 1.06667 km/h
239 12-02-2015 01:00:00 2.86667 C 5.3 g/m*3 2.87 C 0.53333 km/h
240 12-02-2015 02:00:00 2.84167 C 5.29 g/m*3 2.84 C 0.26667 km/h
241 12-02-2015 03:00:00 2.8 C 5.27 g/m*3 2.8 C 0.66667 km/h
242 12-02-2015 04:00:00 2.775 C 5.26 g/m*3 2.78 C 1.86667 km/h
243 12-02-2015 05:00:00 2.69167 C 5.23 g/m*3 2.69 C 1.46667 km/h
244 12-02-2015 06:00:00 2.58333 C 5.18 g/m*3 2.58 C 1.46667 km/h
245 12-02-2015 07:00:00 2.44167 C 5.14 g/m*3 2.44 C 0.53333 km/h
246 12-02-2015 08:00:00 2.4 C 5.14 g/m*3 2.4 C 0.93333 km/h
247 12-02-2015 09:00:00 2.525 C 5.18 g/m*3 2.53 C 2.26667 km/h
248 12-02-2015 10:00:00 2.65833 C 5.22 g/m*3 2.66 C 4.14167 km/h
249 12-02-2015 11:00:00 2.93333 C 5.26 g/m*3 1.7 C 5.08333 km/h
250 12-02-2015 12:00:00 3.30833 C 5.33 g/m*3 2.07 C 5.225 km/h
Sensor: Nr:Datum:Temp:Abs-Feuchte:Windchill:Wind:
Aussen-T/F 251 12-02-2015 13:00:00 3.89167 C 5.45 g/m*3 2.79 C 5.08333 km/h
252 12-02-2015 14:00:00 4.98333 C 5.68 g/m*3 3.88 C 5.49167 km/h
253 12-02-2015 15:00:00 5.3 C 5.67 g/m*3 3.58 C 7.65 km/h
254 12-02-2015 16:00:00 4.64167 C 5.54 g/m*3 4.64 C 4.4 km/h
255 12-02-2015 17:00:00 3.44167 C 5.31 g/m*3 1.44 C 7.50833 km/h
256 12-02-2015 18:00:00 2.30833 C 5.11 g/m*3 0.93 C 5.225 km/h
257 12-02-2015 19:00:00 1.35833 C 4.87 g/m*3 1.36 C 1.46667 km/h
258 12-02-2015 20:00:00 0.73333 C 4.79 g/m*3 0.73 C 0.8 km/h
259 12-02-2015 21:00:00 1.1 C 4.92 g/m*3 1.1 C 0.13333 km/h
260 12-02-2015 22:00:00 1.2 C 4.96 g/m*3 1.2 C 0.53333 km/h
261 12-02-2015 23:00:00 1.55 C 5.08 g/m*3 1.55 C 0.26667 km/h
262 13-02-2015 00:00:00 1.73333 C 5.07 g/m*3 1.73 C 0.13333 km/h
263 13-02-2015 01:00:00 1.675 C 5.05 g/m*3 1.68 C 0 km/h
264 13-02-2015 02:00:00 1.675 C 5.05 g/m*3 1.68 C 0.4 km/h
265 13-02-2015 03:00:00 1.8 C 5.07 g/m*3 1.8 C 1.6 km/h
266 13-02-2015 04:00:00 1.78333 C 5.04 g/m*3 1.78 C 2.00833 km/h
267 13-02-2015 05:00:00 1.675 C 4.96 g/m*3 1.68 C 1.46667 km/h
268 13-02-2015 06:00:00 1.6 C 4.94 g/m*3 1.6 C 3.73333 km/h
269 13-02-2015 07:00:00 1.53333 C 4.95 g/m*3 1.53 C 2.14167 km/h
270 13-02-2015 08:00:00 1.55 C 4.93 g/m*3 1.55 C 2.80833 km/h
271 13-02-2015 09:00:00 1.80833 C 4.99 g/m*3 1.81 C 3.33333 km/h
272 13-02-2015 10:00:00 2.225 C 5.04 g/m*3 2.23 C 4.94167 km/h
273 13-02-2015 11:00:00 2.45833 C 5 g/m*3 0.84 C 5.89167 km/h
274 13-02-2015 12:00:00 3.31667 C 5.18 g/m*3 3.32 C 4.53333 km/h
275 13-02-2015 13:00:00 4.9 C 5.51 g/m*3 3.6 C 6.025 km/h
Sensor: Nr:Datum:Temp:Abs-Feuchte:Windchill:Wind:
Aussen-T/F 276 13-02-2015 14:00:00 5.80833 C 5.68 g/m*3 4.56 C 6.29167 km/h
277 13-02-2015 15:00:00 5.73333 C 5.61 g/m*3 4.47 C 6.30833 km/h
278 13-02-2015 16:00:00 4.825 C 5.41 g/m*3 3.34 C 6.55 km/h
279 13-02-2015 17:00:00 3.54167 C 5.16 g/m*3 1.72 C 6.975 km/h
280 13-02-2015 18:00:00 1.78333 C 4.87 g/m*3 1.78 C 1.6 km/h
281 13-02-2015 19:00:00 0.80833 C 4.73 g/m*3 0.81 C 1.6 km/h
282 13-02-2015 20:00:00 0.95833 C 4.81 g/m*3 0.96 C 2.675 km/h
283 13-02-2015 21:00:00 0.73333 C 4.73 g/m*3 0.73 C 3.46667 km/h
284 13-02-2015 22:00:00 0.39167 C 4.68 g/m*3 0.39 C 2.66667 km/h
285 13-02-2015 23:00:00 0.25833 C 4.67 g/m*3 0.26 C 2.4 km/h
286 14-02-2015 00:00:00 0.18333 C 4.66 g/m*3 0.18 C 3.73333 km/h
287 14-02-2015 01:00:00 0.4 C 4.73 g/m*3 0.4 C 2.26667 km/h
288 14-02-2015 02:00:00 0.05 C 4.62 g/m*3 0.05 C 3.33333 km/h
289 14-02-2015 03:00:00 -0.19167 C 4.54 g/m*3 -0.19 C 2.13333 km/h
290 14-02-2015 04:00:00 -0.13333 C 4.58 g/m*3 -0.13 C 3.34167 km/h
291 14-02-2015 05:00:00 1.075 C 4.9 g/m*3 1.08 C 2.93333 km/h
292 14-02-2015 06:00:00 2.46667 C 5.09 g/m*3 0.61 C 6.55833 km/h
293 14-02-2015 07:00:00 2.6 C 5.03 g/m*3 1.06 C 5.74167 km/h
294 14-02-2015 08:00:00 2.725 C 5.06 g/m*3 1.15 C 5.88333 km/h
295 14-02-2015 09:00:00 3.575 C 5.13 g/m*3 1.81 C 6.825 km/h
296 14-02-2015 10:00:00 4.275 C 5.31 g/m*3 1.93 C 9.40833 km/h
297 14-02-2015 11:00:00 5.19167 C 5.57 g/m*3 5.19 C 3.86667 km/h
298 14-02-2015 12:00:00 6.43333 C 5.87 g/m*3 4.87 C 7.78333 km/h
299 14-02-2015 13:00:00 6.875 C 5.85 g/m*3 5.75 C 6.43333 km/h
300 14-02-2015 14:00:00 7.925 C 6.12 g/m*3 7.93 C 4.26667 km/h
Sensor: Nr:Datum:Temp:Abs-Feuchte:Windchill:Wind:
Aussen-T/F 301 14-02-2015 15:00:00 9.00833 C 6.27 g/m*3 8.04 C 7.11667 km/h
302 14-02-2015 16:00:00 8.59167 C 6.4 g/m*3 8.59 C 3.46667 km/h
303 14-02-2015 17:00:00 5.94167 C 6.06 g/m*3 5.94 C 4.4 km/h
304 14-02-2015 18:00:00 4.50833 C 5.85 g/m*3 4.51 C 3.2 km/h
305 14-02-2015 19:00:00 4.68333 C 5.91 g/m*3 4.68 C 2.93333 km/h
306 14-02-2015 20:00:00 4.1 C 5.67 g/m*3 4.1 C 4.8 km/h
307 14-02-2015 21:00:00 2.825 C 5.36 g/m*3 2.83 C 4.8 km/h
308 14-02-2015 22:00:00 3.175 C 5.5 g/m*3 3.18 C 1.73333 km/h
309 14-02-2015 23:00:00 3.34167 C 5.59 g/m*3 3.34 C 0.8 km/h
310 15-02-2015 00:00:00 2.26667 C 5.15 g/m*3 2.27 C 2.66667 km/h
311 15-02-2015 01:00:00 1.64167 C 4.91 g/m*3 1.64 C 4.53333 km/h
312 15-02-2015 02:00:00 0.36667 C 4.62 g/m*3 0.37 C 3.46667 km/h
313 15-02-2015 03:00:00 -0.10833 C 4.52 g/m*3 -0.11 C 3.2 km/h
314 15-02-2015 04:00:00 -0.525 C 4.42 g/m*3 -0.53 C 3.46667 km/h
315 15-02-2015 05:00:00 -0.78333 C 4.34 g/m*3 -0.78 C 1.73333 km/h
316 15-02-2015 06:00:00 -1.20833 C 4.21 g/m*3 -1.21 C 0.53333 km/h
317 15-02-2015 07:00:00 -1.475 C 4.15 g/m*3 -1.48 C 0.13333 km/h
318 15-02-2015 08:00:00 -1.425 C 4.18 g/m*3 -1.43 C 0 km/h
319 15-02-2015 09:00:00 -0.99167 C 4.34 g/m*3 -0.99 C 0 km/h
320 15-02-2015 10:00:00 0.05 C 4.63 g/m*3 0.05 C 2 km/h
321 15-02-2015 11:00:00 1.45833 C 4.9 g/m*3 1.46 C 2.53333 km/h
322 15-02-2015 12:00:00 2.775 C 5.18 g/m*3 2.78 C 2.4 km/h
323 15-02-2015 13:00:00 5.70833 C 5.46 g/m*3 5.71 C 4.95833 km/h
324 15-02-2015 14:00:00 6.75 C 5.71 g/m*3 6.75 C 4.66667 km/h
325 15-02-2015 15:00:00 6.81667 C 5.92 g/m*3 6.82 C 1.06667 km/h
Sensor: Nr:Datum:Temp:Abs-Feuchte:Windchill:Wind:
Aussen-T/F 326 15-02-2015 16:00:00 5.98333 C 5.84 g/m*3 5.98 C 4.4 km/h
327 15-02-2015 17:00:00 4.88333 C 5.49 g/m*3 3.54 C 6.13333 km/h
328 15-02-2015 18:00:00 3.33333 C 5.15 g/m*3 1.53 C 6.83333 km/h
329 15-02-2015 19:00:00 2.65 C 5.1 g/m*3 1.17 C 5.6 km/h
330 15-02-2015 20:00:00 1.95833 C 5 g/m*3 1.96 C 4.26667 km/h
331 15-02-2015 21:00:00 1.15833 C 4.78 g/m*3 1.16 C 4 km/h
332 15-02-2015 22:00:00 0.33333 C 4.59 g/m*3 0.33 C 1.2 km/h
333 15-02-2015 23:00:00 -0.15 C 4.5 g/m*3 -0.15 C 2.13333 km/h
334 16-02-2015 00:00:00 -0.64167 C 4.36 g/m*3 -0.64 C 1.46667 km/h
335 16-02-2015 01:00:00 -0.9 C 4.3 g/m*3 -0.9 C 0.13333 km/h
336 16-02-2015 02:00:00 -0.70833 C 4.38 g/m*3 -0.71 C 0.13333 km/h
337 16-02-2015 03:00:00 -0.49167 C 4.45 g/m*3 -0.49 C 0 km/h
338 16-02-2015 04:00:00 -0.19167 C 4.54 g/m*3 -0.19 C 0 km/h
339 16-02-2015 05:00:00 0.15 C 4.65 g/m*3 0.15 C 0 km/h
340 16-02-2015 06:00:00 0.55 C 4.75 g/m*3 0.55 C 0.4 km/h
341 16-02-2015 07:00:00 0.875 C 4.85 g/m*3 0.88 C 0.53333 km/h
342 16-02-2015 08:00:00 1.3 C 4.92 g/m*3 1.3 C 0.4 km/h
343 16-02-2015 09:00:00 2 C 4.94 g/m*3 2 C 1.06667 km/h
344 16-02-2015 10:00:00 2.53333 C 4.95 g/m*3 2.53 C 3.33333 km/h
345 16-02-2015 11:00:00 2.9 C 5 g/m*3 1.3 C 6.025 km/h
346 16-02-2015 12:00:00 3.18333 C 5.05 g/m*3 1.1 C 7.65833 km/h
347 16-02-2015 13:00:00 3.60833 C 5.15 g/m*3 1.8 C 6.975 km/h
348 16-02-2015 14:00:00 4.15833 C 5.25 g/m*3 2.66 C 6.29167 km/h
349 16-02-2015 15:00:00 4.00833 C 5.19 g/m*3 4.01 C 4.66667 km/h
350 16-02-2015 16:00:00 3.86667 C 5.17 g/m*3 3.87 C 4.4 km/h
Sensor: Nr:Datum:Temp:Abs-Feuchte:Windchill:Wind:
Aussen-T/F 351 16-02-2015 17:00:00 3.45 C 5.07 g/m*3 3.45 C 4.14167 km/h
352 16-02-2015 18:00:00 2.775 C 5 g/m*3 2.78 C 3.075 km/h
353 16-02-2015 19:00:00 2.50833 C 4.93 g/m*3 2.51 C 1.86667 km/h
354 16-02-2015 20:00:00 2.4 C 4.91 g/m*3 2.4 C 1.33333 km/h
355 16-02-2015 21:00:00 2.4 C 4.92 g/m*3 2.4 C 0.68571 km/h
356 16-02-2015 22:00:00 2.35 C 4.93 g/m*3 2.35 C 2.26667 km/h
357 16-02-2015 23:00:00 2.3 C 4.93 g/m*3 2.3 C 1.86667 km/h
358 17-02-2015 00:00:00 2.30833 C 4.94 g/m*3 2.31 C 1.6 km/h
359 17-02-2015 01:00:00 2.40833 C 4.99 g/m*3 2.41 C 0.8 km/h
360 17-02-2015 02:00:00 2.38333 C 5.03 g/m*3 2.38 C 0.53333 km/h
361 17-02-2015 03:00:00 2.3 C 4.93 g/m*3 2.3 C 2.14167 km/h
362 17-02-2015 04:00:00 2.125 C 4.89 g/m*3 2.13 C 3.075 km/h
363 17-02-2015 05:00:00 1.93333 C 4.9 g/m*3 1.93 C 4.26667 km/h
364 17-02-2015 06:00:00 1.9 C 4.95 g/m*3 1.9 C 4.13333 km/h
365 17-02-2015 07:00:00 1.9 C 4.95 g/m*3 1.9 C 4.80833 km/h
366 17-02-2015 08:00:00 1.95 C 4.93 g/m*3 0.58 C 5.09167 km/h
367 17-02-2015 09:00:00 2.15833 C 5 g/m*3 0.5 C 5.88333 km/h
368 17-02-2015 10:00:00 2.48333 C 5.11 g/m*3 2.48 C 3.46667 km/h
369 17-02-2015 11:00:00 2.925 C 5.25 g/m*3 2.93 C 3.6 km/h
370 17-02-2015 12:00:00 3.475 C 5.43 g/m*3 3.48 C 3.46667 km/h
371 17-02-2015 13:00:00 4.475 C 5.58 g/m*3 4.47 C 2.53333 km/h
372 17-02-2015 14:00:00 4.75833 C 5.59 g/m*3 4.76 C 4.41667 km/h
373 17-02-2015 15:00:00 4.86667 C 5.66 g/m*3 4.87 C 2.8 km/h
374 17-02-2015 16:00:00 4.875 C 5.68 g/m*3 4.88 C 1.86667 km/h
375 17-02-2015 17:00:00 4.68333 C 5.72 g/m*3 4.68 C 0 km/h
Sensor: Nr:Datum:Temp:Abs-Feuchte:Windchill:Wind:
Aussen-T/F 376 17-02-2015 18:00:00 4.33333 C 5.8 g/m*3 4.33 C 0.4 km/h
377 17-02-2015 19:00:00 4.2 C 5.83 g/m*3 4.2 C 0 km/h
378 17-02-2015 20:00:00 4.3 C 5.91 g/m*3 4.3 C 0.13333 km/h
379 17-02-2015 21:00:00 4.24167 C 5.95 g/m*3 4.24 C 0.13333 km/h
380 17-02-2015 22:00:00 4.23333 C 6.01 g/m*3 4.23 C 0.13333 km/h
381 17-02-2015 23:00:00 4.25833 C 6.02 g/m*3 4.26 C 0.13333 km/h
382 18-02-2015 00:00:00 4.25 C 5.93 g/m*3 4.25 C 2 km/h
383 18-02-2015 01:00:00 4.18333 C 5.88 g/m*3 4.18 C 0.26667 km/h
384 18-02-2015 02:00:00 4.1 C 5.89 g/m*3 4.1 C 2.26667 km/h
385 18-02-2015 03:00:00 4.1 C 5.95 g/m*3 4.1 C 0.4 km/h
386 18-02-2015 04:00:00 4.1 C 5.95 g/m*3 4.1 C 0.13333 km/h
387 18-02-2015 05:00:00 4 C 5.94 g/m*3 4 C 0 km/h
388 18-02-2015 06:00:00 3.63333 C 5.82 g/m*3 3.63 C 0 km/h
389 18-02-2015 07:00:00 3.71667 C 5.93 g/m*3 3.72 C 0 km/h
390 18-02-2015 08:00:00 3.9 C 6 g/m*3 3.9 C 1.33333 km/h
391 18-02-2015 09:00:00 4.14167 C 6.04 g/m*3 4.14 C 0.13333 km/h
392 18-02-2015 10:00:00 5.01667 C 6.25 g/m*3 5.02 C 2.13333 km/h
393 18-02-2015 11:00:00 5.73333 C 6.34 g/m*3 5.73 C 2.8 km/h
394 18-02-2015 12:00:00 6.01667 C 6.31 g/m*3 6.02 C 3.06667 km/h
395 18-02-2015 13:00:00 6.74167 C 6.29 g/m*3 6.74 C 4.53333 km/h
396 18-02-2015 14:00:00 6.83333 C 6.13 g/m*3 6.83 C 4 km/h
397 18-02-2015 15:00:00 6.88333 C 6.07 g/m*3 6.88 C 2.13333 km/h
398 18-02-2015 16:00:00 6.70833 C 5.92 g/m*3 6.71 C 1.33333 km/h
399 18-02-2015 17:00:00 6.13333 C 5.57 g/m*3 6.13 C 1.86667 km/h
400 18-02-2015 18:00:00 3.9 C 5.38 g/m*3 3.9 C 3.06667 km/h
Sensor: Nr:Datum:Temp:Abs-Feuchte:Windchill:Wind:
Aussen-T/F 401 18-02-2015 19:00:00 1.90833 C 4.96 g/m*3 1.91 C 3.86667 km/h
402 18-02-2015 20:00:00 1.29167 C 4.83 g/m*3 1.29 C 4.66667 km/h
403 18-02-2015 21:00:00 0.64167 C 4.69 g/m*3 0.64 C 2.8 km/h
404 18-02-2015 22:00:00 0.54167 C 4.65 g/m*3 0.54 C 3.46667 km/h
405 18-02-2015 23:00:00 -0.2 C 4.43 g/m*3 -0.2 C 0.66667 km/h
406 19-02-2015 00:00:00 -0.76667 C 4.32 g/m*3 -0.77 C 1.33333 km/h
407 19-02-2015 01:00:00 -1.24167 C 4.21 g/m*3 -1.24 C 0.66667 km/h
408 19-02-2015 02:00:00 -1.45 C 4.16 g/m*3 -1.45 C 0.26667 km/h
409 19-02-2015 03:00:00 -1.65833 C 4.12 g/m*3 -1.66 C 0.13333 km/h
410 19-02-2015 04:00:00 -1.18333 C 4.28 g/m*3 -1.18 C 0 km/h
411 19-02-2015 05:00:00 -0.38333 C 4.53 g/m*3 -0.38 C 1.6 km/h
412 19-02-2015 06:00:00 0.29167 C 4.7 g/m*3 0.29 C 2.14167 km/h
413 19-02-2015 07:00:00 0.64167 C 4.66 g/m*3 0.64 C 1.86667 km/h
414 19-02-2015 08:00:00 0.64167 C 4.58 g/m*3 0.64 C 4.675 km/h
415 19-02-2015 09:00:00 0.7 C 4.55 g/m*3 -0.95 C 5.35 km/h
416 19-02-2015 10:00:00 0.83333 C 4.5 g/m*3 -1.74 C 7.93333 km/h
417 19-02-2015 11:00:00 1.36667 C 4.57 g/m*3 -1.27 C 8.46667 km/h
418 19-02-2015 12:00:00 2.025 C 4.7 g/m*3 -0.49 C 8.46667 km/h
419 19-02-2015 13:00:00 2.20833 C 4.71 g/m*3 -0.12 C 7.91667 km/h
420 19-02-2015 14:00:00 2.53333 C 4.73 g/m*3 0.46 C 7.25833 km/h
421 19-02-2015 15:00:00 2.75833 C 4.74 g/m*3 0.34 C 8.59167 km/h
422 19-02-2015 16:00:00 2.55833 C 4.72 g/m*3 0.17 C 8.325 km/h
423 19-02-2015 17:00:00 2.575 C 4.77 g/m*3 2.58 C 4.54167 km/h
424 19-02-2015 18:00:00 2.33333 C 4.72 g/m*3 2.33 C 3.06667 km/h
425 19-02-2015 19:00:00 2.2 C 4.67 g/m*3 2.2 C 4.55 km/h
Sensor: Nr:Datum:Temp:Abs-Feuchte:Windchill:Wind:
Aussen-T/F 426 19-02-2015 20:00:00 1.94167 C 4.59 g/m*3 1.94 C 3.475 km/h
427 19-02-2015 21:00:00 1.45833 C 4.54 g/m*3 1.46 C 1.875 km/h
428 19-02-2015 22:00:00 1.1 C 4.53 g/m*3 1.1 C 2.66667 km/h
429 19-02-2015 23:00:00 1.28333 C 4.6 g/m*3 1.28 C 0.53333 km/h
430 20-02-2015 00:00:00 0.85 C 4.62 g/m*3 0.85 C 0 km/h
431 20-02-2015 01:00:00 1.375 C 4.73 g/m*3 1.38 C 0.66667 km/h
432 20-02-2015 02:00:00 1.79167 C 4.88 g/m*3 1.79 C 0.8 km/h
433 20-02-2015 03:00:00 3.825 C 5.35 g/m*3 1.7 C 8.20833 km/h
434 20-02-2015 04:00:00 4.43333 C 5.37 g/m*3 3.2 C 5.63333 km/h
435 20-02-2015 05:00:00 3.875 C 5.37 g/m*3 3.88 C 2.66667 km/h
436 20-02-2015 06:00:00 3.475 C 5.45 g/m*3 3.48 C 1.46667 km/h
437 20-02-2015 07:00:00 3.31667 C 5.47 g/m*3 3.32 C 1.06667 km/h
438 20-02-2015 08:00:00 4.61667 C 5.8 g/m*3 4.62 C 2.53333 km/h
439 20-02-2015 09:00:00 6.65 C 6.09 g/m*3 5.49 C 6.425 km/h
440 20-02-2015 10:00:00 7.375 C 6.27 g/m*3 6.75 C 5.08333 km/h
441 20-02-2015 11:00:00 8.90833 C 6.56 g/m*3 6.67 C 14.225 km/h
442 20-02-2015 12:00:00 9.54167 C 6.56 g/m*3 7.28 C 15.56667 km/h
443 20-02-2015 13:00:00 9.81667 C 6.48 g/m*3 7.32 C 18.25 km/h
444 20-02-2015 14:00:00 9.80833 C 6.5 g/m*3 8.66 C 8.6 km/h
445 20-02-2015 15:00:00 10.55833 C 6.46 g/m*3 9.62 C 8.19167 km/h
446 20-02-2015 16:00:00 11.60833 C 6.24 g/m*3 11.61 C 10.225 km/h
447 20-02-2015 17:00:00 11.21667 C 6.22 g/m*3 11.22 C 4.41667 km/h
448 20-02-2015 18:00:00 9.45 C 6.45 g/m*3 9.45 C 2.66667 km/h
449 20-02-2015 19:00:00 9.11667 C 6.39 g/m*3 9.12 C 2.94167 km/h
450 20-02-2015 20:00:00 9.78333 C 6.33 g/m*3 8.83 C 7.64167 km/h
Sensor: Nr:Datum:Temp:Abs-Feuchte:Windchill:Wind:
Aussen-T/F 451 20-02-2015 21:00:00 9.49167 C 6.63 g/m*3 8.71 C 6.7 km/h
452 20-02-2015 22:00:00 8.31667 C 6.78 g/m*3 8.32 C 4.68333 km/h
453 20-02-2015 23:00:00 7.93333 C 6.69 g/m*3 7.93 C 2.53333 km/h
454 21-02-2015 00:00:00 7.21667 C 6.73 g/m*3 7.22 C 2.53333 km/h
455 21-02-2015 01:00:00 7.44167 C 6.67 g/m*3 7.44 C 3.6 km/h
456 21-02-2015 02:00:00 7.425 C 6.57 g/m*3 6.76 C 5.21667 km/h
457 21-02-2015 03:00:00 6.94167 C 6.59 g/m*3 6.94 C 3.34167 km/h
458 21-02-2015 04:00:00 7.325 C 6.57 g/m*3 6.05 C 7.24167 km/h
459 21-02-2015 05:00:00 6.71667 C 6.63 g/m*3 5.69 C 6.025 km/h
460 21-02-2015 06:00:00 6.5 C 6.67 g/m*3 5.12 C 7.11667 km/h
461 21-02-2015 07:00:00 6.36667 C 6.55 g/m*3 4.22 C 10.35 km/h
462 21-02-2015 08:00:00 5.29167 C 5.8 g/m*3 2.91 C 10.475 km/h
463 21-02-2015 09:00:00 4.66667 C 5.76 g/m*3 3.67 C 5.08333 km/h
464 21-02-2015 10:00:00 4.85833 C 5.87 g/m*3 3.84 C 5.225 km/h
465 21-02-2015 11:00:00 5.28333 C 5.97 g/m*3 5.28 C 4.81667 km/h
466 21-02-2015 12:00:00 5.7 C 6.04 g/m*3 4.15 C 7.25833 km/h
467 21-02-2015 13:00:00 5.8 C 6.2 g/m*3 4.91 C 5.20833 km/h
468 21-02-2015 14:00:00 6.73333 C 6.14 g/m*3 4.79 C 9.68333 km/h
469 21-02-2015 15:00:00 6.33333 C 5.8 g/m*3 4.38 C 9.39167 km/h
470 21-02-2015 16:00:00 6.28333 C 5.52 g/m*3 4.73 C 7.65 km/h
471 21-02-2015 17:00:00 5.55833 C 5.41 g/m*3 5.56 C 4.275 km/h
472 21-02-2015 18:00:00 4.33333 C 5.41 g/m*3 4.33 C 3.86667 km/h
473 21-02-2015 19:00:00 3.1 C 5.31 g/m*3 3.1 C 3.06667 km/h
474 21-02-2015 20:00:00 2.35 C 5.22 g/m*3 2.35 C 1.46667 km/h
475 21-02-2015 21:00:00 1.75 C 5.08 g/m*3 1.75 C 0.26667 km/h
Sensor: Nr:Datum:Temp:Abs-Feuchte:Windchill:Wind:
Aussen-T/F 476 21-02-2015 22:00:00 1.3 C 4.96 g/m*3 1.3 C 0 km/h
477 21-02-2015 23:00:00 1.33333 C 5.01 g/m*3 1.33 C 0 km/h
478 22-02-2015 00:00:00 1.61667 C 5.13 g/m*3 1.62 C 1.33333 km/h
479 22-02-2015 01:00:00 1.68333 C 5.17 g/m*3 1.68 C 0 km/h
480 22-02-2015 02:00:00 2.10833 C 5.33 g/m*3 2.11 C 0.13333 km/h
481 22-02-2015 03:00:00 2.38333 C 5.46 g/m*3 2.38 C 0 km/h
482 22-02-2015 04:00:00 2.55 C 5.48 g/m*3 2.55 C 0.53333 km/h
483 22-02-2015 05:00:00 2.73333 C 5.53 g/m*3 2.73 C 0 km/h
484 22-02-2015 06:00:00 2.8 C 5.57 g/m*3 2.8 C 0.66667 km/h
485 22-02-2015 07:00:00 2.94167 C 5.54 g/m*3 2.94 C 2.4 km/h
486 22-02-2015 08:00:00 3.09167 C 5.5 g/m*3 3.09 C 2 km/h
487 22-02-2015 09:00:00 3.66667 C 5.51 g/m*3 3.67 C 0.8 km/h
488 22-02-2015 10:00:00 4.45 C 5.57 g/m*3 4.45 C 3.33333 km/h
489 22-02-2015 11:00:00 5.05 C 5.44 g/m*3 5.05 C 1.86667 km/h
490 22-02-2015 12:00:00 6.16667 C 5.25 g/m*3 6.17 C 4.54167 km/h
491 22-02-2015 13:00:00 7.73333 C 5.09 g/m*3 6.7 C 6.575 km/h
492 22-02-2015 14:00:00 7.525 C 4.62 g/m*3 6.36 C 6.96667 km/h
493 22-02-2015 15:00:00 7.70833 C 4.64 g/m*3 6.95 C 5.63333 km/h
494 22-02-2015 16:00:00 7.51667 C 4.71 g/m*3 6.53 C 6.30833 km/h
495 22-02-2015 17:00:00 6.39167 C 4.83 g/m*3 5.31 C 6.03333 km/h
496 22-02-2015 18:00:00 3.13333 C 4.78 g/m*3 3.13 C 2.53333 km/h
497 22-02-2015 19:00:00 1.95833 C 4.67 g/m*3 1.96 C 4 km/h
498 22-02-2015 20:00:00 1.51667 C 4.62 g/m*3 1.52 C 4.13333 km/h
499 22-02-2015 21:00:00 1.2 C 4.58 g/m*3 1.2 C 3.73333 km/h
500 22-02-2015 22:00:00 1.2 C 4.55 g/m*3 1.2 C 3.6 km/h
Sensor: Nr:Datum:Temp:Abs-Feuchte:Windchill:Wind:
Aussen-T/F 501 22-02-2015 23:00:00 2.175 C 4.66 g/m*3 0.67 C 5.49167 km/h
502 23-02-2015 00:00:00 2.96667 C 4.71 g/m*3 2.97 C 3.75 km/h
503 23-02-2015 01:00:00 3.675 C 4.63 g/m*3 2.49 C 5.225 km/h
504 23-02-2015 02:00:00 3.99167 C 4.67 g/m*3 3.99 C 4.275 km/h
505 23-02-2015 03:00:00 4.19167 C 4.63 g/m*3 4.19 C 2.94167 km/h
506 23-02-2015 04:00:00 4.36667 C 4.54 g/m*3 2.53 C 7.50833 km/h
507 23-02-2015 05:00:00 4.28333 C 4.62 g/m*3 2.07 C 8.86667 km/h
508 23-02-2015 06:00:00 3.59167 C 4.89 g/m*3 3.59 C 4.41667 km/h
509 23-02-2015 07:00:00 1.875 C 5.01 g/m*3 1.88 C 0.4 km/h
510 23-02-2015 08:00:00 1.13333 C 4.92 g/m*3 1.13 C 0 km/h
511 23-02-2015 09:00:00 1.075 C 4.96 g/m*3 1.08 C 0 km/h
512 23-02-2015 10:00:00 1.1 C 4.98 g/m*3 1.1 C 0.13333 km/h
513 23-02-2015 11:00:00 1.24167 C 5.07 g/m*3 1.24 C 0 km/h
514 23-02-2015 12:00:00 1.83333 C 5.3 g/m*3 1.83 C 0.26667 km/h
515 23-02-2015 13:00:00 3.01667 C 5.77 g/m*3 3.02 C 2.40833 km/h
516 23-02-2015 14:00:00 4.21667 C 6.22 g/m*3 4.22 C 3.08333 km/h
517 23-02-2015 15:00:00 5.075 C 6.5 g/m*3 3.79 C 6.05 km/h
518 23-02-2015 16:00:00 5.61667 C 6.58 g/m*3 3.91 C 7.79167 km/h
519 23-02-2015 17:00:00 5.55 C 6.61 g/m*3 5.55 C 3.60833 km/h
520 23-02-2015 18:00:00 4.74167 C 6.32 g/m*3 4.74 C 3.2 km/h
521 23-02-2015 19:00:00 4.74167 C 6.4 g/m*3 3.24 C 6.56667 km/h
522 23-02-2015 20:00:00 4.825 C 6.34 g/m*3 4.83 C 4 km/h
523 23-02-2015 21:00:00 3.74167 C 5.98 g/m*3 3.74 C 2.93333 km/h
524 23-02-2015 22:00:00 3.30833 C 5.84 g/m*3 3.31 C 2.93333 km/h
525 23-02-2015 23:00:00 3.10833 C 5.81 g/m*3 3.11 C 2 km/h
Sensor: Nr:Datum:Temp:Abs-Feuchte:Windchill:Wind:
Aussen-T/F 526 24-02-2015 00:00:00 2.96667 C 5.75 g/m*3 2.97 C 1.2 km/h
527 24-02-2015 01:00:00 2.4 C 5.54 g/m*3 2.4 C 1.46667 km/h
528 24-02-2015 02:00:00 2.01667 C 5.4 g/m*3 2.02 C 2.13333 km/h
529 24-02-2015 03:00:00 3.31667 C 5.76 g/m*3 1.98 C 5.475 km/h
530 24-02-2015 04:00:00 4.29167 C 5.59 g/m*3 1.77 C 10.20833 km/h
531 24-02-2015 05:00:00 3.975 C 5.42 g/m*3 1.85 C 8.31667 km/h
532 24-02-2015 06:00:00 3.74167 C 5.36 g/m*3 2.27 C 6.025 km/h
533 24-02-2015 07:00:00 4.075 C 5.37 g/m*3 2.14 C 7.65 km/h
534 24-02-2015 08:00:00 4.15 C 5.34 g/m*3 1.01 C 13.15 km/h
535 24-02-2015 09:00:00 4.475 C 5.44 g/m*3 0.82 C 16.9 km/h
536 24-02-2015 10:00:00 5.20833 C 5.65 g/m*3 1.64 C 17.56667 km/h
537 24-02-2015 11:00:00 5.81667 C 5.78 g/m*3 2.13 C 19.70833 km/h
538 24-02-2015 12:00:00 6.675 C 5.96 g/m*3 3.32 C 18.76667 km/h
539 24-02-2015 13:00:00 6.9 C 5.97 g/m*3 3.98 C 15.83333 km/h
540 24-02-2015 14:00:00 7.10833 C 6 g/m*3 4.66 C 12.9 km/h
541 24-02-2015 15:00:00 7.05 C 5.96 g/m*3 4.53 C 13.3 km/h
542 24-02-2015 16:00:00 7.175 C 6.06 g/m*3 5.32 C 9.68333 km/h
543 24-02-2015 17:00:00 6.85833 C 6.03 g/m*3 5.47 C 7.39167 km/h
544 24-02-2015 18:00:00 5.58333 C 5.91 g/m*3 4.62 C 5.34167 km/h
545 24-02-2015 19:00:00 5.225 C 5.91 g/m*3 4.26 C 5.20833 km/h
546 24-02-2015 20:00:00 5.575 C 5.89 g/m*3 4.25 C 6.43333 km/h
547 24-02-2015 21:00:00 5.275 C 5.9 g/m*3 3.66 C 7.25 km/h
548 24-02-2015 22:00:00 4.19167 C 5.69 g/m*3 3.08 C 5.21667 km/h
549 24-02-2015 23:00:00 3.21667 C 5.52 g/m*3 3.22 C 4.81667 km/h
550 25-02-2015 00:00:00 3.50833 C 5.62 g/m*3 3.51 C 4.40833 km/h
Sensor: Nr:Datum:Temp:Abs-Feuchte:Windchill:Wind:
Aussen-T/F 551 25-02-2015 01:00:00 2.93333 C 5.51 g/m*3 2.93 C 3.06667 km/h
552 25-02-2015 02:00:00 3.025 C 5.57 g/m*3 3.03 C 1.06667 km/h
553 25-02-2015 03:00:00 2.78333 C 5.53 g/m*3 2.78 C 1.33333 km/h
554 25-02-2015 04:00:00 2.58333 C 5.43 g/m*3 2.58 C 1.46667 km/h
555 25-02-2015 05:00:00 2.14167 C 5.3 g/m*3 2.14 C 2.13333 km/h
556 25-02-2015 06:00:00 1.4 C 5.05 g/m*3 1.4 C 1.2 km/h
557 25-02-2015 07:00:00 0.925 C 4.91 g/m*3 0.93 C 0.53333 km/h
558 25-02-2015 08:00:00 1.49167 C 5.16 g/m*3 1.49 C 2.8 km/h
559 25-02-2015 09:00:00 2.90833 C 5.52 g/m*3 0.27 C 9.55 km/h
560 25-02-2015 10:00:00 4.38333 C 5.69 g/m*3 1.37 C 12.76667 km/h
561 25-02-2015 11:00:00 5.25833 C 5.73 g/m*3 2.92 C 10.225 km/h
562 25-02-2015 12:00:00 7.00833 C 5.98 g/m*3 5.18 C 9.40833 km/h
563 25-02-2015 13:00:00 7.83333 C 5.99 g/m*3 5.72 C 11.83333 km/h
564 25-02-2015 14:00:00 7.925 C 5.88 g/m*3 5.68 C 12.76667 km/h
565 25-02-2015 15:00:00 7.89167 C 5.8 g/m*3 5.68 C 12.5 km/h
566 25-02-2015 16:00:00 7.25 C 5.77 g/m*3 5.41 C 9.68333 km/h
567 25-02-2015 17:00:00 5.99167 C 6.24 g/m*3 5.99 C 2.00833 km/h
568 25-02-2015 18:00:00 4.75 C 6.28 g/m*3 4.75 C 1.46667 km/h
569 25-02-2015 19:00:00 4.21667 C 6.17 g/m*3 4.22 C 0.13333 km/h
570 25-02-2015 20:00:00 4.10833 C 6.15 g/m*3 4.11 C 0 km/h
571 25-02-2015 21:00:00 4.14167 C 6.23 g/m*3 4.14 C 0.26667 km/h
572 25-02-2015 22:00:00 4.15833 C 6.23 g/m*3 4.16 C 0 km/h
573 25-02-2015 23:00:00 4.2 C 6.25 g/m*3 4.2 C 0 km/h
574 26-02-2015 00:00:00 4.2 C 6.25 g/m*3 4.2 C 0 km/h
575 26-02-2015 01:00:00 4.29167 C 6.29 g/m*3 4.29 C 1.33333 km/h
Sensor: Nr:Datum:Temp:Abs-Feuchte:Windchill:Wind:
Aussen-T/F 576 26-02-2015 02:00:00 4.19167 C 6.25 g/m*3 4.19 C 1.06667 km/h
577 26-02-2015 03:00:00 3.58333 C 6 g/m*3 3.58 C 0.8 km/h
578 26-02-2015 04:00:00 3.4 C 5.96 g/m*3 3.4 C 0 km/h
579 26-02-2015 05:00:00 3.5 C 6.01 g/m*3 3.5 C 0 km/h
580 26-02-2015 06:00:00 3.525 C 6.03 g/m*3 3.53 C 0 km/h
581 26-02-2015 07:00:00 3.25833 C 5.93 g/m*3 3.26 C 0 km/h
582 26-02-2015 08:00:00 3.35833 C 5.97 g/m*3 3.36 C 0.13333 km/h
583 26-02-2015 09:00:00 4.46667 C 6.43 g/m*3 4.47 C 3.46667 km/h
584 26-02-2015 10:00:00 6.40833 C 7.13 g/m*3 6.41 C 4.68333 km/h
585 26-02-2015 11:00:00 8.04167 C 7.12 g/m*3 8.04 C 4.14167 km/h
586 26-02-2015 12:00:00 8.45833 C 6.89 g/m*3 8.46 C 4.95 km/h
587 26-02-2015 13:00:00 8.85 C 6.85 g/m*3 8.85 C 4.54167 km/h
588 26-02-2015 14:00:00 9.225 C 6.83 g/m*3 9.23 C 4.26667 km/h
589 26-02-2015 15:00:00 9.575 C 6.66 g/m*3 8.74 C 6.975 km/h
590 26-02-2015 16:00:00 9.21667 C 6.59 g/m*3 8.42 C 6.58333 km/h
591 26-02-2015 17:00:00 8.45 C 6.65 g/m*3 8.45 C 1.73333 km/h
592 26-02-2015 18:00:00 7.1 C 6.77 g/m*3 7.1 C 0.66667 km/h
593 26-02-2015 19:00:00 6.49167 C 6.73 g/m*3 6.49 C 1.86667 km/h
594 26-02-2015 20:00:00 6.4 C 6.71 g/m*3 6.4 C 1.06667 km/h
595 26-02-2015 21:00:00 6.43333 C 6.73 g/m*3 6.43 C 0.8 km/h
596 26-02-2015 22:00:00 6.60833 C 6.73 g/m*3 6.61 C 3.46667 km/h
597 26-02-2015 23:00:00 6.49167 C 6.86 g/m*3 6.49 C 0.4 km/h
598 27-02-2015 00:00:00 5.9 C 6.87 g/m*3 5.9 C 0 km/h
599 27-02-2015 01:00:00 5.79167 C 6.88 g/m*3 5.79 C 0.4 km/h
600 27-02-2015 02:00:00 5.65833 C 6.87 g/m*3 5.66 C 0 km/h
Sensor: Nr:Datum:Temp:Abs-Feuchte:Windchill:Wind:
Aussen-T/F 601 27-02-2015 03:00:00 5.69167 C 6.9 g/m*3 5.69 C 0 km/h
602 27-02-2015 04:00:00 5.61667 C 6.87 g/m*3 5.62 C 0 km/h
603 27-02-2015 05:00:00 5.56667 C 6.84 g/m*3 5.57 C 0 km/h
604 27-02-2015 06:00:00 5.45 C 6.82 g/m*3 5.45 C 0 km/h
605 27-02-2015 07:00:00 5.53333 C 6.89 g/m*3 5.53 C 4.425 km/h
606 27-02-2015 08:00:00 4.91667 C 6.41 g/m*3 1.81 C 13.96667 km/h
607 27-02-2015 09:00:00 4.29167 C 6.07 g/m*3 0.81 C 15.44167 km/h
608 27-02-2015 10:00:00 4.99167 C 6.24 g/m*3 1.57 C 16.1 km/h
609 27-02-2015 11:00:00 5.45 C 6.4 g/m*3 3.42 C 9 km/h
610 27-02-2015 12:00:00 6.11667 C 6.52 g/m*3 3.55 C 12.36667 km/h
611 27-02-2015 13:00:00 6.15833 C 6.36 g/m*3 3.92 C 10.61667 km/h
612 27-02-2015 14:00:00 5.91667 C 6.14 g/m*3 3.76 C 9.96667 km/h
613 27-02-2015 15:00:00 5.96667 C 6.16 g/m*3 4 C 9.15 km/h
614 27-02-2015 16:00:00 5.90833 C 5.96 g/m*3 4.05 C 8.6 km/h
615 27-02-2015 17:00:00 5.83333 C 5.89 g/m*3 5.83 C 4.68333 km/h
616 27-02-2015 18:00:00 5.11667 C 5.92 g/m*3 5.12 C 1.73333 km/h
617 27-02-2015 19:00:00 4.25 C 5.75 g/m*3 4.25 C 3.33333 km/h
618 27-02-2015 20:00:00 3.13333 C 5.46 g/m*3 3.13 C 3.06667 km/h
619 27-02-2015 21:00:00 2.70833 C 5.38 g/m*3 2.71 C 0.93333 km/h
620 27-02-2015 22:00:00 2.40833 C 5.28 g/m*3 2.41 C 1.73333 km/h
621 27-02-2015 23:00:00 2.04167 C 5.13 g/m*3 2.04 C 2 km/h
622 28-02-2015 00:00:00 2.39167 C 5.2 g/m*3 2.39 C 2.8 km/h
623 28-02-2015 01:00:00 1.2 C 4.86 g/m*3 1.2 C 0.26667 km/h
624 28-02-2015 02:00:00 0.33333 C 4.69 g/m*3 0.33 C 1.06667 km/h
625 28-02-2015 03:00:00 0.01667 C 4.63 g/m*3 0.02 C 0.53333 km/h
Sensor: Nr:Datum:Temp:Abs-Feuchte:Windchill:Wind:
Aussen-T/F 626 28-02-2015 04:00:00 -0.29167 C 4.55 g/m*3 -0.29 C 0.53333 km/h
627 28-02-2015 05:00:00 -0.76667 C 4.41 g/m*3 -0.77 C 0.4 km/h
628 28-02-2015 06:00:00 -1.00833 C 4.34 g/m*3 -1.01 C 0 km/h
629 28-02-2015 07:00:00 -1.10833 C 4.34 g/m*3 -1.11 C 0.4 km/h
630 28-02-2015 08:00:00 -1.03333 C 4.37 g/m*3 -1.03 C 1.2 km/h
631 28-02-2015 09:00:00 -0.475 C 4.56 g/m*3 -0.48 C 0.93333 km/h
632 28-02-2015 10:00:00 0.28333 C 4.82 g/m*3 0.28 C 1.2 km/h
633 28-02-2015 11:00:00 1.15833 C 5.14 g/m*3 1.16 C 1.73333 km/h
634 28-02-2015 12:00:00 4.24167 C 5.57 g/m*3 1.86 C 9.53333 km/h
635 28-02-2015 13:00:00 6.69167 C 5.12 g/m*3 4.27 C 12.23333 km/h
636 28-02-2015 14:00:00 7.48333 C 5.2 g/m*3 5.1 C 13.03333 km/h
637 28-02-2015 15:00:00 8.39167 C 4.94 g/m*3 6.74 C 9.81667 km/h
638 28-02-2015 16:00:00 7.88333 C 4.7 g/m*3 6.16 C 9.68333 km/h
639 28-02-2015 17:00:00 5.825 C 5.23 g/m*3 5.83 C 3.06667 km/h
640 28-02-2015 18:00:00 3.33333 C 5.1 g/m*3 2.06 C 5.33333 km/h
641 28-02-2015 19:00:00 2.24167 C 4.93 g/m*3 0.65 C 5.73333 km/h
642 28-02-2015 20:00:00 1.85833 C 4.82 g/m*3 1.86 C 4.8 km/h
643 28-02-2015 21:00:00 1.84167 C 4.79 g/m*3 1.84 C 4.8 km/h
644 28-02-2015 22:00:00 2.46667 C 4.85 g/m*3 2.47 C 3.6 km/h
645 28-02-2015 23:00:00 3.96667 C 4.81 g/m*3 3.97 C 3.75 km/h
646 01-03-2015 00:00:00 4.11667 C 4.91 g/m*3 4.12 C 2.13333 km/h
647 01-03-2015 01:00:00 4.56667 C 4.84 g/m*3 4.57 C 3.74167 km/h
648 01-03-2015 02:00:00 5.20833 C 4.8 g/m*3 5.21 C 4.275 km/h
649 01-03-2015 03:00:00 5.15833 C 5.17 g/m*3 5.16 C 4.81667 km/h
650 01-03-2015 04:00:00 4.19167 C 5.83 g/m*3 4.19 C 1.6 km/h
Sensor: Nr:Datum:Temp:Abs-Feuchte:Windchill:Wind:
Aussen-T/F 651 01-03-2015 05:00:00 3.80833 C 5.89 g/m*3 3.81 C 0.66667 km/h
652 01-03-2015 06:00:00 4.10833 C 6.01 g/m*3 4.11 C 2.8 km/h
653 01-03-2015 07:00:00 4.49167 C 6.21 g/m*3 4.49 C 2.53333 km/h
654 01-03-2015 08:00:00 5.48333 C 6.61 g/m*3 3.9 C 7.24167 km/h
655 01-03-2015 09:00:00 6.99167 C 6.99 g/m*3 5.13 C 9.54167 km/h
656 01-03-2015 10:00:00 7.78333 C 7.35 g/m*3 6.21 C 8.875 km/h
657 01-03-2015 11:00:00 8.94167 C 7.58 g/m*3 7.08 C 11.7 km/h
658 01-03-2015 12:00:00 10.29167 C 7.93 g/m*3 8.62 C 12.36667 km/h
659 01-03-2015 13:00:00 11.425 C 7.27 g/m*3 11.43 C 23.05833 km/h
660 01-03-2015 14:00:00 11.56667 C 6.57 g/m*3 11.57 C 15.3 km/h
661 01-03-2015 15:00:00 11.8 C 6.92 g/m*3 11.8 C 13.95833 km/h
662 01-03-2015 16:00:00 11.85833 C 7.09 g/m*3 11.86 C 16.36667 km/h
663 01-03-2015 17:00:00 10.50833 C 7.16 g/m*3 9.29 C 9.675 km/h
664 01-03-2015 18:00:00 8.175 C 7.23 g/m*3 8.18 C 3.73333 km/h
665 01-03-2015 19:00:00 7.68333 C 7.04 g/m*3 7.68 C 2.93333 km/h
666 01-03-2015 20:00:00 8.45833 C 6.9 g/m*3 8.46 C 4.15 km/h
667 01-03-2015 21:00:00 9.125 C 6.92 g/m*3 9.13 C 4.14167 km/h
668 01-03-2015 22:00:00 9.39167 C 7.14 g/m*3 7.94 C 9.8 km/h
669 01-03-2015 23:00:00 10.025 C 7.16 g/m*3 8.58 C 10.48333 km/h
670 02-03-2015 00:00:00 9.69167 C 7.25 g/m*3 8.09 C 11.025 km/h
671 02-03-2015 01:00:00 9.06667 C 7.62 g/m*3 7.53 C 9.925 km/h
672 02-03-2015 02:00:00 9.2 C 7.47 g/m*3 6.86 C 15.56667 km/h
673 02-03-2015 03:00:00 7.86667 C 6.49 g/m*3 5.39 C 14.23333 km/h
674 02-03-2015 04:00:00 7.21667 C 6.21 g/m*3 6 C 6.96667 km/h
675 02-03-2015 05:00:00 6.78333 C 6.18 g/m*3 6.07 C 5.09167 km/h
Sensor: Nr:Datum:Temp:Abs-Feuchte:Windchill:Wind:
Aussen-T/F 676 02-03-2015 06:00:00 6.51667 C 5.86 g/m*3 4.93 C 7.93333 km/h
677 02-03-2015 07:00:00 5.84167 C 5.91 g/m*3 3.88 C 8.99167 km/h
678 02-03-2015 08:00:00 5.26667 C 5.85 g/m*3 2.71 C 11.29167 km/h
679 02-03-2015 09:00:00 5.05 C 5.91 g/m*3 2.18 C 12.75 km/h
680 02-03-2015 10:00:00 5.63333 C 5.92 g/m*3 5.63 C 4.41667 km/h
681 02-03-2015 11:00:00 6.90833 C 5.75 g/m*3 5.56 C 7.25 km/h
682 02-03-2015 12:00:00 8.58333 C 5.36 g/m*3 5.99 C 16.36667 km/h
683 02-03-2015 13:00:00 9.375 C 5.02 g/m*3 6.68 C 19.04167 km/h
684 02-03-2015 14:00:00 9.55833 C 4.74 g/m*3 7.11 C 17.16667 km/h
685 02-03-2015 15:00:00 9.475 C 4.6 g/m*3 6.85 C 18.63333 km/h
686 02-03-2015 16:00:00 5.98333 C 5.7 g/m*3 2.5 C 18.375 km/h
687 02-03-2015 17:00:00 4.675 C 5.74 g/m*3 1.01 C 17.30833 km/h
688 02-03-2015 18:00:00 3.30833 C 5.31 g/m*3 -0.02 C 13.16667 km/h
689 02-03-2015 19:00:00 2.74167 C 5.31 g/m*3 1.21 C 5.76667 km/h
690 02-03-2015 20:00:00 2.33333 C 5.27 g/m*3 -1.05 C 12.35833 km/h
691 02-03-2015 21:00:00 2.33333 C 5.16 g/m*3 -0.83 C 11.3 km/h
692 02-03-2015 22:00:00 2.23333 C 5.2 g/m*3 0.69 C 5.625 km/h
693 02-03-2015 23:00:00 1.875 C 5.12 g/m*3 0.44 C 5.21667 km/h
694 03-03-2015 00:00:00 2.225 C 5.08 g/m*3 0.06 C 7.38333 km/h
695 03-03-2015 01:00:00 3.225 C 5.06 g/m*3 0.64 C 9.55833 km/h
696 03-03-2015 02:00:00 3.15833 C 4.96 g/m*3 0.8 C 8.60833 km/h
697 03-03-2015 03:00:00 2.31667 C 4.88 g/m*3 0.39 C 6.70833 km/h
698 03-03-2015 04:00:00 1.70833 C 4.84 g/m*3 0.15 C 5.475 km/h
699 03-03-2015 05:00:00 2.45833 C 4.98 g/m*3 1.16 C 5.09167 km/h
700 03-03-2015 06:00:00 2.8 C 5.01 g/m*3 1.14 C 6.15833 km/h
Sensor: Nr:Datum:Temp:Abs-Feuchte:Windchill:Wind:
Aussen-T/F 701 03-03-2015 07:00:00 2.775 C 4.99 g/m*3 0.42 C 8.34167 km/h
702 03-03-2015 08:00:00 2.64167 C 5.02 g/m*3 0.76 C 6.71667 km/h
703 03-03-2015 09:00:00 3.39167 C 5.21 g/m*3 1.19 C 8.2 km/h
704 03-03-2015 10:00:00 5.475 C 5.51 g/m*3 2.47 C 14.1 km/h
705 03-03-2015 11:00:00 7.375 C 5.51 g/m*3 4.62 C 15.43333 km/h
706 03-03-2015 12:00:00 8.575 C 5.53 g/m*3 5.75 C 18.36667 km/h
707 03-03-2015 13:00:00 9.575 C 5.43 g/m*3 6.83 C 20.10833 km/h
708 03-03-2015 14:00:00 10.61667 C 5.52 g/m*3 8.01 C 21.575 km/h
709 03-03-2015 15:00:00 10.65 C 5.5 g/m*3 8.16 C 20.36667 km/h
710 03-03-2015 16:00:00 10.44167 C 5.45 g/m*3 8.12 C 18.1 km/h
711 03-03-2015 17:00:00 9.40833 C 5.61 g/m*3 7.16 C 15.16667 km/h
712 03-03-2015 18:00:00 8.425 C 5.98 g/m*3 5.48 C 19.175 km/h
713 03-03-2015 19:00:00 5.89167 C 6.34 g/m*3 3.5 C 11.14167 km/h
714 03-03-2015 20:00:00 5.325 C 6.29 g/m*3 4.32 C 5.34167 km/h
715 03-03-2015 21:00:00 5.63333 C 6.23 g/m*3 3.73 C 8.59167 km/h
716 03-03-2015 22:00:00 4.84167 C 5.92 g/m*3 2.55 C 9.65833 km/h
717 03-03-2015 23:00:00 3.74167 C 5.63 g/m*3 1.29 C 9.40833 km/h
718 04-03-2015 00:00:00 3.64167 C 5.64 g/m*3 2.2 C 5.9 km/h
719 04-03-2015 01:00:00 3.85 C 5.59 g/m*3 1.55 C 8.875 km/h
720 04-03-2015 02:00:00 3.38333 C 5.5 g/m*3 1.3 C 7.76667 km/h
721 04-03-2015 03:00:00 2.975 C 5.5 g/m*3 1.54 C 5.61667 km/h
722 04-03-2015 04:00:00 2.26667 C 5.32 g/m*3 2.27 C 3.2 km/h
723 04-03-2015 05:00:00 1.675 C 5.13 g/m*3 1.68 C 3.60833 km/h
724 04-03-2015 06:00:00 1.525 C 5.11 g/m*3 1.53 C 3.73333 km/h
725 04-03-2015 07:00:00 1.43333 C 5.04 g/m*3 1.43 C 3.6 km/h
Sensor: Nr:Datum:Temp:Abs-Feuchte:Windchill:Wind:
Aussen-T/F 726 04-03-2015 08:00:00 2.20833 C 5.17 g/m*3 0.3 C 6.58333 km/h
727 04-03-2015 09:00:00 3.55 C 5.23 g/m*3 0.33 C 12.9 km/h
728 04-03-2015 10:00:00 4.35 C 5.39 g/m*3 1.26 C 13.15833 km/h
729 04-03-2015 11:00:00 5.71667 C 5.57 g/m*3 2.65 C 14.9 km/h
730 04-03-2015 12:00:00 7.05833 C 5.58 g/m*3 4.28 C 15.03333 km/h
731 04-03-2015 13:00:00 8.20833 C 5.47 g/m*3 5.75 C 14.63333 km/h
732 04-03-2015 14:00:00 8.01667 C 5.21 g/m*3 5.59 C 14.09167 km/h
733 04-03-2015 15:00:00 7.81667 C 5 g/m*3 5.49 C 13.16667 km/h
734 04-03-2015 16:00:00 7.60833 C 5.15 g/m*3 5.68 C 10.49167 km/h
735 04-03-2015 17:00:00 6.63333 C 5.45 g/m*3 4.44 C 10.85 km/h
736 04-03-2015 18:00:00 4.675 C 5.78 g/m*3 2.81 C 7.79167 km/h
737 04-03-2015 19:00:00 3.8 C 5.53 g/m*3 3.8 C 4.4 km/h
738 04-03-2015 20:00:00 3.70833 C 5.45 g/m*3 2.43 C 5.46667 km/h
739 04-03-2015 21:00:00 4.78333 C 5.44 g/m*3 2.9 C 7.925 km/h
740 04-03-2015 22:00:00 4.84167 C 5.64 g/m*3 2.61 C 9.39167 km/h
741 04-03-2015 23:00:00 4.7 C 5.75 g/m*3 2.73 C 8.2 km/h
742 05-03-2015 00:00:00 4.85 C 5.7 g/m*3 2.68 C 9.13333 km/h
743 05-03-2015 01:00:00 4.3 C 5.53 g/m*3 2.09 C 8.86667 km/h
744 05-03-2015 02:00:00 4.475 C 5.61 g/m*3 2.57 C 7.79167 km/h
745 05-03-2015 03:00:00 3.91667 C 5.5 g/m*3 2.2 C 6.84167 km/h
746 05-03-2015 04:00:00 3.375 C 5.39 g/m*3 3.38 C 4.40833 km/h
747 05-03-2015 05:00:00 3.71667 C 5.48 g/m*3 3.72 C 3.6 km/h
748 05-03-2015 06:00:00 3.21667 C 5.39 g/m*3 3.22 C 3.74167 km/h
749 05-03-2015 07:00:00 2.525 C 5.26 g/m*3 2.53 C 3.60833 km/h
750 05-03-2015 08:00:00 3.05 C 5.48 g/m*3 3.05 C 2.53333 km/h
Sensor: Nr:Datum:Temp:Abs-Feuchte:Windchill:Wind:
Aussen-T/F 751 05-03-2015 09:00:00 4.20833 C 5.68 g/m*3 2.71 C 6.3 km/h
752 05-03-2015 10:00:00 5.24167 C 5.8 g/m*3 3.44 C 7.93333 km/h
753 05-03-2015 11:00:00 5.75833 C 5.83 g/m*3 3.94 C 8.34167 km/h
754 05-03-2015 12:00:00 6.55 C 5.95 g/m*3 4.36 C 10.76667 km/h
755 05-03-2015 13:00:00 7.575 C 5.97 g/m*3 5.72 C 10.08333 km/h
756 05-03-2015 14:00:00 7.68333 C 5.75 g/m*3 5.51 C 11.95833 km/h
757 05-03-2015 15:00:00 8.25833 C 5.62 g/m*3 6.34 C 11.16667 km/h
758 05-03-2015 16:00:00 8.15833 C 5.64 g/m*3 6.65 C 8.88333 km/h
759 05-03-2015 17:00:00 7.55833 C 5.48 g/m*3 6.82 C 5.5 km/h
760 05-03-2015 18:00:00 6.25833 C 5.89 g/m*3 6.26 C 1.6 km/h
761 05-03-2015 19:00:00 5.41667 C 5.96 g/m*3 5.42 C 3.33333 km/h
762 05-03-2015 20:00:00 5.15833 C 5.99 g/m*3 5.16 C 0.8 km/h
763 05-03-2015 21:00:00 4.41667 C 5.8 g/m*3 4.42 C 2.26667 km/h
764 05-03-2015 22:00:00 3.64167 C 5.53 g/m*3 3.64 C 3.2 km/h
765 05-03-2015 23:00:00 2.775 C 5.35 g/m*3 2.78 C 0.8 km/h
766 06-03-2015 00:00:00 2.08333 C 5.14 g/m*3 2.08 C 0.26667 km/h
767 06-03-2015 01:00:00 1.60833 C 5.03 g/m*3 1.61 C 0.8 km/h
768 06-03-2015 02:00:00 1.15 C 4.89 g/m*3 1.15 C 0.26667 km/h
769 06-03-2015 03:00:00 1.11667 C 4.92 g/m*3 1.12 C 0 km/h
770 06-03-2015 04:00:00 0.45833 C 4.7 g/m*3 0.46 C 0.13333 km/h
771 06-03-2015 05:00:00 -0.01667 C 4.59 g/m*3 -0.02 C 0.13333 km/h
772 06-03-2015 06:00:00 -0.41667 C 4.48 g/m*3 -0.42 C 0.13333 km/h
773 06-03-2015 07:00:00 -0.44167 C 4.51 g/m*3 -0.44 C 0.93333 km/h
774 06-03-2015 08:00:00 -0.03333 C 4.64 g/m*3 -0.03 C 0.26667 km/h
775 06-03-2015 09:00:00 1.11667 C 5.02 g/m*3 1.12 C 1.2 km/h
Sensor: Nr:Datum:Temp:Abs-Feuchte:Windchill:Wind:
Aussen-T/F 776 06-03-2015 10:00:00 3.45 C 5.69 g/m*3 3.45 C 2.81667 km/h
777 06-03-2015 11:00:00 6.8 C 6.14 g/m*3 5.67 C 6.41667 km/h
778 06-03-2015 12:00:00 9.00833 C 5.98 g/m*3 8.56 C 5.21667 km/h
779 06-03-2015 13:00:00 9.30833 C 5.96 g/m*3 9.31 C 4.54167 km/h
780 06-03-2015 14:00:00 9.88333 C 5.98 g/m*3 9.52 C 5.33333 km/h
781 06-03-2015 15:00:00 10.05 C 5.65 g/m*3 10.05 C 3.73333 km/h
782 06-03-2015 16:00:00 10.11667 C 5.65 g/m*3 10.12 C 3.60833 km/h
783 06-03-2015 17:00:00 9.56667 C 6 g/m*3 9.57 C 3.34167 km/h
784 06-03-2015 18:00:00 6.95 C 6.1 g/m*3 6.95 C 3.2 km/h
785 06-03-2015 19:00:00 5.23333 C 5.8 g/m*3 5.23 C 3.73333 km/h
786 06-03-2015 20:00:00 4.625 C 5.67 g/m*3 4.63 C 3.33333 km/h
787 06-03-2015 21:00:00 3.65 C 5.43 g/m*3 3.65 C 1.33333 km/h
788 06-03-2015 22:00:00 2.53333 C 5.16 g/m*3 2.53 C 0 km/h
789 06-03-2015 23:00:00 1.78333 C 4.98 g/m*3 1.78 C 0 km/h
790 07-03-2015 00:00:00 1.35 C 4.89 g/m*3 1.35 C 0.26667 km/h
791 07-03-2015 01:00:00 0.70833 C 4.71 g/m*3 0.71 C 0.26667 km/h
792 07-03-2015 02:00:00 0.3 C 4.64 g/m*3 0.3 C 0.13333 km/h
793 07-03-2015 03:00:00 0.03333 C 4.56 g/m*3 0.03 C 0.4 km/h
794 07-03-2015 04:00:00 -0.35 C 4.47 g/m*3 -0.35 C 0 km/h
795 07-03-2015 05:00:00 -0.6 C 4.42 g/m*3 -0.6 C 0 km/h
796 07-03-2015 06:00:00 -0.675 C 4.4 g/m*3 -0.68 C 0.66667 km/h
797 07-03-2015 07:00:00 -0.49167 C 4.5 g/m*3 -0.49 C 0.26667 km/h
798 07-03-2015 08:00:00 0.15 C 4.7 g/m*3 0.15 C 0.53333 km/h
799 07-03-2015 09:00:00 1.33333 C 5.07 g/m*3 1.33 C 0.53333 km/h
800 07-03-2015 10:00:00 3.43333 C 5.5 g/m*3 3.43 C 2.53333 km/h
Sensor: Nr:Datum:Temp:Abs-Feuchte:Windchill:Wind:
Aussen-T/F 801 07-03-2015 11:00:00 5.56667 C 5.86 g/m*3 5.57 C 2.26667 km/h
802 07-03-2015 12:00:00 8.71667 C 6.54 g/m*3 8.72 C 2.8 km/h
803 07-03-2015 13:00:00 12.10833 C 6.71 g/m*3 12.11 C 2.53333 km/h
804 07-03-2015 14:00:00 13.65833 C 6.12 g/m*3 13.66 C 4.53333 km/h
805 07-03-2015 15:00:00 13.66667 C 6.02 g/m*3 13.67 C 5.21667 km/h
806 07-03-2015 16:00:00 12.75833 C 6.06 g/m*3 12.76 C 4.68333 km/h
807 07-03-2015 17:00:00 11.575 C 6.02 g/m*3 11.58 C 6.85 km/h
808 07-03-2015 18:00:00 9.71667 C 6.13 g/m*3 8.75 C 7.65833 km/h
809 07-03-2015 19:00:00 8.125 C 6.01 g/m*3 6.82 C 7.93333 km/h
810 07-03-2015 20:00:00 6.11667 C 5.91 g/m*3 6.12 C 3.33333 km/h
811 07-03-2015 21:00:00 4.69167 C 5.74 g/m*3 4.69 C 3.73333 km/h
812 07-03-2015 22:00:00 3.93333 C 5.57 g/m*3 3.93 C 0.8 km/h
813 07-03-2015 23:00:00 3.21667 C 5.39 g/m*3 3.22 C 0.8 km/h
814 08-03-2015 00:00:00 2.525 C 5.22 g/m*3 2.53 C 0.13333 km/h
815 08-03-2015 01:00:00 2.01667 C 5.12 g/m*3 2.02 C 0 km/h
816 08-03-2015 02:00:00 1.75 C 5.08 g/m*3 1.75 C 0 km/h
817 08-03-2015 03:00:00 1.18333 C 4.89 g/m*3 1.18 C 0 km/h
818 08-03-2015 04:00:00 0.68333 C 4.77 g/m*3 0.68 C 0.13333 km/h
819 08-03-2015 05:00:00 0.11667 C 4.61 g/m*3 0.12 C 0 km/h
820 08-03-2015 06:00:00 -0.2 C 4.54 g/m*3 -0.2 C 0.13333 km/h
821 08-03-2015 07:00:00 -0.35833 C 4.52 g/m*3 -0.36 C 0 km/h
822 08-03-2015 08:00:00 -0.05833 C 4.63 g/m*3 -0.06 C 0 km/h
823 08-03-2015 09:00:00 0.95833 C 4.97 g/m*3 0.96 C 0.13333 km/h
824 08-03-2015 10:00:00 3.20833 C 5.74 g/m*3 3.21 C 0.13333 km/h
825 08-03-2015 11:00:00 5.93333 C 6.51 g/m*3 5.93 C 0.13333 km/h
Sensor: Nr:Datum:Temp:Abs-Feuchte:Windchill:Wind:
Aussen-T/F 826 08-03-2015 12:00:00 9.68333 C 7.56 g/m*3 9.68 C 1.73333 km/h
827 08-03-2015 13:00:00 12.83333 C 7.9 g/m*3 12.83 C 0.53333 km/h
828 08-03-2015 14:00:00 15.7 C 7.3 g/m*3 15.7 C 2.26667 km/h
829 08-03-2015 15:00:00 16.7 C 7.47 g/m*3 16.7 C 2.93333 km/h
830 08-03-2015 16:00:00 15.55 C 7.61 g/m*3 15.55 C 3.2 km/h
831 08-03-2015 17:00:00 13.75833 C 7.32 g/m*3 13.76 C 4.28333 km/h
832 08-03-2015 18:00:00 10.16667 C 7.01 g/m*3 9.92 C 5.06667 km/h
833 08-03-2015 19:00:00 8.35 C 6.66 g/m*3 8.35 C 3.73333 km/h
834 08-03-2015 20:00:00 7.275 C 6.47 g/m*3 7.28 C 2.26667 km/h
835 08-03-2015 21:00:00 6.61667 C 6.31 g/m*3 6.62 C 2.8 km/h
836 08-03-2015 22:00:00 5.98333 C 6.11 g/m*3 5.98 C 1.73333 km/h
837 08-03-2015 23:00:00 4.975 C 5.86 g/m*3 4.97 C 1.33333 km/h
838 09-03-2015 00:00:00 4.51667 C 5.82 g/m*3 4.52 C 1.86667 km/h
839 09-03-2015 01:00:00 3.85833 C 5.64 g/m*3 3.86 C 1.86667 km/h
840 09-03-2015 02:00:00 3.3 C 5.55 g/m*3 3.3 C 2.26667 km/h
841 09-03-2015 03:00:00 3.5 C 5.67 g/m*3 3.5 C 2 km/h
842 09-03-2015 04:00:00 3.15833 C 5.59 g/m*3 3.16 C 0.4 km/h
843 09-03-2015 05:00:00 3.65833 C 5.83 g/m*3 3.66 C 0.66667 km/h
844 09-03-2015 06:00:00 4.13333 C 5.97 g/m*3 4.13 C 0.4 km/h
845 09-03-2015 07:00:00 4.50833 C 6.08 g/m*3 4.51 C 0 km/h
846 09-03-2015 08:00:00 5.28333 C 6.28 g/m*3 5.28 C 0.13333 km/h
847 09-03-2015 09:00:00 6.53333 C 6.62 g/m*3 6.53 C 0.4 km/h
848 09-03-2015 10:00:00 7.975 C 7.11 g/m*3 7.98 C 0.66667 km/h
849 09-03-2015 11:00:00 9.725 C 7.68 g/m*3 9.73 C 3.2 km/h
850 09-03-2015 12:00:00 12.55 C 8.23 g/m*3 12.55 C 5.75833 km/h
Sensor: Nr:Datum:Temp:Abs-Feuchte:Windchill:Wind:
Aussen-T/F 851 09-03-2015 13:00:00 14.26667 C 8.49 g/m*3 14.27 C 7.65 km/h
852 09-03-2015 14:00:00 15.03333 C 8.43 g/m*3 15.03 C 6.3 km/h
853 09-03-2015 15:00:00 15.69167 C 8.44 g/m*3 15.69 C 7.10833 km/h
854 09-03-2015 16:00:00 14.55833 C 8.15 g/m*3 14.56 C 6.84167 km/h
855 09-03-2015 17:00:00 12.53333 C 8.24 g/m*3 12.53 C 2.13333 km/h
856 09-03-2015 18:00:00 9.925 C 7.75 g/m*3 9.93 C 4.13333 km/h
857 09-03-2015 19:00:00 8.31667 C 7.32 g/m*3 8.32 C 2.26667 km/h
858 09-03-2015 20:00:00 7.46667 C 7.12 g/m*3 7.47 C 0.66667 km/h
859 09-03-2015 21:00:00 6.55 C 6.82 g/m*3 6.55 C 0.13333 km/h
860 09-03-2015 22:00:00 5.66667 C 6.56 g/m*3 5.67 C 0.13333 km/h
861 09-03-2015 23:00:00 4.81667 C 6.29 g/m*3 4.82 C 0.13333 km/h
862 10-03-2015 00:00:00 4.29167 C 6.16 g/m*3 4.29 C 0.4 km/h
863 10-03-2015 01:00:00 3.94167 C 6.06 g/m*3 3.94 C 0.26667 km/h
864 10-03-2015 02:00:00 3.53333 C 5.92 g/m*3 3.53 C 0.13333 km/h
865 10-03-2015 03:00:00 3.28333 C 5.82 g/m*3 3.28 C 0.8 km/h
866 10-03-2015 04:00:00 2.55 C 5.55 g/m*3 2.55 C 0.13333 km/h
867 10-03-2015 05:00:00 2.31667 C 5.51 g/m*3 2.32 C 0.53333 km/h
868 10-03-2015 06:00:00 2.9 C 5.73 g/m*3 2.9 C 0.4 km/h
869 10-03-2015 07:00:00 3.53333 C 5.98 g/m*3 3.53 C 1.33333 km/h
870 10-03-2015 08:00:00 4.04167 C 6.19 g/m*3 4.04 C 0.8 km/h
871 10-03-2015 09:00:00 4.61667 C 6.43 g/m*3 4.62 C 0 km/h
872 10-03-2015 10:00:00 5.2 C 6.68 g/m*3 5.2 C 0.53333 km/h
873 10-03-2015 11:00:00 5.74167 C 6.92 g/m*3 5.74 C 0 km/h
874 10-03-2015 12:00:00 6.45833 C 7.29 g/m*3 6.46 C 0 km/h
875 10-03-2015 13:00:00 7.40833 C 7.8 g/m*3 7.41 C 0.13333 km/h
Sensor: Nr:Datum:Temp:Abs-Feuchte:Windchill:Wind:
Aussen-T/F 876 10-03-2015 14:00:00 8.10833 C 8.12 g/m*3 8.11 C 1.2 km/h
877 10-03-2015 15:00:00 8.625 C 8.41 g/m*3 8.63 C 0.53333 km/h
878 10-03-2015 16:00:00 8.9 C 8.51 g/m*3 8.9 C 1.33333 km/h
879 10-03-2015 17:00:00 9.25833 C 8.65 g/m*3 9.26 C 1.33333 km/h
880 10-03-2015 18:00:00 7.96667 C 7.87 g/m*3 7.97 C 3.86667 km/h
881 10-03-2015 19:00:00 6.79167 C 7.37 g/m*3 6.79 C 1.6 km/h
882 10-03-2015 20:00:00 6.225 C 7.15 g/m*3 6.23 C 0.8 km/h
883 10-03-2015 21:00:00 5.68333 C 6.91 g/m*3 5.68 C 0 km/h
884 10-03-2015 22:00:00 6.10833 C 7.16 g/m*3 6.11 C 0.4 km/h
885 10-03-2015 23:00:00 6.03333 C 7.13 g/m*3 6.03 C 0.53333 km/h
886 11-03-2015 00:00:00 5.25 C 6.75 g/m*3 5.25 C 0 km/h
887 11-03-2015 01:00:00 3.54167 C 5.99 g/m*3 3.54 C 2.8 km/h
888 11-03-2015 02:00:00 2.825 C 5.74 g/m*3 2.83 C 2.4 km/h
889 11-03-2015 03:00:00 2.03333 C 5.43 g/m*3 2.03 C 0.26667 km/h
890 11-03-2015 04:00:00 1.18333 C 5.11 g/m*3 1.18 C 0 km/h
891 11-03-2015 05:00:00 1.13333 C 5.13 g/m*3 1.13 C 0 km/h
892 11-03-2015 06:00:00 2.025 C 5.45 g/m*3 2.03 C 1.46667 km/h
893 11-03-2015 07:00:00 2.18333 C 5.51 g/m*3 2.18 C 2.13333 km/h
894 11-03-2015 08:00:00 2.26667 C 5.54 g/m*3 2.27 C 1.86667 km/h
895 11-03-2015 09:00:00 2.63333 C 5.68 g/m*3 2.63 C 2.13333 km/h
896 11-03-2015 10:00:00 3.075 C 5.85 g/m*3 3.08 C 1.86667 km/h
897 11-03-2015 11:00:00 3.64167 C 5.92 g/m*3 3.64 C 1.2 km/h
898 11-03-2015 12:00:00 6.64167 C 6.21 g/m*3 6.64 C 2.93333 km/h
899 11-03-2015 13:00:00 9.20833 C 6.12 g/m*3 9.21 C 3.33333 km/h
900 11-03-2015 14:00:00 9.55833 C 5.73 g/m*3 9.56 C 4.68333 km/h
Sensor: Nr:Datum:Temp:Abs-Feuchte:Windchill:Wind:
Aussen-T/F 901 11-03-2015 15:00:00 10.69167 C 5.71 g/m*3 10.48 C 5.21667 km/h
902 11-03-2015 16:00:00 9.96667 C 5.35 g/m*3 9.97 C 4 km/h
903 11-03-2015 17:00:00 8.44167 C 6.05 g/m*3 8.44 C 3.06667 km/h
904 11-03-2015 18:00:00 6.10833 C 5.93 g/m*3 6.11 C 4.94167 km/h
905 11-03-2015 19:00:00 4.45 C 5.61 g/m*3 4.45 C 2.4 km/h
906 11-03-2015 20:00:00 3.35 C 5.38 g/m*3 3.35 C 0 km/h
907 11-03-2015 21:00:00 2.53333 C 5.15 g/m*3 2.53 C 0 km/h
908 11-03-2015 22:00:00 1.675 C 4.88 g/m*3 1.68 C 0 km/h
909 11-03-2015 23:00:00 1.075 C 4.74 g/m*3 1.08 C 0 km/h
910 12-03-2015 00:00:00 0.44167 C 4.61 g/m*3 0.44 C 0 km/h
911 12-03-2015 01:00:00 -0.1 C 4.48 g/m*3 -0.1 C 0 km/h
912 12-03-2015 02:00:00 -0.46667 C 4.42 g/m*3 -0.47 C 0 km/h
913 12-03-2015 03:00:00 -0.66667 C 4.4 g/m*3 -0.67 C 0.26667 km/h
914 12-03-2015 04:00:00 -0.84167 C 4.34 g/m*3 -0.84 C 0 km/h
915 12-03-2015 05:00:00 -1.15833 C 4.25 g/m*3 -1.16 C 0.13333 km/h
916 12-03-2015 06:00:00 -1.41667 C 4.2 g/m*3 -1.42 C 0 km/h
917 12-03-2015 07:00:00 -1.40833 C 4.22 g/m*3 -1.41 C 0 km/h
918 12-03-2015 08:00:00 -1.11667 C 4.31 g/m*3 -1.12 C 0 km/h
919 12-03-2015 09:00:00 -0.075 C 4.67 g/m*3 -0.08 C 0 km/h
920 12-03-2015 10:00:00 1.85 C 5.29 g/m*3 1.85 C 0.93333 km/h
921 12-03-2015 11:00:00 4.38333 C 6.07 g/m*3 4.38 C 0.93333 km/h
922 12-03-2015 12:00:00 9.625 C 6.61 g/m*3 8.64 C 7.65 km/h
923 12-03-2015 13:00:00 11.60833 C 6.2 g/m*3 11.61 C 6.7 km/h
924 12-03-2015 14:00:00 11.74167 C 5.88 g/m*3 11.74 C 7.38333 km/h
925 12-03-2015 15:00:00 12.59167 C 5.6 g/m*3 12.59 C 8.99167 km/h
Sensor: Nr:Datum:Temp:Abs-Feuchte:Windchill:Wind:
Aussen-T/F 926 12-03-2015 16:00:00 11.9 C 5.35 g/m*3 11.9 C 6.99167 km/h
927 12-03-2015 17:00:00 11.05833 C 5.53 g/m*3 11.06 C 5.9 km/h
928 12-03-2015 18:00:00 7.4 C 5.86 g/m*3 6.56 C 5.73333 km/h
929 12-03-2015 19:00:00 5.44167 C 5.64 g/m*3 3.93 C 6.96667 km/h
930 12-03-2015 20:00:00 4.4 C 5.53 g/m*3 4.4 C 0.66667 km/h
931 12-03-2015 21:00:00 3.46667 C 5.32 g/m*3 3.47 C 0 km/h
932 12-03-2015 22:00:00 3.05 C 5.19 g/m*3 3.05 C 3.46667 km/h
933 12-03-2015 23:00:00 2.425 C 4.9 g/m*3 2.42 C 3.6 km/h
934 13-03-2015 00:00:00 2.21667 C 4.86 g/m*3 2.22 C 3.46667 km/h
935 13-03-2015 01:00:00 2.25833 C 4.88 g/m*3 2.26 C 3.73333 km/h
936 13-03-2015 02:00:00 2.14167 C 4.85 g/m*3 2.14 C 3.6 km/h
937 13-03-2015 03:00:00 1.275 C 4.68 g/m*3 1.27 C 2.4 km/h
938 13-03-2015 04:00:00 0.49167 C 4.54 g/m*3 0.49 C 2.66667 km/h
939 13-03-2015 05:00:00 0.14167 C 4.5 g/m*3 0.14 C 3.6 km/h
940 13-03-2015 06:00:00 -0.06667 C 4.49 g/m*3 -0.07 C 3.33333 km/h
941 13-03-2015 07:00:00 -0.09167 C 4.5 g/m*3 -0.09 C 1.33333 km/h
942 13-03-2015 08:00:00 0.325 C 4.66 g/m*3 0.33 C 1.33333 km/h
943 13-03-2015 09:00:00 1.88333 C 5.07 g/m*3 1.88 C 4.41667 km/h
944 13-03-2015 10:00:00 4.825 C 5.17 g/m*3 2.98 C 7.80833 km/h
945 13-03-2015 11:00:00 6.09167 C 5.17 g/m*3 3.94 C 10.09167 km/h
946 13-03-2015 12:00:00 7.58333 C 5.03 g/m*3 5.46 C 11.56667 km/h
947 13-03-2015 13:00:00 7.9 C 4.78 g/m*3 6.13 C 9.94167 km/h
948 13-03-2015 14:00:00 7.78333 C 4.68 g/m*3 5.7 C 11.55 km/h
949 13-03-2015 15:00:00 7.81667 C 4.55 g/m*3 6.55 C 7.53333 km/h
950 13-03-2015 16:00:00 7.43333 C 4.56 g/m*3 6.21 C 7.11667 km/h
Sensor: Nr:Datum:Temp:Abs-Feuchte:Windchill:Wind:
Aussen-T/F 951 13-03-2015 17:00:00 7.01667 C 4.71 g/m*3 7.02 C 4.00833 km/h
952 13-03-2015 18:00:00 6.3 C 4.84 g/m*3 6.3 C 2.53333 km/h
953 13-03-2015 19:00:00 5.99167 C 5.01 g/m*3 5.99 C 3.2 km/h
954 13-03-2015 20:00:00 5.48333 C 5.11 g/m*3 5.48 C 2.13333 km/h
955 13-03-2015 21:00:00 5.24167 C 5.14 g/m*3 5.24 C 2.95 km/h
956 13-03-2015 22:00:00 4.84167 C 5.07 g/m*3 4.84 C 3.06667 km/h
957 13-03-2015 23:00:00 4.6 C 5.06 g/m*3 4.6 C 2.675 km/h
958 14-03-2015 00:00:00 4.225 C 4.98 g/m*3 4.22 C 2.4 km/h
959 14-03-2015 01:00:00 3.90833 C 4.9 g/m*3 3.91 C 1.33333 km/h
960 14-03-2015 02:00:00 3.83333 C 4.87 g/m*3 3.83 C 0.93333 km/h
961 14-03-2015 03:00:00 3.69167 C 4.88 g/m*3 3.69 C 0.8 km/h
962 14-03-2015 04:00:00 3.15 C 4.83 g/m*3 3.15 C 1.86667 km/h
963 14-03-2015 05:00:00 2.425 C 4.73 g/m*3 2.42 C 2.13333 km/h
964 14-03-2015 06:00:00 1.45833 C 4.61 g/m*3 1.46 C 2.66667 km/h
965 14-03-2015 07:00:00 2.06667 C 4.84 g/m*3 2.07 C 0.13333 km/h
966 14-03-2015 08:00:00 3.15833 C 4.97 g/m*3 3.16 C 1.73333 km/h
967 14-03-2015 09:00:00 4.25833 C 5.09 g/m*3 4.26 C 3.73333 km/h
968 14-03-2015 10:00:00 5.20833 C 5.21 g/m*3 3.51 C 7.525 km/h
969 14-03-2015 11:00:00 5.575 C 5.32 g/m*3 3.56 C 9.01667 km/h
970 14-03-2015 12:00:00 5.96667 C 5.49 g/m*3 4.18 C 8.35 km/h
971 14-03-2015 13:00:00 7.09167 C 5.81 g/m*3 4.96 C 11.025 km/h
972 14-03-2015 14:00:00 7.33333 C 5.85 g/m*3 5.71 C 8.725 km/h
973 14-03-2015 15:00:00 7.55833 C 5.97 g/m*3 6.09 C 8.20833 km/h
974 14-03-2015 16:00:00 6.84167 C 6.27 g/m*3 6.84 C 3.06667 km/h
975 14-03-2015 17:00:00 5.81667 C 6.39 g/m*3 5.82 C 0.8 km/h
Sensor: Nr:Datum:Temp:Abs-Feuchte:Windchill:Wind:
Aussen-T/F 976 14-03-2015 18:00:00 5.06667 C 6.3 g/m*3 5.07 C 0.8 km/h
977 14-03-2015 19:00:00 4.625 C 6.2 g/m*3 4.63 C 1.73333 km/h
978 14-03-2015 20:00:00 4.175 C 5.94 g/m*3 4.18 C 1.46667 km/h
979 14-03-2015 21:00:00 3.975 C 5.87 g/m*3 3.98 C 1.86667 km/h
980 14-03-2015 22:00:00 4.025 C 5.84 g/m*3 4.03 C 1.6 km/h
981 14-03-2015 23:00:00 3.875 C 5.75 g/m*3 3.88 C 1.33333 km/h
982 15-03-2015 00:00:00 3.9 C 5.73 g/m*3 3.9 C 1.33333 km/h
983 15-03-2015 01:00:00 3.74167 C 5.68 g/m*3 3.74 C 0.66667 km/h
984 15-03-2015 02:00:00 3.66667 C 5.72 g/m*3 3.67 C 0.26667 km/h
985 15-03-2015 03:00:00 3.78333 C 5.78 g/m*3 3.78 C 0.53333 km/h
986 15-03-2015 04:00:00 3.7 C 5.86 g/m*3 3.7 C 0.53333 km/h
987 15-03-2015 05:00:00 3.675 C 5.91 g/m*3 3.68 C 0.93333 km/h
988 15-03-2015 06:00:00 3.60833 C 5.9 g/m*3 3.61 C 0.66667 km/h
989 15-03-2015 07:00:00 3.7 C 5.98 g/m*3 3.7 C 0.93333 km/h
990 15-03-2015 08:00:00 4.00833 C 6.11 g/m*3 4.01 C 1.06667 km/h
991 15-03-2015 09:00:00 4.625 C 6.26 g/m*3 4.63 C 1.2 km/h
992 15-03-2015 10:00:00 5.34167 C 6.3 g/m*3 4.15 C 5.89167 km/h
993 15-03-2015 11:00:00 5.84167 C 6.25 g/m*3 5.84 C 4.8 km/h
994 15-03-2015 12:00:00 6.30833 C 6.22 g/m*3 4.79 C 7.525 km/h
995 15-03-2015 13:00:00 6.89167 C 6.33 g/m*3 5.41 C 7.78333 km/h
996 15-03-2015 14:00:00 7.225 C 6.29 g/m*3 6.08 C 6.70833 km/h
997 15-03-2015 15:00:00 7.06667 C 6.21 g/m*3 7.07 C 4.69167 km/h
998 15-03-2015 16:00:00 6.99167 C 6.21 g/m*3 6.99 C 4 km/h
999 15-03-2015 17:00:00 6.725 C 6.15 g/m*3 6.73 C 3.46667 km/h
1000 15-03-2015 18:00:00 6.175 C 6.15 g/m*3 6.18 C 1.6 km/h
Sensor: Nr:Datum:Temp:Abs-Feuchte:Windchill:Wind:
Aussen-T/F 1001 15-03-2015 19:00:00 4.68333 C 5.86 g/m*3 3.7 C 5.06667 km/h
1002 15-03-2015 20:00:00 3.28333 C 5.51 g/m*3 1.85 C 5.73333 km/h
1003 15-03-2015 21:00:00 2.56667 C 5.38 g/m*3 2.57 C 2.93333 km/h
1004 15-03-2015 22:00:00 1.85833 C 5.17 g/m*3 1.86 C 0.8 km/h
1005 15-03-2015 23:00:00 1.28333 C 5.01 g/m*3 1.28 C 0.93333 km/h
1006 16-03-2015 00:00:00 0.85833 C 4.89 g/m*3 0.86 C 0.26667 km/h
1007 16-03-2015 01:00:00 0.43333 C 4.78 g/m*3 0.43 C 0 km/h
1008 16-03-2015 02:00:00 0.025 C 4.66 g/m*3 0.03 C 0 km/h
1009 16-03-2015 03:00:00 -0.28333 C 4.56 g/m*3 -0.28 C 0 km/h
1010 16-03-2015 04:00:00 -0.64167 C 4.45 g/m*3 -0.64 C 0 km/h
1011 16-03-2015 05:00:00 -0.875 C 4.41 g/m*3 -0.88 C 0.13333 km/h
1012 16-03-2015 06:00:00 -0.8 C 4.45 g/m*3 -0.8 C 0 km/h
1013 16-03-2015 07:00:00 -0.85 C 4.43 g/m*3 -0.85 C 0.26667 km/h
1014 16-03-2015 08:00:00 0.03333 C 4.72 g/m*3 0.03 C 0.13333 km/h
1015 16-03-2015 09:00:00 1.975 C 5.44 g/m*3 1.98 C 0 km/h
1016 16-03-2015 10:00:00 3.56667 C 6.04 g/m*3 3.57 C 0 km/h
1017 16-03-2015 11:00:00 5.95 C 6.49 g/m*3 4.85 C 5.90833 km/h
1018 16-03-2015 12:00:00 9.05 C 6.59 g/m*3 7.66 C 9.13333 km/h
1019 16-03-2015 13:00:00 11.00833 C 6.74 g/m*3 11.01 C 9.55833 km/h
1020 16-03-2015 14:00:00 12.14167 C 6.9 g/m*3 12.14 C 7.53333 km/h
1021 16-03-2015 15:00:00 12.91667 C 6.92 g/m*3 12.92 C 8.46667 km/h
1022 16-03-2015 16:00:00 12.96667 C 6.83 g/m*3 12.97 C 5.21667 km/h
1023 16-03-2015 17:00:00 11.58333 C 7.52 g/m*3 11.58 C 1.33333 km/h
1024 16-03-2015 18:00:00 8.7 C 7.04 g/m*3 8.7 C 4.00833 km/h
1025 16-03-2015 19:00:00 6.68333 C 6.48 g/m*3 6.68 C 3.86667 km/h
Sensor: Nr:Datum:Temp:Abs-Feuchte:Windchill:Wind:
Aussen-T/F 1026 16-03-2015 20:00:00 5.5 C 6.19 g/m*3 5.5 C 1.6 km/h
1027 16-03-2015 21:00:00 4.8 C 6.03 g/m*3 4.8 C 0 km/h
1028 16-03-2015 22:00:00 4.2 C 5.86 g/m*3 4.2 C 0.26667 km/h
1029 16-03-2015 23:00:00 3.46667 C 5.64 g/m*3 3.47 C 0 km/h
1030 17-03-2015 00:00:00 2.76667 C 5.48 g/m*3 2.77 C 0 km/h
1031 17-03-2015 01:00:00 2.21667 C 5.31 g/m*3 2.22 C 0 km/h
1032 17-03-2015 02:00:00 1.65 C 5.15 g/m*3 1.65 C 0 km/h
1033 17-03-2015 03:00:00 1.25833 C 5.05 g/m*3 1.26 C 0 km/h
1034 17-03-2015 04:00:00 0.83333 C 4.93 g/m*3 0.83 C 0 km/h
1035 17-03-2015 05:00:00 0.59167 C 4.84 g/m*3 0.59 C 0 km/h
1036 17-03-2015 06:00:00 0.4 C 4.8 g/m*3 0.4 C 0 km/h
1037 17-03-2015 07:00:00 0.56667 C 4.89 g/m*3 0.57 C 0 km/h
1038 17-03-2015 08:00:00 1.025 C 5.04 g/m*3 1.02 C 0.26667 km/h
1039 17-03-2015 09:00:00 2.175 C 5.48 g/m*3 2.17 C 0 km/h
1040 17-03-2015 10:00:00 5.10833 C 6.7 g/m*3 5.11 C 0.13333 km/h
1041 17-03-2015 11:00:00 8.13333 C 7.46 g/m*3 8.13 C 0.93333 km/h
1042 17-03-2015 12:00:00 12.975 C 7.82 g/m*3 12.98 C 3.46667 km/h
1043 17-03-2015 13:00:00 15.45833 C 7.44 g/m*3 15.46 C 6.41667 km/h
1044 17-03-2015 14:00:00 16.76667 C 7.57 g/m*3 16.77 C 7.65833 km/h
1045 17-03-2015 15:00:00 18.23333 C 7.27 g/m*3 18.23 C 7.65833 km/h
1046 17-03-2015 16:00:00 17.48333 C 6.8 g/m*3 17.48 C 5.89167 km/h
1047 17-03-2015 17:00:00 15.44167 C 7.85 g/m*3 15.44 C 3.46667 km/h
1048 17-03-2015 18:00:00 12.29167 C 7.73 g/m*3 12.29 C 6.7 km/h
1049 17-03-2015 19:00:00 10.28333 C 7.37 g/m*3 9.59 C 6.84167 km/h
1050 17-03-2015 20:00:00 8.9 C 7.19 g/m*3 8.9 C 3.60833 km/h
Sensor: Nr:Datum:Temp:Abs-Feuchte:Windchill:Wind:
Aussen-T/F 1051 17-03-2015 21:00:00 7.79167 C 6.87 g/m*3 7.79 C 0.93333 km/h
1052 17-03-2015 22:00:00 6.46667 C 6.53 g/m*3 6.47 C 0.26667 km/h
1053 17-03-2015 23:00:00 5.575 C 6.32 g/m*3 5.58 C 0 km/h
1054 18-03-2015 00:00:00 4.98333 C 6.19 g/m*3 4.98 C 0.13333 km/h
1055 18-03-2015 01:00:00 4.175 C 5.93 g/m*3 4.18 C 0.13333 km/h
1056 18-03-2015 02:00:00 3.66667 C 5.83 g/m*3 3.67 C 0.26667 km/h
1057 18-03-2015 03:00:00 3.21667 C 5.72 g/m*3 3.22 C 0 km/h
1058 18-03-2015 04:00:00 2.81667 C 5.58 g/m*3 2.82 C 0.13333 km/h
1059 18-03-2015 05:00:00 2.375 C 5.44 g/m*3 2.38 C 0.13333 km/h
1060 18-03-2015 06:00:00 1.81667 C 5.27 g/m*3 1.82 C 0 km/h
1061 18-03-2015 07:00:00 1.94167 C 5.31 g/m*3 1.94 C 0 km/h
1062 18-03-2015 08:00:00 2.50833 C 5.58 g/m*3 2.51 C 0.13333 km/h
1063 18-03-2015 09:00:00 4.21667 C 6.26 g/m*3 4.22 C 0.13333 km/h
1064 18-03-2015 10:00:00 7.29167 C 7.35 g/m*3 7.29 C 0.13333 km/h
1065 18-03-2015 11:00:00 10.49167 C 8.08 g/m*3 10.49 C 0.53333 km/h
1066 18-03-2015 12:00:00 14.78333 C 8.67 g/m*3 14.78 C 2.8 km/h
1067 18-03-2015 13:00:00 17.19167 C 8.39 g/m*3 17.19 C 4.66667 km/h
1068 18-03-2015 14:00:00 17.61667 C 8.17 g/m*3 17.62 C 10.9 km/h
1069 18-03-2015 15:00:00 17.4 C 8.13 g/m*3 17.4 C 14.23333 km/h
1070 18-03-2015 16:00:00 16.83333 C 7.71 g/m*3 16.83 C 13.7 km/h
1071 18-03-2015 17:00:00 16.30833 C 7.87 g/m*3 16.31 C 9.425 km/h
1072 18-03-2015 18:00:00 14.26667 C 8.04 g/m*3 14.27 C 4.54167 km/h
1073 18-03-2015 19:00:00 12.04167 C 7.8 g/m*3 12.04 C 4.95 km/h
1074 18-03-2015 20:00:00 12.30833 C 7.74 g/m*3 12.31 C 7.65833 km/h
1075 18-03-2015 21:00:00 11.25833 C 8.08 g/m*3 11.26 C 5.76667 km/h
Sensor: Nr:Datum:Temp:Abs-Feuchte:Windchill:Wind:
Aussen-T/F 1076 18-03-2015 22:00:00 9.64167 C 7.95 g/m*3 9.64 C 4.95 km/h
1077 18-03-2015 23:00:00 8.99167 C 7.85 g/m*3 7.84 C 7.925 km/h
1078 19-03-2015 00:00:00 8.73333 C 7.76 g/m*3 7.89 C 6.45 km/h
1079 19-03-2015 01:00:00 8.35833 C 7.71 g/m*3 6.84 C 9.13333 km/h
1080 19-03-2015 02:00:00 7.95833 C 7.62 g/m*3 6.39 C 9.00833 km/h
1081 19-03-2015 03:00:00 7.54167 C 7.51 g/m*3 6.27 C 7.38333 km/h
1082 19-03-2015 04:00:00 7.225 C 7.46 g/m*3 5.67 C 8.35 km/h
1083 19-03-2015 05:00:00 6.99167 C 7.36 g/m*3 5.53 C 7.78333 km/h
1084 19-03-2015 06:00:00 6.86667 C 7.35 g/m*3 5.41 C 7.66667 km/h
1085 19-03-2015 07:00:00 6.8 C 7.32 g/m*3 5.37 C 7.51667 km/h
1086 19-03-2015 08:00:00 6.825 C 7.27 g/m*3 5.54 C 6.975 km/h
1087 19-03-2015 09:00:00 7.13333 C 7.27 g/m*3 7.13 C 3.86667 km/h
1088 19-03-2015 10:00:00 7.53333 C 7.31 g/m*3 7.53 C 4.4 km/h
1089 19-03-2015 11:00:00 7.48333 C 7.31 g/m*3 6 C 8.2 km/h
1090 19-03-2015 12:00:00 7.56667 C 7.4 g/m*3 6.2 C 7.8 km/h
1091 19-03-2015 13:00:00 7.625 C 7.42 g/m*3 6.05 C 8.74167 km/h
1092 19-03-2015 14:00:00 7.725 C 7.44 g/m*3 6 C 9.56667 km/h
1093 19-03-2015 15:00:00 8.11667 C 7.53 g/m*3 6.6 C 8.88333 km/h
1094 19-03-2015 16:00:00 8.175 C 7.57 g/m*3 6.67 C 8.89167 km/h
1095 19-03-2015 17:00:00 8.075 C 7.52 g/m*3 6.96 C 7.125 km/h
1096 19-03-2015 18:00:00 8.06667 C 7.47 g/m*3 6.98 C 6.98333 km/h
1097 19-03-2015 19:00:00 7.9 C 7.39 g/m*3 6.9 C 6.575 km/h
1098 19-03-2015 20:00:00 7.75 C 7.3 g/m*3 6.54 C 7.26667 km/h
1099 19-03-2015 21:00:00 7.625 C 7.26 g/m*3 6.81 C 5.75833 km/h
1100 19-03-2015 22:00:00 7.525 C 7.22 g/m*3 7.53 C 4.80833 km/h
Sensor: Nr:Datum:Temp:Abs-Feuchte:Windchill:Wind:
Aussen-T/F 1101 19-03-2015 23:00:00 7.38333 C 7.2 g/m*3 7.38 C 4 km/h
1102 20-03-2015 00:00:00 7.3 C 7.11 g/m*3 7.3 C 2.13333 km/h
1103 20-03-2015 01:00:00 7.15833 C 7.05 g/m*3 7.16 C 1.46667 km/h
1104 20-03-2015 02:00:00 6.94167 C 6.95 g/m*3 6.94 C 3.06667 km/h
1105 20-03-2015 03:00:00 6.775 C 6.83 g/m*3 6.78 C 4.80833 km/h
1106 20-03-2015 04:00:00 6.59167 C 6.71 g/m*3 6.59 C 3.86667 km/h
1107 20-03-2015 05:00:00 6.30833 C 6.64 g/m*3 6.31 C 2.8 km/h
1108 20-03-2015 06:00:00 6.13333 C 6.59 g/m*3 6.13 C 3.06667 km/h
1109 20-03-2015 07:00:00 6.13333 C 6.59 g/m*3 6.13 C 3.2 km/h
1110 20-03-2015 08:00:00 6.39167 C 6.62 g/m*3 6.39 C 4.4 km/h
1111 20-03-2015 09:00:00 6.725 C 6.62 g/m*3 6.73 C 4.4 km/h
1112 20-03-2015 10:00:00 6.79167 C 6.54 g/m*3 6.79 C 2.53333 km/h
1113 20-03-2015 11:00:00 7.08333 C 6.62 g/m*3 7.08 C 3.6 km/h
1114 20-03-2015 12:00:00 9.01667 C 7.05 g/m*3 8.53 C 5.35 km/h
1115 20-03-2015 13:00:00 11.075 C 7.21 g/m*3 11.08 C 4.81667 km/h
1116 20-03-2015 14:00:00 12.425 C 7.38 g/m*3 12.43 C 4.675 km/h
1117 20-03-2015 15:00:00 14.075 C 7.19 g/m*3 14.08 C 4.66667 km/h
1118 20-03-2015 16:00:00 13.83333 C 6.77 g/m*3 13.83 C 4.53333 km/h
1119 20-03-2015 17:00:00 13.28333 C 6.87 g/m*3 13.28 C 8.33333 km/h
1120 20-03-2015 18:00:00 10.53333 C 7.11 g/m*3 9.73 C 7.51667 km/h
1121 20-03-2015 19:00:00 8.175 C 6.78 g/m*3 7.61 C 5.225 km/h
1122 20-03-2015 20:00:00 6.31667 C 6.45 g/m*3 6.32 C 3.73333 km/h
1123 20-03-2015 21:00:00 5.1 C 6.21 g/m*3 5.1 C 2.8 km/h
1124 20-03-2015 22:00:00 4.55 C 6.12 g/m*3 4.55 C 2 km/h
1125 20-03-2015 23:00:00 5.075 C 6.39 g/m*3 5.08 C 1.33333 km/h
Sensor: Nr:Datum:Temp:Abs-Feuchte:Windchill:Wind:
Aussen-T/F 1126 21-03-2015 00:00:00 5.39167 C 6.47 g/m*3 5.39 C 0.93333 km/h
1127 21-03-2015 01:00:00 5.53333 C 6.48 g/m*3 5.53 C 0.53333 km/h
1128 21-03-2015 02:00:00 5.49167 C 6.43 g/m*3 5.49 C 4.13333 km/h
1129 21-03-2015 03:00:00 5.33333 C 6.37 g/m*3 5.33 C 4.81667 km/h
1130 21-03-2015 04:00:00 5.24167 C 6.32 g/m*3 3.58 C 7.39167 km/h
1131 21-03-2015 05:00:00 4.85833 C 6.19 g/m*3 3.89 C 5.075 km/h
1132 21-03-2015 06:00:00 4.64167 C 6.01 g/m*3 4.64 C 4.825 km/h
1133 21-03-2015 07:00:00 4.79167 C 5.95 g/m*3 4.79 C 2.13333 km/h
1134 21-03-2015 08:00:00 5.13333 C 6.04 g/m*3 5.13 C 1.06667 km/h
1135 21-03-2015 09:00:00 5.5 C 6.2 g/m*3 4.62 C 5.06667 km/h
1136 21-03-2015 10:00:00 5.29167 C 6.29 g/m*3 5.29 C 3.06667 km/h
1137 21-03-2015 11:00:00 5.45833 C 6.49 g/m*3 5.46 C 4.15833 km/h
1138 21-03-2015 12:00:00 6.38333 C 6.46 g/m*3 4.88 C 7.51667 km/h
1139 21-03-2015 13:00:00 7.49167 C 6.39 g/m*3 7.49 C 4.41667 km/h
1140 21-03-2015 14:00:00 7.65833 C 6.19 g/m*3 6.34 C 7.65833 km/h
1141 21-03-2015 15:00:00 7.54167 C 6.36 g/m*3 6.81 C 5.475 km/h
1142 21-03-2015 16:00:00 6.175 C 6.61 g/m*3 5.34 C 5.2 km/h
1143 21-03-2015 17:00:00 6.225 C 6.7 g/m*3 5.39 C 5.23333 km/h
1144 21-03-2015 18:00:00 6.10833 C 6.7 g/m*3 6.11 C 4.675 km/h
1145 21-03-2015 19:00:00 5.98333 C 6.6 g/m*3 5.98 C 2.80833 km/h
1146 21-03-2015 20:00:00 5.35833 C 6.58 g/m*3 5.36 C 2.53333 km/h
1147 21-03-2015 21:00:00 4.88333 C 6.44 g/m*3 4.88 C 2.93333 km/h
1148 21-03-2015 22:00:00 4.975 C 6.53 g/m*3 4.97 C 1.6 km/h
1149 21-03-2015 23:00:00 5.15833 C 6.65 g/m*3 5.16 C 0 km/h
1150 22-03-2015 00:00:00 5.36667 C 6.75 g/m*3 5.37 C 1.46667 km/h
Sensor: Nr:Datum:Temp:Abs-Feuchte:Windchill:Wind:
Aussen-T/F 1151 22-03-2015 01:00:00 5.35833 C 6.68 g/m*3 5.36 C 0 km/h
1152 22-03-2015 02:00:00 5.10833 C 6.57 g/m*3 5.11 C 0.26667 km/h
1153 22-03-2015 03:00:00 4.85 C 6.46 g/m*3 4.85 C 0.93333 km/h
1154 22-03-2015 04:00:00 5.13333 C 6.55 g/m*3 5.13 C 0.66667 km/h
1155 22-03-2015 05:00:00 5.25 C 6.46 g/m*3 5.25 C 4.025 km/h
1156 22-03-2015 06:00:00 5.10833 C 6.13 g/m*3 5.11 C 4.00833 km/h
1157 22-03-2015 07:00:00 4.96667 C 5.84 g/m*3 3.15 C 7.78333 km/h
1158 22-03-2015 08:00:00 5.01667 C 5.53 g/m*3 2.69 C 9.94167 km/h
1159 22-03-2015 09:00:00 5.3 C 5.47 g/m*3 2.35 C 13.56667 km/h
1160 22-03-2015 10:00:00 6.13333 C 5.61 g/m*3 3.28 C 14.1 km/h
1161 22-03-2015 11:00:00 6.75 C 5.7 g/m*3 4.1 C 13.7 km/h
1162 22-03-2015 12:00:00 8.01667 C 5.87 g/m*3 5.43 C 15.3 km/h
1163 22-03-2015 13:00:00 7.99167 C 5.74 g/m*3 5.52 C 14.36667 km/h
1164 22-03-2015 14:00:00 7.15833 C 5.5 g/m*3 4.48 C 14.5 km/h
1165 22-03-2015 15:00:00 7.00833 C 5.43 g/m*3 4.28 C 14.63333 km/h
1166 22-03-2015 16:00:00 7.33333 C 5.4 g/m*3 5.07 C 12.1 km/h
1167 22-03-2015 17:00:00 7.65833 C 5.38 g/m*3 5.69 C 10.75833 km/h
1168 22-03-2015 18:00:00 6.175 C 5.19 g/m*3 6.18 C 4.29167 km/h
1169 22-03-2015 19:00:00 3.65833 C 4.99 g/m*3 3.66 C 1.73333 km/h
1170 22-03-2015 20:00:00 2.15833 C 4.83 g/m*3 2.16 C 4.8 km/h
1171 22-03-2015 21:00:00 1.56667 C 4.71 g/m*3 1.57 C 4.26667 km/h
1172 22-03-2015 22:00:00 1.14167 C 4.64 g/m*3 1.14 C 3.06667 km/h
1173 22-03-2015 23:00:00 0.54167 C 4.54 g/m*3 0.54 C 3.46667 km/h
1174 23-03-2015 00:00:00 0.08333 C 4.45 g/m*3 0.08 C 3.06667 km/h
1175 23-03-2015 01:00:00 -0.34167 C 4.36 g/m*3 -0.34 C 2.66667 km/h
Sensor: Nr:Datum:Temp:Abs-Feuchte:Windchill:Wind:
Aussen-T/F 1176 23-03-2015 02:00:00 -0.68333 C 4.29 g/m*3 -0.68 C 2.13333 km/h
1177 23-03-2015 03:00:00 -0.875 C 4.26 g/m*3 -0.88 C 0.66667 km/h
1178 23-03-2015 04:00:00 -1.23333 C 4.18 g/m*3 -1.23 C 0 km/h
1179 23-03-2015 05:00:00 -1.24167 C 4.2 g/m*3 -1.24 C 0.8 km/h
1180 23-03-2015 06:00:00 -1.54167 C 4.13 g/m*3 -1.54 C 0 km/h
1181 23-03-2015 07:00:00 -1.25833 C 4.22 g/m*3 -1.26 C 2 km/h
1182 23-03-2015 08:00:00 -0.61667 C 4.45 g/m*3 -0.62 C 3.33333 km/h
1183 23-03-2015 09:00:00 0.575 C 4.81 g/m*3 0.57 C 1.86667 km/h
1184 23-03-2015 10:00:00 2.68333 C 5.18 g/m*3 2.68 C 2.13333 km/h
1185 23-03-2015 11:00:00 5.03333 C 5.73 g/m*3 5.03 C 1.73333 km/h
1186 23-03-2015 12:00:00 7.31667 C 6.24 g/m*3 7.32 C 3.2 km/h
1187 23-03-2015 13:00:00 9.575 C 6.41 g/m*3 8.7 C 7.11667 km/h
1188 23-03-2015 14:00:00 10.04167 C 6.34 g/m*3 9.16 C 7.50833 km/h
1189 23-03-2015 15:00:00 10.95 C 6.6 g/m*3 10.36 C 6.84167 km/h
1190 23-03-2015 16:00:00 10.50833 C 6.29 g/m*3 10.51 C 4.54167 km/h
1191 23-03-2015 17:00:00 9.99167 C 6.22 g/m*3 9.99 C 4.40833 km/h
1192 23-03-2015 18:00:00 9.20833 C 6.12 g/m*3 9.21 C 3.2 km/h
1193 23-03-2015 19:00:00 7.34167 C 6.03 g/m*3 6.29 C 6.43333 km/h
1194 23-03-2015 20:00:00 5.95 C 5.96 g/m*3 4.89 C 5.775 km/h
1195 23-03-2015 21:00:00 4.65833 C 5.77 g/m*3 4.66 C 0.26667 km/h
1196 23-03-2015 22:00:00 3.65 C 5.57 g/m*3 3.65 C 0 km/h
1197 23-03-2015 23:00:00 2.75 C 5.35 g/m*3 2.75 C 0 km/h
1198 24-03-2015 00:00:00 2.1 C 5.19 g/m*3 2.1 C 0 km/h
1199 24-03-2015 01:00:00 1.8 C 5.13 g/m*3 1.8 C 0 km/h
1200 24-03-2015 02:00:00 1.78333 C 5.16 g/m*3 1.78 C 0 km/h
Sensor: Nr:Datum:Temp:Abs-Feuchte:Windchill:Wind:
Aussen-T/F 1201 24-03-2015 03:00:00 2.25 C 5.37 g/m*3 2.25 C 0 km/h
1202 24-03-2015 04:00:00 2.75833 C 5.48 g/m*3 2.76 C 0.53333 km/h
1203 24-03-2015 05:00:00 2.93333 C 5.5 g/m*3 2.93 C 0.26667 km/h
1204 24-03-2015 06:00:00 2.94167 C 5.48 g/m*3 2.94 C 0.8 km/h
1205 24-03-2015 07:00:00 3.16667 C 5.58 g/m*3 3.17 C 0.13333 km/h
1206 24-03-2015 08:00:00 3.94167 C 5.74 g/m*3 3.94 C 1.86667 km/h
1207 24-03-2015 09:00:00 4.66667 C 5.88 g/m*3 4.67 C 2.13333 km/h
1208 24-03-2015 10:00:00 5.76667 C 6.18 g/m*3 5.77 C 2.13333 km/h
1209 24-03-2015 11:00:00 7.10833 C 6.52 g/m*3 7.11 C 1.6 km/h
1210 24-03-2015 12:00:00 9.53333 C 7.08 g/m*3 9.53 C 2.66667 km/h
1211 24-03-2015 13:00:00 11.68333 C 6.92 g/m*3 11.68 C 4.41667 km/h
1212 24-03-2015 14:00:00 13.15833 C 6.23 g/m*3 13.16 C 13.43333 km/h
1213 24-03-2015 15:00:00 14.075 C 6.3 g/m*3 14.08 C 10.63333 km/h
1214 24-03-2015 16:00:00 14.05 C 6.35 g/m*3 14.05 C 4.95 km/h
1215 24-03-2015 17:00:00 13.31667 C 6.76 g/m*3 13.32 C 2 km/h
1216 24-03-2015 18:00:00 11.075 C 7.25 g/m*3 11.08 C 3.33333 km/h
1217 24-03-2015 19:00:00 9.85 C 6.93 g/m*3 9.85 C 4.8 km/h
1218 24-03-2015 20:00:00 8.26667 C 6.87 g/m*3 7.77 C 5.06667 km/h
1219 24-03-2015 21:00:00 7.18333 C 6.67 g/m*3 7.18 C 4.66667 km/h
1220 24-03-2015 22:00:00 6.50833 C 6.6 g/m*3 6.51 C 1.73333 km/h
1221 24-03-2015 23:00:00 6.68333 C 6.67 g/m*3 6.68 C 2.8 km/h
1222 25-03-2015 00:00:00 5.8 C 6.36 g/m*3 5.8 C 2.66667 km/h
1223 25-03-2015 01:00:00 5.225 C 6.27 g/m*3 5.23 C 2.4 km/h
1224 25-03-2015 02:00:00 5.2 C 6.32 g/m*3 5.2 C 1.06667 km/h
1225 25-03-2015 03:00:00 5.89167 C 6.49 g/m*3 5.89 C 1.2 km/h
Sensor: Nr:Datum:Temp:Abs-Feuchte:Windchill:Wind:
Aussen-T/F 1226 25-03-2015 04:00:00 5.55833 C 6.36 g/m*3 5.56 C 1.46667 km/h
1227 25-03-2015 05:00:00 5.54167 C 6.44 g/m*3 5.54 C 0.53333 km/h
1228 25-03-2015 06:00:00 5.05 C 6.26 g/m*3 5.05 C 0.26667 km/h
1229 25-03-2015 07:00:00 5.43333 C 6.49 g/m*3 5.43 C 0 km/h
1230 25-03-2015 08:00:00 6.7 C 6.78 g/m*3 6.7 C 0.26667 km/h
1231 25-03-2015 09:00:00 8.8 C 7.21 g/m*3 8.8 C 0.26667 km/h
1232 25-03-2015 10:00:00 11.01667 C 7.67 g/m*3 11.02 C 5.08333 km/h
1233 25-03-2015 11:00:00 11.59167 C 7.82 g/m*3 11.59 C 8.05833 km/h
1234 25-03-2015 12:00:00 12.15 C 8.04 g/m*3 12.15 C 10.35833 km/h
1235 25-03-2015 13:00:00 12.66667 C 8.05 g/m*3 12.67 C 14.36667 km/h
1236 25-03-2015 14:00:00 10.26667 C 7.35 g/m*3 8.07 C 16.5 km/h
1237 25-03-2015 15:00:00 9.15833 C 7.02 g/m*3 7.03 C 13.83333 km/h
1238 25-03-2015 16:00:00 8.44167 C 6.73 g/m*3 6.15 C 13.83333 km/h
1239 25-03-2015 17:00:00 7.7 C 6.61 g/m*3 5.67 C 11.15833 km/h
1240 25-03-2015 18:00:00 7.48333 C 6.57 g/m*3 5.53 C 10.475 km/h
1241 25-03-2015 19:00:00 7.275 C 6.51 g/m*3 5.28 C 10.49167 km/h
1242 25-03-2015 20:00:00 7.08333 C 6.49 g/m*3 5.03 C 10.63333 km/h
1243 25-03-2015 21:00:00 6.875 C 6.46 g/m*3 4.77 C 10.63333 km/h
1244 25-03-2015 22:00:00 6.725 C 6.5 g/m*3 4.78 C 9.68333 km/h
1245 25-03-2015 23:00:00 6.7 C 6.49 g/m*3 5.09 C 8.175 km/h
1246 26-03-2015 00:00:00 6.7 C 6.49 g/m*3 5.22 C 7.65 km/h
1247 26-03-2015 01:00:00 6.66667 C 6.6 g/m*3 5.01 C 8.33333 km/h
1248 26-03-2015 02:00:00 6.45 C 6.68 g/m*3 6.45 C 4.41667 km/h
1249 26-03-2015 03:00:00 6.30833 C 6.65 g/m*3 6.31 C 3.06667 km/h
1250 26-03-2015 04:00:00 6.175 C 6.54 g/m*3 4.67 C 7.4 km/h
Sensor: Nr:Datum:Temp:Abs-Feuchte:Windchill:Wind:
Aussen-T/F 1251 26-03-2015 05:00:00 5.71667 C 6.18 g/m*3 4.58 C 5.9 km/h
1252 26-03-2015 06:00:00 5.625 C 6.03 g/m*3 5.63 C 2 km/h
1253 26-03-2015 07:00:00 5.76667 C 6.01 g/m*3 5.77 C 3.06667 km/h
1254 26-03-2015 08:00:00 6 C 5.95 g/m*3 6 C 3.475 km/h
1255 26-03-2015 09:00:00 6.20833 C 5.92 g/m*3 6.21 C 4.26667 km/h
1256 26-03-2015 10:00:00 6.71667 C 5.88 g/m*3 5.91 C 5.35 km/h
1257 26-03-2015 11:00:00 7.825 C 5.89 g/m*3 6.35 C 8.45833 km/h
1258 26-03-2015 12:00:00 9.89167 C 5.85 g/m*3 8.44 C 10.36667 km/h
1259 26-03-2015 13:00:00 11.56667 C 5.24 g/m*3 11.57 C 14.63333 km/h
1260 26-03-2015 14:00:00 11.86667 C 4.83 g/m*3 11.87 C 15.43333 km/h
1261 26-03-2015 15:00:00 11.425 C 4.51 g/m*3 11.43 C 13.03333 km/h
1262 26-03-2015 16:00:00 9.91667 C 4.46 g/m*3 7.7 C 15.975 km/h
1263 26-03-2015 17:00:00 6.43333 C 5.81 g/m*3 4.65 C 8.725 km/h
1264 26-03-2015 18:00:00 5.31667 C 6.14 g/m*3 5.32 C 1.2 km/h
1265 26-03-2015 19:00:00 5.35833 C 6.1 g/m*3 5.36 C 4.28333 km/h
1266 26-03-2015 20:00:00 5.63333 C 6.11 g/m*3 5.63 C 4.00833 km/h
1267 26-03-2015 21:00:00 6.14167 C 6.16 g/m*3 3.21 C 14.63333 km/h
1268 26-03-2015 22:00:00 6.15 C 6.29 g/m*3 3.05 C 15.83333 km/h
1269 26-03-2015 23:00:00 6.28333 C 6.45 g/m*3 3.27 C 15.43333 km/h
1270 27-03-2015 00:00:00 6.425 C 6.53 g/m*3 4.13 C 11.16667 km/h
1271 27-03-2015 01:00:00 6.45 C 6.63 g/m*3 4.72 C 8.475 km/h
1272 27-03-2015 02:00:00 6.29167 C 6.6 g/m*3 4.81 C 7.38333 km/h
1273 27-03-2015 03:00:00 5.45833 C 6.36 g/m*3 5.46 C 4.93333 km/h
1274 27-03-2015 04:00:00 4.775 C 6.1 g/m*3 3.75 C 5.20833 km/h
1275 27-03-2015 05:00:00 4.375 C 5.86 g/m*3 3.04 C 5.89167 km/h
Sensor: Nr:Datum:Temp:Abs-Feuchte:Windchill:Wind:
Aussen-T/F 1276 27-03-2015 06:00:00 4.8 C 5.77 g/m*3 2.96 C 7.79167 km/h
1277 27-03-2015 07:00:00 5.375 C 5.89 g/m*3 3.56 C 8.05833 km/h
1278 27-03-2015 08:00:00 6.19167 C 6.08 g/m*3 4.01 C 10.35833 km/h
1279 27-03-2015 09:00:00 6.99167 C 6.2 g/m*3 4.5 C 13.03333 km/h
1280 27-03-2015 10:00:00 8.19167 C 6.34 g/m*3 5.72 C 14.76667 km/h
1281 27-03-2015 11:00:00 8.71667 C 6.27 g/m*3 6.23 C 15.83333 km/h
1282 27-03-2015 12:00:00 9.15833 C 6.03 g/m*3 6.5 C 18.23333 km/h
1283 27-03-2015 13:00:00 9.68333 C 5.77 g/m*3 7.18 C 17.96667 km/h
1284 27-03-2015 14:00:00 10.18333 C 5.67 g/m*3 8.23 C 14.23333 km/h
1285 27-03-2015 15:00:00 10.36667 C 5.57 g/m*3 8.54 C 13.56667 km/h
1286 27-03-2015 16:00:00 10.46667 C 5.38 g/m*3 8.74 C 13.03333 km/h
1287 27-03-2015 17:00:00 10.65 C 5.48 g/m*3 9 C 12.76667 km/h
1288 27-03-2015 18:00:00 9.94167 C 5.2 g/m*3 9.01 C 7.66667 km/h
1289 27-03-2015 19:00:00 9.29167 C 5.42 g/m*3 9.29 C 3.75833 km/h
1290 27-03-2015 20:00:00 8.44167 C 5.86 g/m*3 8.44 C 1.06667 km/h
1291 27-03-2015 21:00:00 7.625 C 6.1 g/m*3 7.63 C 2.13333 km/h
1292 27-03-2015 22:00:00 7.01667 C 6.1 g/m*3 7.02 C 2.4 km/h
1293 27-03-2015 23:00:00 6.725 C 6.03 g/m*3 6.73 C 2 km/h
1294 28-03-2015 00:00:00 6.08333 C 5.95 g/m*3 6.08 C 2.93333 km/h
1295 28-03-2015 01:00:00 6.24167 C 5.99 g/m*3 6.24 C 2.26667 km/h
1296 28-03-2015 02:00:00 5.75 C 5.9 g/m*3 5.75 C 0.93333 km/h
1297 28-03-2015 03:00:00 4.275 C 5.54 g/m*3 4.28 C 2.4 km/h
1298 28-03-2015 04:00:00 4.55 C 5.53 g/m*3 4.55 C 2.93333 km/h
1299 28-03-2015 05:00:00 4.775 C 5.52 g/m*3 4.78 C 4.81667 km/h
1300 28-03-2015 06:00:00 4.95 C 5.54 g/m*3 4.95 C 4.81667 km/h
Sensor: Nr:Datum:Temp:Abs-Feuchte:Windchill:Wind:
Aussen-T/F 1301 28-03-2015 07:00:00 5.29167 C 5.58 g/m*3 3.84 C 6.7 km/h
1302 28-03-2015 08:00:00 6.14167 C 5.72 g/m*3 4.67 C 7.24167 km/h
1303 28-03-2015 09:00:00 7.4 C 5.9 g/m*3 7.4 C 3.33333 km/h
1304 28-03-2015 10:00:00 10.575 C 5.75 g/m*3 8.84 C 13.26667 km/h
1305 28-03-2015 11:00:00 11.95833 C 5.66 g/m*3 11.96 C 20.5 km/h
1306 28-03-2015 12:00:00 12.38333 C 5.96 g/m*3 12.38 C 15.7 km/h
1307 28-03-2015 13:00:00 12.45 C 6.17 g/m*3 12.45 C 13.7 km/h
1308 28-03-2015 14:00:00 12.01667 C 6.64 g/m*3 12.02 C 8.71667 km/h
1309 28-03-2015 15:00:00 10.45833 C 7.78 g/m*3 10.46 C 3.74167 km/h
1310 28-03-2015 16:00:00 9.375 C 8.13 g/m*3 9.38 C 2.53333 km/h
1311 28-03-2015 17:00:00 8.75 C 8.07 g/m*3 8.75 C 4.14167 km/h
1312 28-03-2015 18:00:00 9.40833 C 7.99 g/m*3 7.69 C 11.40833 km/h
1313 28-03-2015 19:00:00 9.33333 C 7.96 g/m*3 7.77 C 10.35 km/h
1314 28-03-2015 20:00:00 9.75 C 8.28 g/m*3 8.3 C 10.21667 km/h
1315 28-03-2015 21:00:00 9.875 C 8.52 g/m*3 9.88 C 3.875 km/h
1316 28-03-2015 22:00:00 10.725 C 8.91 g/m*3 9.96 C 7.5 km/h
1317 28-03-2015 23:00:00 11.88333 C 9.26 g/m*3 11.88 C 18.5 km/h
1318 29-03-2015 00:00:00 12.53333 C 9.3 g/m*3 12.53 C 19.575 km/h
1319 29-03-2015 01:00:00 12.45833 C 9.23 g/m*3 12.46 C 16.1 km/h
1320 29-03-2015 02:00:00 11.99167 C 9.28 g/m*3 11.99 C 15.83333 km/h
1321 29-03-2015 04:00:00 11.975 C 9.1 g/m*3 11.98 C 15.7 km/h
1322 29-03-2015 05:00:00 11.8 C 8.98 g/m*3 11.8 C 15.3 km/h
1323 29-03-2015 06:00:00 11.775 C 8.56 g/m*3 11.78 C 14.5 km/h
1324 29-03-2015 07:00:00 11.54167 C 8.36 g/m*3 11.54 C 10.225 km/h
1325 29-03-2015 08:00:00 11.625 C 8.02 g/m*3 11.63 C 13.96667 km/h
Sensor: Nr:Datum:Temp:Abs-Feuchte:Windchill:Wind:
Aussen-T/F 1326 29-03-2015 09:00:00 11.3 C 7.7 g/m*3 11.3 C 18.23333 km/h
1327 29-03-2015 10:00:00 11.03333 C 7.85 g/m*3 11.03 C 16.5 km/h
1328 29-03-2015 11:00:00 11.025 C 8.1 g/m*3 11.03 C 19.84167 km/h
1329 29-03-2015 12:00:00 11.18333 C 8.53 g/m*3 11.18 C 16.23333 km/h
1330 29-03-2015 13:00:00 11.175 C 8.79 g/m*3 11.18 C 19.05 km/h
1331 29-03-2015 14:00:00 11.6 C 8.92 g/m*3 11.6 C 19.56667 km/h
1332 29-03-2015 15:00:00 11.76667 C 8.93 g/m*3 11.77 C 21.44167 km/h
1333 29-03-2015 16:00:00 11.925 C 9.14 g/m*3 11.93 C 18.63333 km/h
1334 29-03-2015 17:00:00 11.84167 C 9.27 g/m*3 11.84 C 19.56667 km/h
1335 29-03-2015 18:00:00 11.80833 C 9.47 g/m*3 11.81 C 23.85833 km/h
1336 29-03-2015 19:00:00 12.275 C 9.4 g/m*3 12.28 C 22.38333 km/h
1337 29-03-2015 20:00:00 12.39167 C 9.35 g/m*3 12.39 C 22.4 km/h
1338 29-03-2015 21:00:00 11.95833 C 9 g/m*3 11.96 C 25.73333 km/h
1339 29-03-2015 22:00:00 11.55 C 8.09 g/m*3 11.55 C 26.15 km/h
1340 29-03-2015 23:00:00 9.10833 C 7.45 g/m*3 6.76 C 15.43333 km/h
1341 30-03-2015 00:00:00 8.56667 C 7.44 g/m*3 6.88 C 10.2 km/h
1342 30-03-2015 01:00:00 8.225 C 7.35 g/m*3 6.55 C 9.8 km/h
1343 30-03-2015 02:00:00 8.375 C 7.24 g/m*3 6.94 C 8.725 km/h
1344 30-03-2015 03:00:00 8.15833 C 7.32 g/m*3 7.05 C 7.11667 km/h
1345 30-03-2015 04:00:00 7.59167 C 7.07 g/m*3 5.85 C 9.53333 km/h
1346 30-03-2015 05:00:00 7.375 C 6.97 g/m*3 6.53 C 5.75 km/h
1347 30-03-2015 06:00:00 6.99167 C 6.72 g/m*3 6.32 C 5.06667 km/h
1348 30-03-2015 07:00:00 6.95 C 6.22 g/m*3 5.41 C 8.06667 km/h
1349 30-03-2015 08:00:00 7.3 C 6.22 g/m*3 6.17 C 6.7 km/h
1350 30-03-2015 09:00:00 8.05 C 6.16 g/m*3 5.64 C 14.09167 km/h
Sensor: Nr:Datum:Temp:Abs-Feuchte:Windchill:Wind:
Aussen-T/F 1351 30-03-2015 10:00:00 8.34167 C 6.2 g/m*3 5.49 C 18.1 km/h
1352 30-03-2015 11:00:00 9.09167 C 5.5 g/m*3 5.75 C 25.35 km/h
1353 30-03-2015 12:00:00 8.9 C 5.68 g/m*3 5.91 C 20.79167 km/h
1354 30-03-2015 13:00:00 10.18333 C 5.26 g/m*3 7.6 C 20.1 km/h
1355 30-03-2015 14:00:00 8.96667 C 5.86 g/m*3 6.12 C 19.575 km/h
1356 30-03-2015 15:00:00 9.46667 C 5.68 g/m*3 6.65 C 20.50833 km/h
1357 30-03-2015 16:00:00 10.35833 C 5.27 g/m*3 7.66 C 21.84167 km/h
1358 30-03-2015 17:00:00 10.35833 C 4.64 g/m*3 7.73 C 21.05833 km/h
1359 30-03-2015 18:00:00 9.69167 C 4.32 g/m*3 7.58 C 14.63333 km/h
1360 30-03-2015 19:00:00 9.425 C 4.39 g/m*3 7.84 C 10.625 km/h
1361 30-03-2015 20:00:00 7.95833 C 4.62 g/m*3 6.51 C 8.44167 km/h
1362 30-03-2015 21:00:00 5.73333 C 5.22 g/m*3 5.73 C 4.4 km/h
1363 30-03-2015 22:00:00 5.29167 C 5.37 g/m*3 5.29 C 1.73333 km/h
1364 30-03-2015 23:00:00 5.83333 C 5.45 g/m*3 5.83 C 0.53333 km/h
1365 31-03-2015 00:00:00 6.3 C 6.08 g/m*3 6.3 C 3.6 km/h
1366 31-03-2015 01:00:00 7.03333 C 6.48 g/m*3 5.61 C 7.65 km/h
1367 31-03-2015 02:00:00 8.45833 C 6.94 g/m*3 6.08 C 14.5 km/h
1368 31-03-2015 03:00:00 9.31667 C 7.69 g/m*3 6.48 C 20.39167 km/h
1369 31-03-2015 04:00:00 10.96667 C 8.43 g/m*3 8.01 C 27.34167 km/h
1370 31-03-2015 05:00:00 12.60833 C 8.76 g/m*3 12.61 C 28.84167 km/h
1371 31-03-2015 06:00:00 13.41667 C 8.89 g/m*3 13.42 C 25.19167 km/h
1372 31-03-2015 07:00:00 12.33333 C 9.29 g/m*3 12.33 C 16.49167 km/h
1373 31-03-2015 08:00:00 12.75833 C 8.28 g/m*3 12.76 C 27.60833 km/h
1374 31-03-2015 09:00:00 12.35 C 8.12 g/m*3 12.35 C 25.74167 km/h
1375 31-03-2015 10:00:00 13.19167 C 7.78 g/m*3 13.19 C 36.875 km/h
Sensor: Nr:Datum:Temp:Abs-Feuchte:Windchill:Wind:
Aussen-T/F 1376 31-03-2015 11:00:00 11.79167 C 7.68 g/m*3 11.79 C 28.69167 km/h
1377 31-03-2015 12:00:00 9.575 C 7.58 g/m*3 6.78 C 20.64167 km/h
1378 31-03-2015 13:00:00 9.85 C 7.31 g/m*3 6.51 C 28.15 km/h
1379 31-03-2015 14:00:00 10.25 C 7.1 g/m*3 6.97 C 28.95833 km/h
1380 31-03-2015 15:00:00 10.39167 C 6.97 g/m*3 7.33 C 26.55 km/h
1381 31-03-2015 16:00:00 12.075 C 6.17 g/m*3 12.08 C 27.09167 km/h
1382 31-03-2015 17:00:00 12.35833 C 5.11 g/m*3 12.36 C 28.28333 km/h
1383 31-03-2015 18:00:00 11.10833 C 4.91 g/m*3 11.11 C 18.64167 km/h
1384 31-03-2015 19:00:00 9.66667 C 5.2 g/m*3 6.92 C 20.36667 km/h
1385 31-03-2015 20:00:00 8.35833 C 5.43 g/m*3 6.27 C 12.36667 km/h
1386 31-03-2015 21:00:00 6.33333 C 5.92 g/m*3 3.31 C 15.58333 km/h
1387 31-03-2015 22:00:00 5.41667 C 6.09 g/m*3 2.82 C 11.68333 km/h
1388 31-03-2015 23:00:00 5.575 C 5.89 g/m*3 1.89 C 19.2 km/h
1389 01-04-2015 00:00:00 4.05 C 5.68 g/m*3 1.25 C 11.29167 km/h
1390 01-04-2015 01:00:00 5.19167 C 5.66 g/m*3 1.84 C 15.96667 km/h
1391 01-04-2015 02:00:00 5.28333 C 5.41 g/m*3 2.15 C 14.63333 km/h
1392 01-04-2015 03:00:00 5.40833 C 5.15 g/m*3 2 C 16.76667 km/h
1393 01-04-2015 04:00:00 5.25 C 5.01 g/m*3 1.83 C 16.51667 km/h
1394 01-04-2015 05:00:00 5.075 C 4.96 g/m*3 2.51 C 11.15833 km/h
1395 01-04-2015 06:00:00 5.06667 C 4.76 g/m*3 1.69 C 15.96667 km/h
1396 01-04-2015 07:00:00 4.39167 C 5.05 g/m*3 1.26 C 13.425 km/h
1397 01-04-2015 08:00:00 4.2 C 5.31 g/m*3 1.17 C 12.63333 km/h
1398 01-04-2015 09:00:00 5.075 C 5.29 g/m*3 2.03 C 13.825 km/h
1399 01-04-2015 10:00:00 6.36667 C 5.19 g/m*3 2.84 C 19.575 km/h
1400 01-04-2015 11:00:00 7.225 C 5.2 g/m*3 3.94 C 19.43333 km/h
Sensor: Nr:Datum:Temp:Abs-Feuchte:Windchill:Wind:
Aussen-T/F 1401 01-04-2015 12:00:00 7.86667 C 5.11 g/m*3 4.7 C 19.84167 km/h
1402 01-04-2015 13:00:00 7.86667 C 5.12 g/m*3 4.72 C 19.7 km/h
1403 01-04-2015 14:00:00 6.99167 C 5.76 g/m*3 4.04 C 16.23333 km/h
1404 01-04-2015 15:00:00 6.75 C 5.83 g/m*3 3.22 C 20.525 km/h
1405 01-04-2015 16:00:00 8.33333 C 5.41 g/m*3 5.11 C 21.59167 km/h
1406 01-04-2015 17:00:00 8.375 C 4.82 g/m*3 5.44 C 18.90833 km/h
1407 01-04-2015 18:00:00 9.00833 C 4.73 g/m*3 6.07 C 20.525 km/h
1408 01-04-2015 19:00:00 8.51667 C 4.62 g/m*3 6.57 C 11.7 km/h
1409 01-04-2015 20:00:00 7.59167 C 4.77 g/m*3 6.43 C 6.975 km/h
1410 01-04-2015 21:00:00 6.96667 C 5.08 g/m*3 5.19 C 9.14167 km/h
1411 01-04-2015 22:00:00 6.36667 C 5.4 g/m*3 3.33 C 15.7 km/h
1412 01-04-2015 23:00:00 6.125 C 5.5 g/m*3 2.8 C 17.43333 km/h
1413 02-04-2015 00:00:00 5.73333 C 5.62 g/m*3 2.55 C 15.7 km/h
1414 02-04-2015 01:00:00 5.68333 C 5.69 g/m*3 3.09 C 11.96667 km/h
1415 02-04-2015 02:00:00 5.775 C 5.75 g/m*3 3.04 C 12.9 km/h
1416 02-04-2015 03:00:00 5.625 C 5.85 g/m*3 2.32 C 16.36667 km/h
1417 02-04-2015 04:00:00 5.35833 C 5.95 g/m*3 2.51 C 13.025 km/h
1418 02-04-2015 05:00:00 5.14167 C 6.02 g/m*3 2.15 C 13.56667 km/h
1419 02-04-2015 06:00:00 4.88333 C 6.07 g/m*3 1.75 C 14.1 km/h
1420 02-04-2015 07:00:00 4.8 C 6.1 g/m*3 1.87 C 12.76667 km/h
1421 02-04-2015 08:00:00 4.94167 C 6.22 g/m*3 2 C 13.03333 km/h
1422 02-04-2015 09:00:00 5.475 C 6.38 g/m*3 2.67 C 12.9 km/h
1423 02-04-2015 10:00:00 5.79167 C 6.32 g/m*3 2.35 C 17.7 km/h
1424 02-04-2015 11:00:00 6 C 6.16 g/m*3 2.81 C 16.23333 km/h
1425 02-04-2015 12:00:00 6.675 C 5.75 g/m*3 3.34 C 18.63333 km/h
Sensor: Nr:Datum:Temp:Abs-Feuchte:Windchill:Wind:
Aussen-T/F 1426 02-04-2015 13:00:00 7.7 C 5.29 g/m*3 4.42 C 20.5 km/h
1427 02-04-2015 14:00:00 8.46667 C 5.36 g/m*3 5.44 C 19.975 km/h
1428 02-04-2015 15:00:00 8.775 C 4.95 g/m*3 5.67 C 21.58333 km/h
1429 02-04-2015 16:00:00 9.15 C 4.64 g/m*3 6.37 C 19.30833 km/h
1430 02-04-2015 17:00:00 8.96667 C 4.52 g/m*3 6.04 C 20.36667 km/h
1431 02-04-2015 18:00:00 9.18333 C 4.52 g/m*3 6.34 C 20.1 km/h
1432 02-04-2015 19:00:00 8.16667 C 4.39 g/m*3 5.32 C 17.7 km/h
1433 02-04-2015 20:00:00 6.94167 C 4.44 g/m*3 4.88 C 10.48333 km/h
1434 02-04-2015 21:00:00 6.08333 C 4.69 g/m*3 5.14 C 5.49167 km/h
1435 02-04-2015 22:00:00 4.79167 C 4.9 g/m*3 4.79 C 4.4 km/h
1436 02-04-2015 23:00:00 4.9 C 4.87 g/m*3 4.9 C 2.8 km/h
1437 03-04-2015 00:00:00 3.675 C 4.88 g/m*3 3.68 C 2 km/h
1438 03-04-2015 01:00:00 2.54167 C 4.86 g/m*3 2.54 C 0.4 km/h
1439 03-04-2015 02:00:00 2.81667 C 4.86 g/m*3 2.82 C 3.46667 km/h
1440 03-04-2015 03:00:00 2.725 C 4.75 g/m*3 2.73 C 3.21667 km/h
1441 03-04-2015 04:00:00 1.39167 C 4.6 g/m*3 1.39 C 0.4 km/h
1442 03-04-2015 05:00:00 0.43333 C 4.44 g/m*3 0.43 C 0.4 km/h
1443 03-04-2015 06:00:00 -0.275 C 4.36 g/m*3 -0.28 C 2.14167 km/h
1444 03-04-2015 07:00:00 -0.2 C 4.39 g/m*3 -0.2 C 3.475 km/h
1445 03-04-2015 08:00:00 -0.01667 C 4.45 g/m*3 -0.02 C 1.2 km/h
1446 03-04-2015 09:00:00 1.225 C 4.83 g/m*3 1.23 C 1.6 km/h
1447 03-04-2015 10:00:00 3.98333 C 5.25 g/m*3 3.98 C 2.93333 km/h
1448 03-04-2015 11:00:00 6.28333 C 5.39 g/m*3 6.28 C 3.625 km/h
1449 03-04-2015 12:00:00 8.49167 C 5.25 g/m*3 7.25 C 7.93333 km/h
1450 03-04-2015 13:00:00 10.13333 C 5.26 g/m*3 8.89 C 9.425 km/h
Sensor: Nr:Datum:Temp:Abs-Feuchte:Windchill:Wind:
Aussen-T/F 1451 03-04-2015 14:00:00 10.95 C 4.76 g/m*3 9.73 C 10.23333 km/h
1452 03-04-2015 15:00:00 11.03333 C 4.66 g/m*3 11.03 C 9.15833 km/h
1453 03-04-2015 16:00:00 11.8 C 4.83 g/m*3 11.8 C 6.16667 km/h
1454 03-04-2015 17:00:00 12.15 C 4.66 g/m*3 12.15 C 5.21667 km/h
1455 03-04-2015 18:00:00 11.86667 C 4.54 g/m*3 11.87 C 6.975 km/h
1456 03-04-2015 19:00:00 10.225 C 5.42 g/m*3 10.23 C 3.33333 km/h
1457 03-04-2015 20:00:00 8.05833 C 5.72 g/m*3 8.06 C 3.6 km/h
1458 03-04-2015 21:00:00 7.39167 C 5.64 g/m*3 7.39 C 3.6 km/h
1459 03-04-2015 22:00:00 7.2 C 5.79 g/m*3 7.2 C 3.33333 km/h
1460 03-04-2015 23:00:00 7.225 C 5.85 g/m*3 7.23 C 3.46667 km/h
1461 04-04-2015 00:00:00 7.31667 C 5.87 g/m*3 7.32 C 3.86667 km/h
1462 04-04-2015 01:00:00 6.94167 C 5.96 g/m*3 6.94 C 3.2 km/h
1463 04-04-2015 02:00:00 6.2 C 6.05 g/m*3 6.2 C 1.73333 km/h
1464 04-04-2015 03:00:00 6.14167 C 6.06 g/m*3 6.14 C 0.8 km/h
1465 04-04-2015 04:00:00 6.08333 C 6.09 g/m*3 6.08 C 0.4 km/h
1466 04-04-2015 05:00:00 5.74167 C 6.17 g/m*3 5.74 C 0 km/h
1467 04-04-2015 06:00:00 5.61667 C 6.25 g/m*3 5.62 C 0.13333 km/h
1468 04-04-2015 07:00:00 5.10833 C 6.33 g/m*3 5.11 C 1.2 km/h
1469 04-04-2015 08:00:00 4.65833 C 6.18 g/m*3 4.66 C 1.73333 km/h
1470 04-04-2015 09:00:00 4.68333 C 6.2 g/m*3 2.93 C 7.39167 km/h
1471 04-04-2015 10:00:00 4.65 C 6.23 g/m*3 2.97 C 7.11667 km/h
1472 04-04-2015 11:00:00 4.85833 C 6.31 g/m*3 3.02 C 7.8 km/h
1473 04-04-2015 12:00:00 5.58333 C 6.41 g/m*3 5.58 C 2.8 km/h
1474 04-04-2015 13:00:00 7.075 C 6.41 g/m*3 7.08 C 4.80833 km/h
1475 04-04-2015 14:00:00 7.975 C 6.2 g/m*3 6.62 C 8.05833 km/h
Sensor: Nr:Datum:Temp:Abs-Feuchte:Windchill:Wind:
Aussen-T/F 1476 04-04-2015 15:00:00 8.06667 C 6.19 g/m*3 6.63 C 8.46667 km/h
1477 04-04-2015 16:00:00 9.85833 C 5.11 g/m*3 7.5 C 17.03333 km/h
1478 04-04-2015 17:00:00 10.375 C 4.49 g/m*3 7.89 C 19.56667 km/h
1479 04-04-2015 18:00:00 9.675 C 4.36 g/m*3 6.89 C 20.76667 km/h
1480 04-04-2015 19:00:00 8.35833 C 4.12 g/m*3 5.99 C 14.23333 km/h
1481 04-04-2015 20:00:00 6.21667 C 3.98 g/m*3 4.72 C 7.4 km/h
1482 04-04-2015 21:00:00 3.73333 C 4.46 g/m*3 3.73 C 2.8 km/h
1483 04-04-2015 22:00:00 3.05833 C 4.48 g/m*3 3.06 C 3.6 km/h
1484 04-04-2015 23:00:00 2 C 4.49 g/m*3 2 C 3.2 km/h
1485 05-04-2015 00:00:00 1.64167 C 4.54 g/m*3 1.64 C 2.66667 km/h
1486 05-04-2015 01:00:00 1.70833 C 4.52 g/m*3 1.71 C 1.6 km/h
1487 05-04-2015 02:00:00 1.15 C 4.58 g/m*3 1.15 C 2.13333 km/h
1488 05-04-2015 03:00:00 1.23333 C 4.61 g/m*3 1.23 C 0.13333 km/h
1489 05-04-2015 04:00:00 1.01667 C 4.55 g/m*3 1.02 C 0 km/h
1490 05-04-2015 05:00:00 1.00833 C 4.61 g/m*3 1.01 C 0.13333 km/h
1491 05-04-2015 06:00:00 0.95833 C 4.63 g/m*3 0.96 C 2.8 km/h
1492 05-04-2015 07:00:00 0.925 C 4.68 g/m*3 0.93 C 3.2 km/h
1493 05-04-2015 08:00:00 1.21667 C 4.79 g/m*3 1.22 C 2.93333 km/h
1494 05-04-2015 09:00:00 1.93333 C 5 g/m*3 1.93 C 2.4 km/h
1495 05-04-2015 10:00:00 3.93333 C 5.33 g/m*3 3.93 C 2.13333 km/h
1496 05-04-2015 11:00:00 5.99167 C 5.36 g/m*3 5.99 C 2.66667 km/h
1497 05-04-2015 12:00:00 7.625 C 5.18 g/m*3 7.63 C 2 km/h
1498 05-04-2015 13:00:00 9.80833 C 4.93 g/m*3 9.28 C 5.89167 km/h
1499 05-04-2015 14:00:00 10.83333 C 4.29 g/m*3 10.29 C 6.575 km/h
1500 05-04-2015 15:00:00 10.95 C 4.02 g/m*3 9.71 C 10.35 km/h
Sensor: Nr:Datum:Temp:Abs-Feuchte:Windchill:Wind:
Aussen-T/F 1501 05-04-2015 16:00:00 10.98333 C 3.92 g/m*3 9.63 C 11.16667 km/h
1502 05-04-2015 17:00:00 11.95 C 4.09 g/m*3 11.95 C 14.09167 km/h
1503 05-04-2015 18:00:00 10.69167 C 3.87 g/m*3 9.34 C 10.76667 km/h
1504 05-04-2015 19:00:00 10.05833 C 3.81 g/m*3 9.12 C 7.79167 km/h
1505 05-04-2015 20:00:00 8.01667 C 4.14 g/m*3 8.02 C 4.675 km/h
1506 05-04-2015 21:00:00 4.95833 C 4.74 g/m*3 4.96 C 4.93333 km/h
1507 05-04-2015 22:00:00 3.78333 C 4.66 g/m*3 3.78 C 4 km/h
1508 05-04-2015 23:00:00 2.75 C 4.68 g/m*3 2.75 C 1.06667 km/h
1509 06-04-2015 00:00:00 1.74167 C 4.39 g/m*3 1.74 C 0 km/h
1510 06-04-2015 01:00:00 1.33333 C 4.26 g/m*3 1.33 C 0.53333 km/h
1511 06-04-2015 02:00:00 0.95 C 4.29 g/m*3 0.95 C 0.8 km/h
1512 06-04-2015 03:00:00 1.39167 C 4.37 g/m*3 1.39 C 1.06667 km/h
1513 06-04-2015 04:00:00 1.55 C 4.4 g/m*3 1.55 C 2.8 km/h
1514 06-04-2015 05:00:00 1.46667 C 4.39 g/m*3 1.47 C 1.33333 km/h
1515 06-04-2015 06:00:00 1.26667 C 4.44 g/m*3 1.27 C 1.73333 km/h
1516 06-04-2015 07:00:00 1.6 C 4.54 g/m*3 1.6 C 2.13333 km/h
1517 06-04-2015 08:00:00 2.075 C 4.64 g/m*3 2.08 C 4.00833 km/h
1518 06-04-2015 09:00:00 2.89167 C 4.89 g/m*3 2.89 C 3.6 km/h
1519 06-04-2015 10:00:00 4.36667 C 5.24 g/m*3 4.37 C 2 km/h
1520 06-04-2015 11:00:00 5.825 C 5.63 g/m*3 4.84 C 5.49167 km/h
1521 06-04-2015 12:00:00 7.45 C 5.81 g/m*3 5.76 C 9.15 km/h
1522 06-04-2015 13:00:00 8.65 C 5.87 g/m*3 6.71 C 11.81667 km/h
1523 06-04-2015 14:00:00 9.2 C 5.93 g/m*3 7.48 C 11.15833 km/h
1524 06-04-2015 15:00:00 10 C 6.17 g/m*3 8.71 C 9.55833 km/h
1525 06-04-2015 16:00:00 11.75 C 6.54 g/m*3 11.75 C 11.96667 km/h
Sensor: Nr:Datum:Temp:Abs-Feuchte:Windchill:Wind:
Aussen-T/F 1526 06-04-2015 17:00:00 11.89167 C 6.44 g/m*3 11.89 C 11.69167 km/h
1527 06-04-2015 18:00:00 10.7 C 6.23 g/m*3 9.71 C 8.6 km/h
1528 06-04-2015 19:00:00 10.225 C 6.18 g/m*3 9.73 C 6.01667 km/h
1529 06-04-2015 20:00:00 7.81667 C 6.21 g/m*3 7.82 C 3.88333 km/h
1530 06-04-2015 21:00:00 5.40833 C 5.98 g/m*3 5.41 C 4.94167 km/h
1531 06-04-2015 22:00:00 4.68333 C 5.86 g/m*3 3.7 C 5.06667 km/h
1532 06-04-2015 23:00:00 3.81667 C 5.64 g/m*3 3.82 C 1.86667 km/h
1533 07-04-2015 00:00:00 2.65833 C 5.3 g/m*3 2.66 C 0 km/h
1534 07-04-2015 01:00:00 1.88333 C 5.12 g/m*3 1.88 C 0 km/h
1535 07-04-2015 02:00:00 1.24167 C 4.95 g/m*3 1.24 C 0 km/h
1536 07-04-2015 03:00:00 0.65 C 4.78 g/m*3 0.65 C 0 km/h
1537 07-04-2015 04:00:00 0.18333 C 4.66 g/m*3 0.18 C 0.26667 km/h
1538 07-04-2015 05:00:00 -0.23333 C 4.53 g/m*3 -0.23 C 0.8 km/h
1539 07-04-2015 06:00:00 -0.51667 C 4.47 g/m*3 -0.52 C 0.53333 km/h
1540 07-04-2015 07:00:00 -0.34167 C 4.54 g/m*3 -0.34 C 1.73333 km/h
1541 07-04-2015 08:00:00 -0.20833 C 4.59 g/m*3 -0.21 C 2.4 km/h
1542 07-04-2015 09:00:00 0.39167 C 4.83 g/m*3 0.39 C 1.2 km/h
1543 07-04-2015 10:00:00 1.7 C 5.29 g/m*3 1.7 C 1.6 km/h
1544 07-04-2015 11:00:00 4.98333 C 6.32 g/m*3 4.98 C 1.2 km/h
1545 07-04-2015 12:00:00 9.44167 C 5.77 g/m*3 9.44 C 4.54167 km/h
1546 07-04-2015 13:00:00 12.30833 C 5.69 g/m*3 12.31 C 6.29167 km/h
1547 07-04-2015 14:00:00 13.25 C 5.51 g/m*3 13.25 C 6.575 km/h
1548 07-04-2015 15:00:00 13.56667 C 5.22 g/m*3 13.57 C 5.61667 km/h
1549 07-04-2015 16:00:00 14.19167 C 5.34 g/m*3 14.19 C 5.34167 km/h
1550 07-04-2015 17:00:00 13.925 C 5.41 g/m*3 13.93 C 8.20833 km/h
Sensor: Nr:Datum:Temp:Abs-Feuchte:Windchill:Wind:
Aussen-T/F 1551 07-04-2015 18:00:00 13.48333 C 5.45 g/m*3 13.48 C 3.6 km/h
1552 07-04-2015 19:00:00 12.49167 C 5.71 g/m*3 12.49 C 4.81667 km/h
1553 07-04-2015 20:00:00 9.8 C 5.98 g/m*3 9.8 C 4.13333 km/h
1554 07-04-2015 21:00:00 7.60833 C 5.95 g/m*3 7.61 C 4.8 km/h
1555 07-04-2015 22:00:00 6.09167 C 5.85 g/m*3 6.09 C 1.86667 km/h
1556 07-04-2015 23:00:00 5.125 C 5.58 g/m*3 5.13 C 0.26667 km/h
1557 08-04-2015 00:00:00 4.13333 C 5.42 g/m*3 4.13 C 0 km/h
1558 08-04-2015 01:00:00 3.825 C 5.43 g/m*3 3.83 C 0.26667 km/h
1559 08-04-2015 02:00:00 3.49167 C 5.34 g/m*3 3.49 C 0.4 km/h
1560 08-04-2015 03:00:00 2.9 C 5.24 g/m*3 2.9 C 1.06667 km/h
1561 08-04-2015 04:00:00 2.525 C 5.15 g/m*3 2.53 C 0.93333 km/h
1562 08-04-2015 05:00:00 1.90833 C 5.02 g/m*3 1.91 C 0.53333 km/h
1563 08-04-2015 06:00:00 1.35 C 4.91 g/m*3 1.35 C 0.4 km/h
1564 08-04-2015 07:00:00 1.29167 C 4.94 g/m*3 1.29 C 0 km/h
1565 08-04-2015 08:00:00 1.975 C 5.19 g/m*3 1.98 C 0.13333 km/h
1566 08-04-2015 09:00:00 3.85833 C 5.61 g/m*3 3.86 C 1.33333 km/h
1567 08-04-2015 10:00:00 6.29167 C 6.1 g/m*3 6.29 C 1.33333 km/h
1568 08-04-2015 11:00:00 9.23 C 6.95 g/m*3 9.23 C 3.68 km/h
1569 08-04-2015 12:00:00 11.325 C 7.36 g/m*3 11.33 C 6.56667 km/h
1570 08-04-2015 13:00:00 13.59167 C 7.73 g/m*3 13.59 C 6.575 km/h
1571 08-04-2015 14:00:00 15.35833 C 8.09 g/m*3 15.36 C 8.35 km/h
1572 08-04-2015 15:00:00 16.3 C 8.13 g/m*3 16.3 C 9.95 km/h
1573 08-04-2015 16:00:00 17.01667 C 8.07 g/m*3 17.02 C 7.80833 km/h
1574 08-04-2015 17:00:00 17.25 C 7.92 g/m*3 17.25 C 6.31667 km/h
1575 08-04-2015 18:00:00 16.88333 C 7.74 g/m*3 16.88 C 6.56667 km/h
Sensor: Nr:Datum:Temp:Abs-Feuchte:Windchill:Wind:
Aussen-T/F 1576 08-04-2015 19:00:00 15.2 C 7.77 g/m*3 15.2 C 6.425 km/h
1577 08-04-2015 20:00:00 11.81667 C 7.58 g/m*3 11.82 C 4.13333 km/h
1578 08-04-2015 21:00:00 9.61667 C 7.35 g/m*3 9.26 C 5.2 km/h
1579 08-04-2015 22:00:00 8.25833 C 7.12 g/m*3 8.26 C 2.66667 km/h
1580 08-04-2015 23:00:00 7.24167 C 6.93 g/m*3 7.24 C 0.93333 km/h
1581 09-04-2015 00:00:00 6.46667 C 6.7 g/m*3 6.47 C 0 km/h
1582 09-04-2015 01:00:00 5.65 C 6.48 g/m*3 5.65 C 0 km/h
1583 09-04-2015 02:00:00 4.95833 C 6.29 g/m*3 4.96 C 0 km/h
1584 09-04-2015 03:00:00 4.4 C 6.13 g/m*3 4.4 C 0 km/h
1585 09-04-2015 04:00:00 4.04167 C 6.05 g/m*3 4.04 C 0 km/h
1586 09-04-2015 05:00:00 3.45833 C 5.82 g/m*3 3.46 C 0 km/h
1587 09-04-2015 06:00:00 2.90833 C 5.65 g/m*3 2.91 C 0 km/h
1588 09-04-2015 07:00:00 2.86667 C 5.66 g/m*3 2.87 C 0.13333 km/h
1589 09-04-2015 08:00:00 3.525 C 5.96 g/m*3 3.53 C 0 km/h
1590 09-04-2015 09:00:00 5.10833 C 6.64 g/m*3 5.11 C 0.13333 km/h
1591 09-04-2015 10:00:00 7.65833 C 7.64 g/m*3 7.66 C 0.26667 km/h
1592 09-04-2015 11:00:00 11.275 C 8.34 g/m*3 11.28 C 0.93333 km/h
1593 09-04-2015 12:00:00 14.7 C 8.69 g/m*3 14.7 C 5.075 km/h
1594 09-04-2015 13:00:00 17.96667 C 9.07 g/m*3 17.97 C 5.74167 km/h
1595 09-04-2015 14:00:00 19.31667 C 8.9 g/m*3 19.32 C 5.89167 km/h
1596 09-04-2015 15:00:00 20.4 C 9.63 g/m*3 20.4 C 8.61667 km/h
1597 09-04-2015 16:00:00 21.21667 C 9.43 g/m*3 21.22 C 6.99167 km/h
1598 09-04-2015 17:00:00 21.425 C 9.2 g/m*3 21.43 C 5.33333 km/h
1599 09-04-2015 18:00:00 21.65 C 8.78 g/m*3 21.65 C 4.675 km/h
1600 09-04-2015 19:00:00 18.95833 C 9 g/m*3 18.96 C 4.4 km/h
Sensor: Nr:Datum:Temp:Abs-Feuchte:Windchill:Wind:
Aussen-T/F 1601 09-04-2015 20:00:00 14.15 C 8.34 g/m*3 14.15 C 5.73333 km/h
1602 09-04-2015 21:00:00 13.24167 C 8.35 g/m*3 13.24 C 6.55833 km/h
1603 09-04-2015 22:00:00 12.49167 C 8.25 g/m*3 12.49 C 4.66667 km/h
1604 09-04-2015 23:00:00 10.88333 C 7.97 g/m*3 10.88 C 2.53333 km/h
1605 10-04-2015 00:00:00 9.68333 C 7.74 g/m*3 9.68 C 0.13333 km/h
1606 10-04-2015 01:00:00 8.64167 C 7.45 g/m*3 8.64 C 0 km/h
1607 10-04-2015 02:00:00 7.70833 C 7.22 g/m*3 7.71 C 0.13333 km/h
1608 10-04-2015 03:00:00 6.9 C 6.98 g/m*3 6.9 C 0 km/h
1609 10-04-2015 04:00:00 6.20833 C 6.82 g/m*3 6.21 C 0 km/h
1610 10-04-2015 05:00:00 5.49167 C 6.57 g/m*3 5.49 C 0.26667 km/h
1611 10-04-2015 06:00:00 5.04167 C 6.43 g/m*3 5.04 C 0.13333 km/h
1612 10-04-2015 07:00:00 4.68333 C 6.33 g/m*3 4.68 C 0 km/h
1613 10-04-2015 08:00:00 5.21667 C 6.62 g/m*3 5.22 C 0.13333 km/h
1614 10-04-2015 09:00:00 6.63333 C 7.17 g/m*3 6.63 C 0 km/h
1615 10-04-2015 10:00:00 9.59167 C 8.14 g/m*3 9.59 C 0 km/h
1616 10-04-2015 11:00:00 13.50833 C 8.89 g/m*3 13.51 C 0.53333 km/h
1617 10-04-2015 12:00:00 17.475 C 9.14 g/m*3 17.48 C 2.66667 km/h
1618 10-04-2015 13:00:00 21.43333 C 8.48 g/m*3 21.43 C 6.29167 km/h
1619 10-04-2015 14:00:00 23.075 C 7.84 g/m*3 23.08 C 6.84167 km/h
1620 10-04-2015 15:00:00 23.68333 C 6.59 g/m*3 23.68 C 10.625 km/h
1621 10-04-2015 16:00:00 24.59167 C 6.26 g/m*3 24.59 C 8.60833 km/h
1622 10-04-2015 17:00:00 24.38333 C 5.71 g/m*3 24.38 C 9.13333 km/h
1623 10-04-2015 18:00:00 23.00833 C 6.24 g/m*3 23.01 C 5.08333 km/h
1624 10-04-2015 19:00:00 18.19167 C 7.69 g/m*3 18.19 C 4.13333 km/h
1625 10-04-2015 20:00:00 15.24167 C 7.42 g/m*3 15.24 C 6.28333 km/h
Sensor: Nr:Datum:Temp:Abs-Feuchte:Windchill:Wind:
Aussen-T/F 1626 10-04-2015 21:00:00 13.61667 C 7.04 g/m*3 13.62 C 5.33333 km/h
1627 10-04-2015 22:00:00 12.20833 C 6.69 g/m*3 12.21 C 3.86667 km/h
1628 10-04-2015 23:00:00 11.23333 C 6.46 g/m*3 11.23 C 1.46667 km/h
1629 11-04-2015 00:00:00 10.76667 C 6.38 g/m*3 10.77 C 2.66667 km/h
1630 11-04-2015 01:00:00 10.40833 C 6.35 g/m*3 10.41 C 2.13333 km/h
1631 11-04-2015 02:00:00 9.04167 C 6.21 g/m*3 9.04 C 0.8 km/h
1632 11-04-2015 03:00:00 8.7 C 6.07 g/m*3 8.7 C 1.475 km/h
1633 11-04-2015 04:00:00 9.09167 C 6.14 g/m*3 9.09 C 2.8 km/h
1634 11-04-2015 05:00:00 7.88333 C 6.18 g/m*3 7.88 C 2 km/h
1635 11-04-2015 06:00:00 7.775 C 6.19 g/m*3 7.78 C 2.80833 km/h
1636 11-04-2015 07:00:00 8.84167 C 6.25 g/m*3 8.84 C 4.8 km/h
1637 11-04-2015 08:00:00 9.6 C 6.63 g/m*3 8.97 C 6.15 km/h
1638 11-04-2015 09:00:00 13.03333 C 7.7 g/m*3 13.03 C 13.95 km/h
1639 11-04-2015 10:00:00 14.975 C 8.44 g/m*3 14.98 C 15.96667 km/h
1640 11-04-2015 11:00:00 15.55 C 8.73 g/m*3 15.55 C 19.96667 km/h
1641 11-04-2015 12:00:00 15.86667 C 9.02 g/m*3 15.87 C 19.56667 km/h
1642 11-04-2015 13:00:00 15.63333 C 9.17 g/m*3 15.63 C 19.43333 km/h
1643 11-04-2015 14:00:00 15.93333 C 9.35 g/m*3 15.93 C 18.9 km/h
1644 11-04-2015 15:00:00 15.825 C 9.19 g/m*3 15.83 C 16.63333 km/h
1645 11-04-2015 16:00:00 16.11667 C 9.01 g/m*3 16.12 C 16.23333 km/h
1646 11-04-2015 17:00:00 15.825 C 9.08 g/m*3 15.83 C 13.83333 km/h
1647 11-04-2015 18:00:00 15.025 C 8.82 g/m*3 15.03 C 10.89167 km/h
1648 11-04-2015 19:00:00 14.61667 C 8.51 g/m*3 14.62 C 10.61667 km/h
1649 11-04-2015 20:00:00 13.90833 C 8.65 g/m*3 13.91 C 10.20833 km/h
1650 11-04-2015 21:00:00 12.975 C 8.85 g/m*3 12.98 C 9 km/h
Sensor: Nr:Datum:Temp:Abs-Feuchte:Windchill:Wind:
Aussen-T/F 1651 11-04-2015 22:00:00 10.375 C 8.11 g/m*3 9.14 C 9.65833 km/h
1652 11-04-2015 23:00:00 9.14167 C 7.5 g/m*3 9.14 C 4.15 km/h
1653 12-04-2015 00:00:00 8.73333 C 7.25 g/m*3 8.73 C 2.66667 km/h
1654 12-04-2015 01:00:00 8.10833 C 7.31 g/m*3 8.11 C 0.93333 km/h
1655 12-04-2015 02:00:00 7.44167 C 7.04 g/m*3 7.44 C 3.33333 km/h
1656 12-04-2015 03:00:00 7.11667 C 6.93 g/m*3 7.12 C 1.6 km/h
1657 12-04-2015 04:00:00 5.8 C 6.48 g/m*3 5.8 C 3.06667 km/h
1658 12-04-2015 05:00:00 5.30833 C 6.39 g/m*3 5.31 C 0 km/h
1659 12-04-2015 06:00:00 4.89167 C 6.26 g/m*3 4.89 C 0.13333 km/h
1660 12-04-2015 07:00:00 4.83333 C 6.27 g/m*3 4.83 C 0.13333 km/h
1661 12-04-2015 08:00:00 5.99167 C 6.7 g/m*3 5.99 C 0.53333 km/h
1662 12-04-2015 09:00:00 7.43333 C 6.97 g/m*3 7.43 C 0.8 km/h
1663 12-04-2015 10:00:00 9.275 C 7.18 g/m*3 9.28 C 1.73333 km/h
1664 12-04-2015 11:00:00 11.975 C 7.53 g/m*3 11.98 C 7.51667 km/h
1665 12-04-2015 12:00:00 14.05 C 6.67 g/m*3 14.05 C 12.1 km/h
1666 12-04-2015 13:00:00 15.58333 C 6.69 g/m*3 15.58 C 10.1 km/h
1667 12-04-2015 14:00:00 16.625 C 6.31 g/m*3 16.63 C 12.23333 km/h
1668 12-04-2015 15:00:00 17.74167 C 6.34 g/m*3 17.74 C 12.48333 km/h
1669 12-04-2015 16:00:00 18.60833 C 6.14 g/m*3 18.61 C 13.7 km/h
1670 12-04-2015 17:00:00 19.16667 C 6.54 g/m*3 19.17 C 14.1 km/h
1671 12-04-2015 18:00:00 19.14167 C 6.67 g/m*3 19.14 C 11.83333 km/h
1672 12-04-2015 19:00:00 17.25 C 7.01 g/m*3 17.25 C 6.16667 km/h
1673 12-04-2015 20:00:00 13.85833 C 7.34 g/m*3 13.86 C 4.66667 km/h
1674 12-04-2015 21:00:00 11.78333 C 7.45 g/m*3 11.78 C 2.93333 km/h
1675 12-04-2015 22:00:00 11.325 C 7.32 g/m*3 11.33 C 1.6 km/h
Sensor: Nr:Datum:Temp:Abs-Feuchte:Windchill:Wind:
Aussen-T/F 1676 12-04-2015 23:00:00 10.225 C 7.34 g/m*3 10.23 C 4 km/h
1677 13-04-2015 00:00:00 9.75 C 7.32 g/m*3 9.75 C 1.6 km/h
1678 13-04-2015 01:00:00 10.3 C 7.78 g/m*3 10.3 C 4.80833 km/h
1679 13-04-2015 02:00:00 11.86667 C 7.99 g/m*3 11.87 C 9.4 km/h
1680 13-04-2015 03:00:00 11.725 C 8.13 g/m*3 11.73 C 7.78333 km/h
1681 13-04-2015 04:00:00 11.89167 C 8.13 g/m*3 11.89 C 6.30833 km/h
1682 13-04-2015 05:00:00 11.38333 C 7.62 g/m*3 11.38 C 7.775 km/h
1683 13-04-2015 06:00:00 10.54167 C 7.07 g/m*3 10.12 C 5.88333 km/h
1684 13-04-2015 07:00:00 10.8 C 7.26 g/m*3 10.32 C 6.30833 km/h
1685 13-04-2015 08:00:00 10.95 C 7.54 g/m*3 10.16 C 7.8 km/h
1686 13-04-2015 09:00:00 10.44167 C 7.74 g/m*3 9.54 C 7.925 km/h
1687 13-04-2015 10:00:00 10.33333 C 7.68 g/m*3 8.91 C 10.75833 km/h
1688 13-04-2015 11:00:00 10.875 C 7.68 g/m*3 9.66 C 10.09167 km/h
1689 13-04-2015 12:00:00 11.99167 C 7.64 g/m*3 11.99 C 13.7 km/h
1690 13-04-2015 13:00:00 13.025 C 7.58 g/m*3 13.03 C 13.96667 km/h
1691 13-04-2015 14:00:00 13.43333 C 7.17 g/m*3 13.43 C 11.96667 km/h
1692 13-04-2015 15:00:00 14.61667 C 7.2 g/m*3 14.62 C 12.36667 km/h
1693 13-04-2015 16:00:00 14.66667 C 6.64 g/m*3 14.67 C 9.95833 km/h
1694 13-04-2015 17:00:00 14.60833 C 6.47 g/m*3 14.61 C 8.6 km/h
1695 13-04-2015 18:00:00 14.725 C 6.42 g/m*3 14.73 C 7.50833 km/h
1696 13-04-2015 19:00:00 13.5 C 6.14 g/m*3 13.5 C 4.675 km/h
1697 13-04-2015 20:00:00 11.275 C 6.36 g/m*3 11.28 C 1.86667 km/h
1698 13-04-2015 21:00:00 8.95833 C 6.28 g/m*3 8.96 C 4.53333 km/h
1699 13-04-2015 22:00:00 7.64167 C 6.07 g/m*3 7.64 C 2.8 km/h
1700 13-04-2015 23:00:00 6.725 C 5.96 g/m*3 6.73 C 0.4 km/h
Sensor: Nr:Datum:Temp:Abs-Feuchte:Windchill:Wind:
Aussen-T/F 1701 14-04-2015 00:00:00 6.25 C 5.89 g/m*3 6.25 C 0.4 km/h
1702 14-04-2015 01:00:00 5.825 C 5.88 g/m*3 5.83 C 0.4 km/h
1703 14-04-2015 02:00:00 5.325 C 5.83 g/m*3 5.33 C 0.26667 km/h
1704 14-04-2015 03:00:00 4.975 C 5.79 g/m*3 4.97 C 0 km/h
1705 14-04-2015 04:00:00 4.80833 C 5.83 g/m*3 4.81 C 0 km/h
1706 14-04-2015 05:00:00 4.46667 C 5.8 g/m*3 4.47 C 0.13333 km/h
1707 14-04-2015 06:00:00 4.23333 C 5.8 g/m*3 4.23 C 0.13333 km/h
1708 14-04-2015 07:00:00 4.775 C 6.05 g/m*3 4.78 C 0.66667 km/h
1709 14-04-2015 08:00:00 5.875 C 6.44 g/m*3 5.88 C 1.2 km/h
1710 14-04-2015 09:00:00 8.18333 C 7.22 g/m*3 8.18 C 4.675 km/h
1711 14-04-2015 10:00:00 12.23333 C 7.98 g/m*3 12.23 C 13.83333 km/h
1712 14-04-2015 11:00:00 14.86667 C 8.5 g/m*3 14.87 C 12.63333 km/h
1713 14-04-2015 12:00:00 17.44167 C 8.93 g/m*3 17.44 C 12.5 km/h
1714 14-04-2015 13:00:00 19.475 C 9.36 g/m*3 19.48 C 13.56667 km/h
1715 14-04-2015 14:00:00 21.40833 C 9.64 g/m*3 21.41 C 13.68333 km/h
1716 14-04-2015 15:00:00 22.78333 C 9.22 g/m*3 22.78 C 14.1 km/h
1717 14-04-2015 16:00:00 24.35833 C 7.03 g/m*3 24.36 C 16.23333 km/h
1718 14-04-2015 17:00:00 24.775 C 6.63 g/m*3 24.78 C 14.63333 km/h
1719 14-04-2015 18:00:00 24.5 C 6.92 g/m*3 24.5 C 11.03333 km/h
1720 14-04-2015 19:00:00 22.99167 C 7.36 g/m*3 22.99 C 8.45833 km/h
1721 14-04-2015 20:00:00 18.59167 C 8.26 g/m*3 18.59 C 4.26667 km/h
1722 14-04-2015 21:00:00 15.68333 C 8.7 g/m*3 15.68 C 4.93333 km/h
1723 14-04-2015 22:00:00 14.24167 C 8.81 g/m*3 14.24 C 2.66667 km/h
1724 14-04-2015 23:00:00 13 C 8.68 g/m*3 13 C 2.13333 km/h
1725 15-04-2015 00:00:00 12.29167 C 8.48 g/m*3 12.29 C 1.6 km/h
Sensor: Nr:Datum:Temp:Abs-Feuchte:Windchill:Wind:
Aussen-T/F 1726 15-04-2015 01:00:00 11.84167 C 8.28 g/m*3 11.84 C 2.8 km/h
1727 15-04-2015 02:00:00 11.375 C 8.1 g/m*3 11.38 C 3.875 km/h
1728 15-04-2015 03:00:00 10.75833 C 8 g/m*3 10.76 C 2.66667 km/h
1729 15-04-2015 04:00:00 9.875 C 7.85 g/m*3 9.88 C 1.33333 km/h
1730 15-04-2015 05:00:00 8.56667 C 7.52 g/m*3 8.57 C 0.53333 km/h
1731 15-04-2015 06:00:00 7.675 C 7.31 g/m*3 7.68 C 0.8 km/h
1732 15-04-2015 07:00:00 7.18333 C 7.25 g/m*3 7.18 C 0.26667 km/h
1733 15-04-2015 08:00:00 8.01667 C 7.73 g/m*3 8.02 C 0.4 km/h
1734 15-04-2015 09:00:00 10.03333 C 8.56 g/m*3 10.03 C 1.6 km/h
1735 15-04-2015 10:00:00 14.25833 C 9.59 g/m*3 14.26 C 3.86667 km/h
1736 15-04-2015 11:00:00 18.70833 C 9.89 g/m*3 18.71 C 6.01667 km/h
1737 15-04-2015 12:00:00 21.65 C 9.16 g/m*3 21.65 C 9.81667 km/h
1738 15-04-2015 13:00:00 23.9 C 8.24 g/m*3 23.9 C 12.63333 km/h
1739 15-04-2015 14:00:00 25.08333 C 7.69 g/m*3 25.08 C 14.09167 km/h
1740 15-04-2015 15:00:00 25.85833 C 7.45 g/m*3 25.86 C 14.1 km/h
1741 15-04-2015 16:00:00 26.63333 C 7.46 g/m*3 26.63 C 12.36667 km/h
1742 15-04-2015 17:00:00 26.65 C 6.98 g/m*3 26.65 C 14.23333 km/h
1743 15-04-2015 18:00:00 24.49167 C 7.23 g/m*3 24.49 C 7.65 km/h
1744 15-04-2015 19:00:00 24.29167 C 7.83 g/m*3 24.29 C 7.51667 km/h
1745 15-04-2015 20:00:00 19.25 C 8.5 g/m*3 19.25 C 3.46667 km/h
1746 15-04-2015 21:00:00 16.875 C 8.88 g/m*3 16.88 C 5.89167 km/h
1747 15-04-2015 22:00:00 15.275 C 8.99 g/m*3 15.28 C 1.86667 km/h
1748 15-04-2015 23:00:00 13.89167 C 8.69 g/m*3 13.89 C 0.53333 km/h
1749 16-04-2015 00:00:00 12.93333 C 8.52 g/m*3 12.93 C 0.8 km/h
1750 16-04-2015 01:00:00 12.05 C 8.34 g/m*3 12.05 C 0.8 km/h
Sensor: Nr:Datum:Temp:Abs-Feuchte:Windchill:Wind:
Aussen-T/F 1751 16-04-2015 02:00:00 10.80833 C 8.12 g/m*3 10.81 C 0.26667 km/h
1752 16-04-2015 03:00:00 10.525 C 8.08 g/m*3 10.53 C 3.75 km/h
1753 16-04-2015 04:00:00 9.75833 C 7.86 g/m*3 9.76 C 1.34167 km/h
1754 16-04-2015 05:00:00 8.85 C 7.65 g/m*3 8.85 C 0.26667 km/h
1755 16-04-2015 06:00:00 8.10833 C 7.51 g/m*3 8.11 C 0 km/h
1756 16-04-2015 07:00:00 8.14167 C 7.65 g/m*3 8.14 C 0.53333 km/h
1757 16-04-2015 08:00:00 9.325 C 8.14 g/m*3 9.32 C 0 km/h
1758 16-04-2015 09:00:00 11.40833 C 8.8 g/m*3 11.41 C 0.8 km/h
1759 16-04-2015 10:00:00 13.94167 C 9.24 g/m*3 13.94 C 2.4 km/h
1760 16-04-2015 11:00:00 15.88333 C 9.47 g/m*3 15.88 C 3.2 km/h
1761 16-04-2015 12:00:00 18.29167 C 9.69 g/m*3 18.29 C 4.93333 km/h
1762 16-04-2015 13:00:00 20.55 C 9.62 g/m*3 20.55 C 6.55833 km/h
1763 16-04-2015 14:00:00 21.73333 C 9.56 g/m*3 21.73 C 5.49167 km/h
1764 16-04-2015 15:00:00 22.65833 C 9.98 g/m*3 22.66 C 7.78333 km/h
1765 16-04-2015 16:00:00 21.96667 C 9.41 g/m*3 21.97 C 7.66667 km/h
1766 16-04-2015 17:00:00 21.56667 C 9.23 g/m*3 21.57 C 7.10833 km/h
1767 16-04-2015 18:00:00 20.35833 C 9 g/m*3 20.36 C 8.20833 km/h
1768 16-04-2015 19:00:00 18.76667 C 8.77 g/m*3 18.77 C 8.74167 km/h
1769 16-04-2015 20:00:00 17.35 C 8.61 g/m*3 17.35 C 5.36667 km/h
1770 16-04-2015 21:00:00 16.29167 C 8.61 g/m*3 16.29 C 4.54167 km/h
1771 16-04-2015 22:00:00 15.56667 C 8.72 g/m*3 15.57 C 5.09167 km/h
1772 16-04-2015 23:00:00 14.30833 C 8.75 g/m*3 14.31 C 2.26667 km/h
1773 17-04-2015 00:00:00 13.625 C 8.48 g/m*3 13.63 C 4.41667 km/h
1774 17-04-2015 01:00:00 12.975 C 8.5 g/m*3 12.98 C 5.23333 km/h
1775 17-04-2015 02:00:00 11.35 C 9.01 g/m*3 11.35 C 3.74167 km/h
Sensor: Nr:Datum:Temp:Abs-Feuchte:Windchill:Wind:
Aussen-T/F 1776 17-04-2015 03:00:00 10.00833 C 8.67 g/m*3 10.01 C 2.53333 km/h
1777 17-04-2015 04:00:00 8.80833 C 8.08 g/m*3 8.81 C 4.66667 km/h
1778 17-04-2015 05:00:00 7.84167 C 7.47 g/m*3 7.2 C 5.33333 km/h
1779 17-04-2015 06:00:00 7.64167 C 7.18 g/m*3 7.64 C 3.6 km/h
1780 17-04-2015 07:00:00 8.20833 C 7.39 g/m*3 8.21 C 1.86667 km/h
1781 17-04-2015 08:00:00 8.91667 C 7.48 g/m*3 8.92 C 0.93333 km/h
1782 17-04-2015 09:00:00 10.03333 C 7.54 g/m*3 10.03 C 4.55833 km/h
1783 17-04-2015 10:00:00 10.59167 C 7.22 g/m*3 9.58 C 8.60833 km/h
1784 17-04-2015 11:00:00 10.66667 C 7.22 g/m*3 9.92 C 7.38333 km/h
1785 17-04-2015 12:00:00 12.425 C 6.91 g/m*3 12.43 C 4.68333 km/h
1786 17-04-2015 13:00:00 15.28333 C 5.81 g/m*3 15.28 C 11.025 km/h
1787 17-04-2015 14:00:00 15.5 C 5.39 g/m*3 15.5 C 11.41667 km/h
1788 17-04-2015 15:00:00 16.8 C 5.67 g/m*3 16.8 C 15.3 km/h
1789 17-04-2015 16:00:00 16.775 C 5.73 g/m*3 16.77 C 15.16667 km/h
1790 17-04-2015 17:00:00 14.74167 C 6.01 g/m*3 14.74 C 17.96667 km/h
1791 17-04-2015 18:00:00 13.99167 C 5.81 g/m*3 13.99 C 16.76667 km/h
1792 17-04-2015 19:00:00 12.75833 C 5.59 g/m*3 12.76 C 13.7 km/h
1793 17-04-2015 20:00:00 11.20833 C 5.36 g/m*3 11.21 C 9.825 km/h
1794 17-04-2015 21:00:00 9.675 C 5.37 g/m*3 9.68 C 3.75 km/h
1795 17-04-2015 22:00:00 7.575 C 5.53 g/m*3 7.58 C 3.6 km/h
1796 17-04-2015 23:00:00 6.61667 C 5.41 g/m*3 6.62 C 2.4 km/h
1797 18-04-2015 00:00:00 5.75 C 5.37 g/m*3 5.75 C 1.6 km/h
1798 18-04-2015 01:00:00 5.075 C 5.37 g/m*3 5.08 C 1.33333 km/h
1799 18-04-2015 02:00:00 4.55 C 5.36 g/m*3 4.55 C 0.8 km/h
1800 18-04-2015 03:00:00 4.05 C 5.31 g/m*3 4.05 C 0.13333 km/h
Sensor: Nr:Datum:Temp:Abs-Feuchte:Windchill:Wind:
Aussen-T/F 1801 18-04-2015 04:00:00 3.10833 C 5.11 g/m*3 3.11 C 0 km/h
1802 18-04-2015 05:00:00 2.43333 C 5.04 g/m*3 2.43 C 0 km/h
1803 18-04-2015 06:00:00 2.025 C 5 g/m*3 2.03 C 0.26667 km/h
1804 18-04-2015 07:00:00 2 C 5.04 g/m*3 2 C 0.13333 km/h
1805 18-04-2015 08:00:00 2.76667 C 5.31 g/m*3 2.77 C 0.4 km/h
1806 18-04-2015 09:00:00 4.84167 C 5.78 g/m*3 4.84 C 1.86667 km/h
1807 18-04-2015 10:00:00 7.05833 C 6.24 g/m*3 7.06 C 1.06667 km/h
1808 18-04-2015 11:00:00 9.5 C 6.11 g/m*3 9 C 5.63333 km/h
1809 18-04-2015 12:00:00 12 C 5.15 g/m*3 12 C 11.96667 km/h
1810 18-04-2015 13:00:00 13.95 C 5.27 g/m*3 13.95 C 13.96667 km/h
1811 18-04-2015 14:00:00 14.775 C 4.96 g/m*3 14.78 C 13.55833 km/h
1812 18-04-2015 15:00:00 15.78333 C 5.01 g/m*3 15.78 C 13.83333 km/h
1813 18-04-2015 16:00:00 16.46667 C 4.95 g/m*3 16.47 C 10.625 km/h
1814 18-04-2015 17:00:00 16.46667 C 4.81 g/m*3 16.47 C 10.36667 km/h
1815 18-04-2015 18:00:00 16.24167 C 4.78 g/m*3 16.24 C 9.15 km/h
1816 18-04-2015 19:00:00 15.475 C 4.73 g/m*3 15.48 C 5.89167 km/h
1817 18-04-2015 20:00:00 11.06667 C 5.35 g/m*3 11.07 C 4.13333 km/h
1818 18-04-2015 21:00:00 8.21667 C 5.23 g/m*3 8.22 C 4.66667 km/h
1819 18-04-2015 22:00:00 7 C 5.23 g/m*3 7 C 1.86667 km/h
1820 18-04-2015 23:00:00 5.91667 C 5.17 g/m*3 5.92 C 0.26667 km/h
1821 19-04-2015 00:00:00 5.03333 C 5.05 g/m*3 5.03 C 0.13333 km/h
1822 19-04-2015 01:00:00 4.2 C 4.97 g/m*3 4.2 C 0 km/h
1823 19-04-2015 02:00:00 3.25 C 4.81 g/m*3 3.25 C 0.13333 km/h
1824 19-04-2015 03:00:00 2.48333 C 4.73 g/m*3 2.48 C 0 km/h
1825 19-04-2015 04:00:00 1.875 C 4.67 g/m*3 1.88 C 0 km/h
Sensor: Nr:Datum:Temp:Abs-Feuchte:Windchill:Wind:
Aussen-T/F 1826 19-04-2015 05:00:00 1.4 C 4.65 g/m*3 1.4 C 0 km/h
1827 19-04-2015 06:00:00 0.89167 C 4.6 g/m*3 0.89 C 0 km/h
1828 19-04-2015 07:00:00 1.01667 C 4.71 g/m*3 1.02 C 0 km/h
1829 19-04-2015 08:00:00 2.00833 C 5.05 g/m*3 2.01 C 0 km/h
1830 19-04-2015 09:00:00 4.49167 C 5.66 g/m*3 4.49 C 0.53333 km/h
1831 19-04-2015 10:00:00 7.475 C 5.97 g/m*3 7.48 C 2.66667 km/h
1832 19-04-2015 11:00:00 11.425 C 5.91 g/m*3 11.43 C 7.25 km/h
1833 19-04-2015 12:00:00 14.00833 C 5.68 g/m*3 14.01 C 8.99167 km/h
1834 19-04-2015 13:00:00 15.9 C 5.68 g/m*3 15.9 C 11.83333 km/h
1835 19-04-2015 14:00:00 17.00833 C 5.57 g/m*3 17.01 C 11.025 km/h
1836 19-04-2015 15:00:00 18.19167 C 5.49 g/m*3 18.19 C 9.525 km/h
1837 19-04-2015 16:00:00 18.73333 C 5.35 g/m*3 18.73 C 9.14167 km/h
1838 19-04-2015 17:00:00 19.35833 C 5.24 g/m*3 19.36 C 12.49167 km/h
1839 19-04-2015 18:00:00 19.33333 C 5.06 g/m*3 19.33 C 8.74167 km/h
1840 19-04-2015 19:00:00 18.41667 C 4.99 g/m*3 18.42 C 5.625 km/h
1841 19-04-2015 20:00:00 13.44167 C 5.71 g/m*3 13.44 C 5.48333 km/h
1842 19-04-2015 21:00:00 10.80833 C 5.8 g/m*3 10.43 C 5.9 km/h
1843 19-04-2015 22:00:00 9.34167 C 5.86 g/m*3 9.34 C 2.26667 km/h
1844 19-04-2015 23:00:00 8.125 C 5.81 g/m*3 8.13 C 0.93333 km/h
1845 20-04-2015 00:00:00 7.28333 C 5.67 g/m*3 7.28 C 0.13333 km/h
1846 20-04-2015 01:00:00 6.275 C 5.58 g/m*3 6.28 C 0.13333 km/h
1847 20-04-2015 02:00:00 5.175 C 5.46 g/m*3 5.18 C 0 km/h
1848 20-04-2015 03:00:00 4.51667 C 5.44 g/m*3 4.52 C 0.13333 km/h
1849 20-04-2015 04:00:00 4.075 C 5.38 g/m*3 4.08 C 0 km/h
1850 20-04-2015 05:00:00 3.59167 C 5.38 g/m*3 3.59 C 0 km/h
Sensor: Nr:Datum:Temp:Abs-Feuchte:Windchill:Wind:
Aussen-T/F 1851 20-04-2015 06:00:00 3.4 C 5.42 g/m*3 3.4 C 0.13333 km/h
1852 20-04-2015 07:00:00 3.88333 C 5.57 g/m*3 3.88 C 0.4 km/h
1853 20-04-2015 08:00:00 5.06667 C 5.89 g/m*3 5.07 C 0.13333 km/h
1854 20-04-2015 09:00:00 7.18333 C 6.45 g/m*3 7.18 C 0.13333 km/h
1855 20-04-2015 10:00:00 9.50833 C 6.75 g/m*3 9.51 C 0.66667 km/h
1856 20-04-2015 11:00:00 13.19167 C 6.64 g/m*3 13.19 C 2.93333 km/h
1857 20-04-2015 12:00:00 16.6 C 6.77 g/m*3 16.6 C 10.08333 km/h
1858 20-04-2015 13:00:00 19.05833 C 6.95 g/m*3 19.06 C 8.58333 km/h
1859 20-04-2015 14:00:00 20.275 C 6.76 g/m*3 20.27 C 10.48333 km/h
1860 20-04-2015 15:00:00 21.45833 C 6.44 g/m*3 21.46 C 10.2 km/h
1861 20-04-2015 16:00:00 22.475 C 6.07 g/m*3 22.48 C 11.29167 km/h
1862 20-04-2015 17:00:00 22.66667 C 6.07 g/m*3 22.67 C 11.3 km/h
1863 20-04-2015 18:00:00 22.26667 C 5.76 g/m*3 22.27 C 12.36667 km/h
1864 20-04-2015 19:00:00 20.81667 C 5.59 g/m*3 20.82 C 10.625 km/h
1865 20-04-2015 20:00:00 17.375 C 6.13 g/m*3 17.38 C 3.875 km/h
1866 20-04-2015 21:00:00 13.575 C 6.33 g/m*3 13.58 C 4.8 km/h
1867 20-04-2015 22:00:00 11.98333 C 6.45 g/m*3 11.98 C 4 km/h
1868 20-04-2015 23:00:00 11.175 C 6.61 g/m*3 11.18 C 4 km/h
1869 21-04-2015 00:00:00 10.11667 C 6.75 g/m*3 10.12 C 2 km/h
1870 21-04-2015 01:00:00 8.73333 C 6.57 g/m*3 8.73 C 0.13333 km/h
1871 21-04-2015 02:00:00 7.825 C 6.41 g/m*3 7.83 C 0.13333 km/h
1872 21-04-2015 03:00:00 6.76667 C 6.28 g/m*3 6.77 C 0 km/h
1873 21-04-2015 04:00:00 6.00833 C 6.19 g/m*3 6.01 C 0.26667 km/h
1874 21-04-2015 05:00:00 5.36667 C 6.1 g/m*3 5.37 C 0.13333 km/h
1875 21-04-2015 06:00:00 5.05 C 6.06 g/m*3 5.05 C 0.4 km/h
Sensor: Nr:Datum:Temp:Abs-Feuchte:Windchill:Wind:
Aussen-T/F 1876 21-04-2015 07:00:00 5.125 C 6.12 g/m*3 5.13 C 0 km/h
1877 21-04-2015 08:00:00 5.78333 C 6.42 g/m*3 5.78 C 0 km/h
1878 21-04-2015 09:00:00 7.88333 C 7.05 g/m*3 7.88 C 0.13333 km/h
1879 21-04-2015 10:00:00 10.80833 C 7.61 g/m*3 10.81 C 0.8 km/h
1880 21-04-2015 11:00:00 14.1 C 8.03 g/m*3 14.1 C 2 km/h
1881 21-04-2015 12:00:00 17.4 C 7.71 g/m*3 17.4 C 4.8 km/h
1882 21-04-2015 13:00:00 20.93333 C 7.59 g/m*3 20.93 C 7.8 km/h
1883 21-04-2015 14:00:00 22.025 C 7 g/m*3 22.03 C 7.65 km/h
1884 21-04-2015 15:00:00 23.13333 C 6.35 g/m*3 23.13 C 9.15833 km/h
1885 21-04-2015 16:00:00 23.725 C 6.21 g/m*3 23.73 C 9.54167 km/h
1886 21-04-2015 17:00:00 23.55833 C 6.4 g/m*3 23.56 C 12.36667 km/h
1887 21-04-2015 18:00:00 22.8 C 6.72 g/m*3 22.8 C 10.5 km/h
1888 21-04-2015 19:00:00 21.54167 C 6.17 g/m*3 21.54 C 7.64167 km/h
1889 21-04-2015 20:00:00 17.93333 C 5.79 g/m*3 17.93 C 4.825 km/h
1890 21-04-2015 21:00:00 15.5 C 5.81 g/m*3 15.5 C 4.675 km/h
1891 21-04-2015 22:00:00 14.08333 C 6.03 g/m*3 14.08 C 4.26667 km/h
1892 21-04-2015 23:00:00 12.49167 C 6.42 g/m*3 12.49 C 4 km/h
1893 22-04-2015 00:00:00 11.16667 C 6.69 g/m*3 11.17 C 3.33333 km/h
1894 22-04-2015 01:00:00 10.45833 C 6.97 g/m*3 10.46 C 3.73333 km/h
1895 22-04-2015 02:00:00 10.05 C 6.97 g/m*3 10.05 C 3.33333 km/h
1896 22-04-2015 03:00:00 9.20833 C 6.67 g/m*3 9.21 C 4.95 km/h
1897 22-04-2015 04:00:00 8.525 C 6.57 g/m*3 8.53 C 4.825 km/h
1898 22-04-2015 05:00:00 7.49167 C 6.58 g/m*3 6.35 C 6.85 km/h
1899 22-04-2015 06:00:00 6.69167 C 6.57 g/m*3 6.69 C 3.6 km/h
1900 22-04-2015 07:00:00 6.40833 C 6.55 g/m*3 5.6 C 5.225 km/h
Sensor: Nr:Datum:Temp:Abs-Feuchte:Windchill:Wind:
Aussen-T/F 1901 22-04-2015 08:00:00 6.675 C 6.61 g/m*3 6.68 C 4.15 km/h
1902 22-04-2015 09:00:00 7.75 C 6.65 g/m*3 6.14 C 9.01667 km/h
1903 22-04-2015 10:00:00 8.725 C 6.79 g/m*3 6.88 C 11.29167 km/h
1904 22-04-2015 11:00:00 10.2 C 6.89 g/m*3 8.7 C 11.025 km/h
1905 22-04-2015 12:00:00 11.90833 C 6.92 g/m*3 11.91 C 13.56667 km/h
1906 22-04-2015 13:00:00 13.75833 C 6.98 g/m*3 13.76 C 14.5 km/h
1907 22-04-2015 14:00:00 14.35 C 7 g/m*3 14.35 C 12.63333 km/h
1908 22-04-2015 15:00:00 15.25833 C 7.12 g/m*3 15.26 C 11.83333 km/h
1909 22-04-2015 16:00:00 15.95 C 7.23 g/m*3 15.95 C 12.63333 km/h
1910 22-04-2015 17:00:00 16.3 C 7.23 g/m*3 16.3 C 12.23333 km/h
1911 22-04-2015 18:00:00 16.525 C 6.73 g/m*3 16.52 C 11.7 km/h
1912 22-04-2015 19:00:00 14.625 C 6.41 g/m*3 14.63 C 9.55833 km/h
1913 22-04-2015 20:00:00 12.19167 C 6.27 g/m*3 12.19 C 4.14167 km/h
1914 22-04-2015 21:00:00 9.21667 C 6.42 g/m*3 9.22 C 4 km/h
1915 22-04-2015 22:00:00 8.125 C 6.44 g/m*3 8.13 C 0.53333 km/h
1916 22-04-2015 23:00:00 7.03333 C 6.25 g/m*3 7.03 C 0.13333 km/h
1917 23-04-2015 00:00:00 6.025 C 6.05 g/m*3 6.03 C 0.13333 km/h
1918 23-04-2015 01:00:00 5.23333 C 5.91 g/m*3 5.23 C 0.13333 km/h
1919 23-04-2015 02:00:00 4.51667 C 5.8 g/m*3 4.52 C 0 km/h
1920 23-04-2015 03:00:00 3.99167 C 5.75 g/m*3 3.99 C 0.13333 km/h
1921 23-04-2015 04:00:00 3.44167 C 5.63 g/m*3 3.44 C 0 km/h
1922 23-04-2015 05:00:00 2.85 C 5.49 g/m*3 2.85 C 0 km/h
1923 23-04-2015 06:00:00 2.35833 C 5.35 g/m*3 2.36 C 0.4 km/h
1924 23-04-2015 07:00:00 2.55833 C 5.47 g/m*3 2.56 C 0.26667 km/h
1925 23-04-2015 08:00:00 3.325 C 5.77 g/m*3 3.33 C 0 km/h
Sensor: Nr:Datum:Temp:Abs-Feuchte:Windchill:Wind:
Aussen-T/F 1926 23-04-2015 09:00:00 5.24167 C 6.46 g/m*3 5.24 C 0.26667 km/h
1927 23-04-2015 10:00:00 7.925 C 7.01 g/m*3 7.93 C 0.8 km/h
1928 23-04-2015 11:00:00 11.84167 C 7.47 g/m*3 11.84 C 3.61667 km/h
1929 23-04-2015 12:00:00 15.025 C 7.54 g/m*3 15.03 C 6.30833 km/h
1930 23-04-2015 13:00:00 17.65833 C 7.53 g/m*3 17.66 C 7.10833 km/h
1931 23-04-2015 14:00:00 18.95 C 6.96 g/m*3 18.95 C 7.24167 km/h
1932 23-04-2015 15:00:00 19.55 C 6.79 g/m*3 19.55 C 7.25 km/h
1933 23-04-2015 16:00:00 20.725 C 6.7 g/m*3 20.73 C 8.20833 km/h
1934 23-04-2015 17:00:00 21.16667 C 6.6 g/m*3 21.17 C 8.74167 km/h
1935 23-04-2015 18:00:00 20.84167 C 6.75 g/m*3 20.84 C 7.8 km/h
1936 23-04-2015 19:00:00 19.925 C 6.93 g/m*3 19.93 C 3.86667 km/h
1937 23-04-2015 20:00:00 14.90833 C 7.6 g/m*3 14.91 C 4.4 km/h
1938 23-04-2015 21:00:00 12.23333 C 7.32 g/m*3 12.23 C 3.06667 km/h
1939 23-04-2015 22:00:00 10.625 C 7.1 g/m*3 10.63 C 0.53333 km/h
1940 23-04-2015 23:00:00 9.25833 C 6.84 g/m*3 9.26 C 0 km/h
1941 24-04-2015 00:00:00 8.33333 C 6.77 g/m*3 8.33 C 0.13333 km/h
1942 24-04-2015 01:00:00 7.43333 C 6.57 g/m*3 7.43 C 0.13333 km/h
1943 24-04-2015 02:00:00 6.68333 C 6.46 g/m*3 6.68 C 0 km/h
1944 24-04-2015 03:00:00 6.10833 C 6.38 g/m*3 6.11 C 0.66667 km/h
1945 24-04-2015 04:00:00 5.35 C 6.21 g/m*3 5.35 C 0 km/h
1946 24-04-2015 05:00:00 4.725 C 6.08 g/m*3 4.72 C 0 km/h
1947 24-04-2015 06:00:00 4.25833 C 5.97 g/m*3 4.26 C 0.13333 km/h
1948 24-04-2015 07:00:00 4.43333 C 6.09 g/m*3 4.43 C 0.26667 km/h
1949 24-04-2015 08:00:00 5.53333 C 6.49 g/m*3 5.53 C 0.13333 km/h
1950 24-04-2015 09:00:00 7.93333 C 7.13 g/m*3 7.93 C 0.4 km/h
Sensor: Nr:Datum:Temp:Abs-Feuchte:Windchill:Wind:
Aussen-T/F 1951 24-04-2015 10:00:00 10.7 C 7.93 g/m*3 10.7 C 0.13333 km/h
1952 24-04-2015 11:00:00 15.6 C 7.91 g/m*3 15.6 C 8.05 km/h
1953 24-04-2015 12:00:00 19.09167 C 6.88 g/m*3 19.09 C 14.76667 km/h
1954 24-04-2015 13:00:00 21.25 C 6.21 g/m*3 21.25 C 13.3 km/h
1955 24-04-2015 14:00:00 22.4 C 5.74 g/m*3 22.4 C 13.16667 km/h
1956 24-04-2015 15:00:00 23.125 C 6.11 g/m*3 23.13 C 12.21667 km/h
1957 24-04-2015 16:00:00 24.225 C 5.75 g/m*3 24.23 C 13.03333 km/h
1958 24-04-2015 17:00:00 24.2 C 5.52 g/m*3 24.2 C 12.75833 km/h
1959 24-04-2015 18:00:00 23.63333 C 5.79 g/m*3 23.63 C 9.81667 km/h
1960 24-04-2015 19:00:00 21.5 C 7.04 g/m*3 21.5 C 4.00833 km/h
1961 24-04-2015 20:00:00 17.05833 C 7.25 g/m*3 17.06 C 4.13333 km/h
1962 24-04-2015 21:00:00 14.34167 C 7.01 g/m*3 14.34 C 4.4 km/h
1963 24-04-2015 22:00:00 12.875 C 6.98 g/m*3 12.88 C 0.93333 km/h
1964 24-04-2015 23:00:00 11.625 C 6.84 g/m*3 11.63 C 0 km/h
1965 25-04-2015 00:00:00 10.74167 C 6.83 g/m*3 10.74 C 0 km/h
1966 25-04-2015 01:00:00 10.025 C 6.93 g/m*3 10.03 C 0.53333 km/h
1967 25-04-2015 02:00:00 9.26667 C 7.01 g/m*3 9.27 C 0 km/h
1968 25-04-2015 03:00:00 9.30833 C 7.21 g/m*3 9.31 C 0.26667 km/h
1969 25-04-2015 04:00:00 9.30833 C 7.35 g/m*3 9.31 C 0.26667 km/h
1970 25-04-2015 05:00:00 9.28333 C 7.53 g/m*3 9.28 C 0 km/h
1971 25-04-2015 06:00:00 9.39167 C 7.7 g/m*3 9.39 C 0 km/h
1972 25-04-2015 07:00:00 10.21667 C 7.95 g/m*3 10.22 C 0.26667 km/h
1973 25-04-2015 08:00:00 10.99167 C 8.52 g/m*3 10.99 C 0.13333 km/h
1974 25-04-2015 09:00:00 11.80833 C 9.17 g/m*3 11.81 C 0.26667 km/h
1975 25-04-2015 10:00:00 12.51667 C 9.61 g/m*3 12.52 C 0.4 km/h
Sensor: Nr:Datum:Temp:Abs-Feuchte:Windchill:Wind:
Aussen-T/F 1976 25-04-2015 11:00:00 14.35833 C 10.55 g/m*3 14.36 C 3.475 km/h
1977 25-04-2015 12:00:00 15.725 C 10.61 g/m*3 15.73 C 10.20833 km/h
1978 25-04-2015 13:00:00 17.29167 C 10.58 g/m*3 17.29 C 17.16667 km/h
1979 25-04-2015 14:00:00 18.10833 C 10.18 g/m*3 18.11 C 17.03333 km/h
1980 25-04-2015 15:00:00 17.41667 C 10.05 g/m*3 17.42 C 15.16667 km/h
1981 25-04-2015 16:00:00 17.30833 C 10.48 g/m*3 17.31 C 16.36667 km/h
1982 25-04-2015 17:00:00 16.1 C 10.62 g/m*3 16.1 C 9.14167 km/h
1983 25-04-2015 18:00:00 15.39167 C 11.03 g/m*3 15.39 C 5.2 km/h
1984 25-04-2015 19:00:00 14.80833 C 10.94 g/m*3 14.81 C 3.74167 km/h
1985 25-04-2015 20:00:00 14.025 C 10.68 g/m*3 14.03 C 3.2 km/h
1986 25-04-2015 21:00:00 13.06667 C 10.27 g/m*3 13.07 C 1.73333 km/h
1987 25-04-2015 22:00:00 12.56667 C 10.07 g/m*3 12.57 C 0.93333 km/h
1988 25-04-2015 23:00:00 11.89167 C 9.83 g/m*3 11.89 C 0 km/h
1989 26-04-2015 00:00:00 11.54167 C 9.63 g/m*3 11.54 C 0 km/h
1990 26-04-2015 01:00:00 11 C 9.39 g/m*3 11 C 0 km/h
1991 26-04-2015 02:00:00 10.95 C 9.49 g/m*3 10.95 C 0 km/h
1992 26-04-2015 03:00:00 10.86667 C 9.47 g/m*3 10.87 C 0 km/h
1993 26-04-2015 04:00:00 10.86667 C 9.53 g/m*3 10.87 C 0 km/h
1994 26-04-2015 05:00:00 11.33333 C 9.88 g/m*3 11.33 C 0 km/h
1995 26-04-2015 06:00:00 11.40833 C 9.86 g/m*3 11.41 C 0 km/h
1996 26-04-2015 07:00:00 11.50833 C 9.95 g/m*3 11.51 C 0 km/h
1997 26-04-2015 08:00:00 12.88333 C 10.61 g/m*3 12.88 C 2.80833 km/h
1998 26-04-2015 09:00:00 14.875 C 10.69 g/m*3 14.88 C 9.14167 km/h
1999 26-04-2015 10:00:00 15.85833 C 10.64 g/m*3 15.86 C 10.625 km/h
2000 26-04-2015 11:00:00 16.75 C 10.61 g/m*3 16.75 C 10.75833 km/h
Sensor: Nr:Datum:Temp:Abs-Feuchte:Windchill:Wind:
Aussen-T/F 2001 26-04-2015 12:00:00 18.06667 C 10.54 g/m*3 18.07 C 14.1 km/h
2002 26-04-2015 13:00:00 18.86667 C 10.48 g/m*3 18.87 C 13.7 km/h
2003 26-04-2015 14:00:00 19.90833 C 10.08 g/m*3 19.91 C 15.16667 km/h
2004 26-04-2015 15:00:00 20.43333 C 9.85 g/m*3 20.43 C 13.15833 km/h
2005 26-04-2015 16:00:00 21.34167 C 9.62 g/m*3 21.34 C 13.7 km/h
2006 26-04-2015 17:00:00 20.46667 C 9.47 g/m*3 20.47 C 7.53333 km/h
2007 26-04-2015 18:00:00 20.51667 C 9.47 g/m*3 20.52 C 6.70833 km/h
2008 26-04-2015 19:00:00 18.5 C 10.48 g/m*3 18.5 C 2.68333 km/h
2009 26-04-2015 20:00:00 17.05 C 10.29 g/m*3 17.05 C 7.91667 km/h
2010 26-04-2015 21:00:00 15.85 C 10.58 g/m*3 15.85 C 5.09167 km/h
2011 26-04-2015 22:00:00 14.15 C 11.07 g/m*3 14.15 C 2.26667 km/h
2012 26-04-2015 23:00:00 13.275 C 10.92 g/m*3 13.28 C 0.13333 km/h
2013 27-04-2015 00:00:00 13.05833 C 10.92 g/m*3 13.06 C 0 km/h
2014 27-04-2015 01:00:00 12.94167 C 10.88 g/m*3 12.94 C 0.26667 km/h
2015 27-04-2015 02:00:00 12.75 C 10.81 g/m*3 12.75 C 3.61667 km/h
2016 27-04-2015 03:00:00 12.44167 C 10.59 g/m*3 12.44 C 1.06667 km/h
2017 27-04-2015 04:00:00 12.3 C 10.53 g/m*3 12.3 C 0 km/h
2018 27-04-2015 05:00:00 12.2 C 10.47 g/m*3 12.2 C 0.53333 km/h
2019 27-04-2015 06:00:00 12.10833 C 10.41 g/m*3 12.11 C 2.26667 km/h
2020 27-04-2015 07:00:00 11.65 C 10.06 g/m*3 11.65 C 9.53333 km/h
2021 27-04-2015 08:00:00 11.10833 C 9.57 g/m*3 11.11 C 3.06667 km/h
2022 27-04-2015 09:00:00 11.725 C 9.88 g/m*3 11.73 C 3.34167 km/h
2023 27-04-2015 10:00:00 11.75 C 9.76 g/m*3 11.75 C 9.55 km/h
2024 27-04-2015 11:00:00 11.10833 C 9.43 g/m*3 11.11 C 10.75 km/h
2025 27-04-2015 12:00:00 10.33333 C 9.03 g/m*3 9.38 C 8.06667 km/h
Sensor: Nr:Datum:Temp:Abs-Feuchte:Windchill:Wind:
Aussen-T/F 2026 27-04-2015 13:00:00 10.21667 C 9.01 g/m*3 9.9 C 5.35 km/h
2027 27-04-2015 14:00:00 10.00833 C 8.83 g/m*3 9.12 C 7.50833 km/h
2028 27-04-2015 15:00:00 9.54167 C 8.53 g/m*3 8.8 C 6.575 km/h
2029 27-04-2015 16:00:00 9.16667 C 8.27 g/m*3 8.16 C 7.39167 km/h
2030 27-04-2015 17:00:00 8.70833 C 8.02 g/m*3 8.18 C 5.35833 km/h
2031 27-04-2015 18:00:00 8.425 C 7.9 g/m*3 8.43 C 2.93333 km/h
2032 27-04-2015 19:00:00 8.10833 C 7.74 g/m*3 8.11 C 4.95 km/h
2033 27-04-2015 20:00:00 7.73333 C 7.47 g/m*3 7.73 C 4.01667 km/h
2034 27-04-2015 21:00:00 7.65833 C 7.55 g/m*3 7.66 C 2.275 km/h
2035 27-04-2015 22:00:00 7.63333 C 7.57 g/m*3 7.63 C 0.8 km/h
2036 27-04-2015 23:00:00 7.40833 C 7.52 g/m*3 7.41 C 0.26667 km/h
2037 28-04-2015 00:00:00 7.23333 C 7.47 g/m*3 7.23 C 0.53333 km/h
2038 28-04-2015 01:00:00 7.25 C 7.42 g/m*3 7.25 C 2.8 km/h
2039 28-04-2015 02:00:00 7.66667 C 7.33 g/m*3 7.67 C 4.69167 km/h
2040 28-04-2015 03:00:00 7.24167 C 7.2 g/m*3 7.24 C 2.26667 km/h
2041 28-04-2015 04:00:00 6.75 C 6.8 g/m*3 6.75 C 3.60833 km/h
2042 28-04-2015 05:00:00 6.13333 C 6.63 g/m*3 6.13 C 4.95 km/h
2043 28-04-2015 06:00:00 5.49167 C 6.35 g/m*3 5.49 C 3.61667 km/h
2044 28-04-2015 07:00:00 5.15833 C 6.33 g/m*3 5.16 C 1.06667 km/h
2045 28-04-2015 08:00:00 5.55833 C 6.45 g/m*3 5.56 C 1.86667 km/h
2046 28-04-2015 09:00:00 6.99167 C 6.66 g/m*3 6.99 C 1.20833 km/h
2047 28-04-2015 10:00:00 8.04167 C 6.92 g/m*3 8.04 C 2.275 km/h
2048 28-04-2015 11:00:00 10.79167 C 6.94 g/m*3 10.44 C 5.775 km/h
2049 28-04-2015 12:00:00 12.325 C 6.53 g/m*3 12.33 C 4.53333 km/h
2050 28-04-2015 13:00:00 12.69167 C 6.27 g/m*3 12.69 C 8.33333 km/h
Sensor: Nr:Datum:Temp:Abs-Feuchte:Windchill:Wind:
Aussen-T/F 2051 28-04-2015 14:00:00 13.16667 C 6.1 g/m*3 13.17 C 7.50833 km/h
2052 28-04-2015 15:00:00 12.99167 C 5.83 g/m*3 12.99 C 11.025 km/h
2053 28-04-2015 16:00:00 13.48333 C 6.22 g/m*3 13.48 C 11.68333 km/h
2054 28-04-2015 17:00:00 14.16667 C 5.79 g/m*3 14.17 C 16.76667 km/h
2055 28-04-2015 18:00:00 13.70833 C 5.75 g/m*3 13.71 C 9.13333 km/h
2056 28-04-2015 19:00:00 13.88333 C 5.34 g/m*3 13.88 C 7.23333 km/h
2057 28-04-2015 20:00:00 10.675 C 5.43 g/m*3 10.3 C 5.78333 km/h
2058 28-04-2015 21:00:00 7.25 C 5.89 g/m*3 7.25 C 3.46667 km/h
2059 28-04-2015 22:00:00 6.14167 C 5.69 g/m*3 6.14 C 2.26667 km/h
2060 28-04-2015 23:00:00 4.9 C 5.47 g/m*3 4.9 C 0 km/h
2061 29-04-2015 00:00:00 4.21667 C 5.37 g/m*3 4.22 C 0.8 km/h
2062 29-04-2015 01:00:00 3.375 C 5.23 g/m*3 3.38 C 0.26667 km/h
2063 29-04-2015 02:00:00 2.675 C 5.12 g/m*3 2.68 C 0.13333 km/h
2064 29-04-2015 03:00:00 2 C 4.96 g/m*3 2 C 0.26667 km/h
2065 29-04-2015 04:00:00 1.45 C 4.84 g/m*3 1.45 C 0 km/h
2066 29-04-2015 05:00:00 1.03333 C 4.76 g/m*3 1.03 C 0.26667 km/h
2067 29-04-2015 06:00:00 0.725 C 4.72 g/m*3 0.73 C 0 km/h
2068 29-04-2015 07:00:00 1.01667 C 4.84 g/m*3 1.02 C 0 km/h
2069 29-04-2015 08:00:00 2.29167 C 5.25 g/m*3 2.29 C 0 km/h
2070 29-04-2015 09:00:00 4.63333 C 5.74 g/m*3 4.63 C 0 km/h
2071 29-04-2015 10:00:00 7.325 C 6.35 g/m*3 7.33 C 1.2 km/h
2072 29-04-2015 11:00:00 10.49167 C 6.66 g/m*3 10.49 C 2.26667 km/h
2073 29-04-2015 12:00:00 13.5 C 6 g/m*3 13.5 C 5.75833 km/h
2074 29-04-2015 13:00:00 14.8 C 5.71 g/m*3 14.8 C 8.05833 km/h
2075 29-04-2015 14:00:00 15.15 C 5.82 g/m*3 15.15 C 8.05833 km/h
Sensor: Nr:Datum:Temp:Abs-Feuchte:Windchill:Wind:
Aussen-T/F 2076 29-04-2015 15:00:00 15.74167 C 5.78 g/m*3 15.74 C 6.025 km/h
2077 29-04-2015 16:00:00 15.725 C 5.99 g/m*3 15.73 C 5.35 km/h
2078 29-04-2015 17:00:00 15.49167 C 6.3 g/m*3 15.49 C 3.6 km/h
2079 29-04-2015 18:00:00 14.575 C 8.22 g/m*3 14.58 C 1.2 km/h
2080 29-04-2015 19:00:00 13.33333 C 7.57 g/m*3 13.33 C 3.60833 km/h
2081 29-04-2015 20:00:00 11.35 C 7.48 g/m*3 11.35 C 3.33333 km/h
2082 29-04-2015 21:00:00 10.10833 C 7.29 g/m*3 10.11 C 1.73333 km/h
2083 29-04-2015 22:00:00 9.30833 C 7.11 g/m*3 9.31 C 0.66667 km/h
2084 29-04-2015 23:00:00 9.025 C 7.03 g/m*3 9.03 C 1.2 km/h
2085 30-04-2015 00:00:00 8.91667 C 6.83 g/m*3 8.92 C 0.93333 km/h
2086 30-04-2015 01:00:00 8.75 C 6.86 g/m*3 8.75 C 1.2 km/h
2087 30-04-2015 02:00:00 8.35 C 6.78 g/m*3 8.35 C 1.06667 km/h
2088 30-04-2015 03:00:00 7.90833 C 6.76 g/m*3 7.91 C 0.66667 km/h
2089 30-04-2015 04:00:00 7.39167 C 6.72 g/m*3 7.39 C 0.93333 km/h
2090 30-04-2015 05:00:00 7.28333 C 6.68 g/m*3 7.28 C 1.6 km/h
2091 30-04-2015 06:00:00 7.075 C 6.79 g/m*3 7.08 C 0.26667 km/h
2092 30-04-2015 07:00:00 7.01667 C 6.88 g/m*3 7.02 C 1.46667 km/h
2093 30-04-2015 08:00:00 9.29167 C 7.15 g/m*3 7.34 C 12.76667 km/h
2094 30-04-2015 09:00:00 10.15 C 7.13 g/m*3 8.24 C 13.83333 km/h
2095 30-04-2015 10:00:00 11.44167 C 7.34 g/m*3 11.44 C 13.56667 km/h
2096 30-04-2015 11:00:00 12.525 C 7.64 g/m*3 12.53 C 11.025 km/h
2097 30-04-2015 12:00:00 13.45833 C 7.66 g/m*3 13.46 C 14.1 km/h
2098 30-04-2015 13:00:00 14.10833 C 8.07 g/m*3 14.11 C 16.63333 km/h
2099 30-04-2015 14:00:00 12.6 C 8.62 g/m*3 12.6 C 9.80833 km/h
2100 30-04-2015 15:00:00 11.98333 C 8.69 g/m*3 11.98 C 14.625 km/h
Sensor: Nr:Datum:Temp:Abs-Feuchte:Windchill:Wind:
Aussen-T/F 2101 30-04-2015 16:00:00 11.825 C 8.51 g/m*3 11.83 C 12.88333 km/h
2102 30-04-2015 17:00:00 11.175 C 8.24 g/m*3 11.18 C 12.35833 km/h
2103 30-04-2015 18:00:00 10.45833 C 7.96 g/m*3 8.74 C 12.9 km/h
2104 30-04-2015 19:00:00 10.06667 C 7.88 g/m*3 8.89 C 8.99167 km/h
2105 30-04-2015 20:00:00 9.625 C 7.93 g/m*3 9.63 C 4.15 km/h
2106 30-04-2015 21:00:00 9.01667 C 7.96 g/m*3 9.02 C 2.00833 km/h
2107 30-04-2015 22:00:00 8.48333 C 7.87 g/m*3 8.48 C 2.4 km/h
2108 30-04-2015 23:00:00 7.68333 C 7.51 g/m*3 7.68 C 1.86667 km/h
2109 01-05-2015 00:00:00 6.26667 C 6.91 g/m*3 6.27 C 1.06667 km/h
2110 01-05-2015 01:00:00 5.975 C 6.88 g/m*3 5.98 C 0.13333 km/h
2111 01-05-2015 02:00:00 5.6 C 6.72 g/m*3 5.6 C 0.66667 km/h
2112 01-05-2015 03:00:00 4.80833 C 6.37 g/m*3 4.81 C 0.13333 km/h
2113 01-05-2015 04:00:00 4.13333 C 6.09 g/m*3 4.13 C 0.13333 km/h
2114 01-05-2015 05:00:00 4.225 C 6.17 g/m*3 4.22 C 0.13333 km/h
2115 01-05-2015 06:00:00 4.325 C 6.24 g/m*3 4.33 C 0.13333 km/h
2116 01-05-2015 07:00:00 4.6 C 6.35 g/m*3 4.6 C 0.13333 km/h
2117 01-05-2015 08:00:00 5.125 C 6.58 g/m*3 5.13 C 0.53333 km/h
2118 01-05-2015 09:00:00 6.03333 C 6.98 g/m*3 6.03 C 0.93333 km/h
2119 01-05-2015 10:00:00 6.825 C 7.35 g/m*3 6.83 C 1.46667 km/h
2120 01-05-2015 11:00:00 7.65833 C 7.71 g/m*3 7.66 C 3.73333 km/h
2121 01-05-2015 12:00:00 9.70833 C 8.33 g/m*3 9.71 C 4.80833 km/h
2122 01-05-2015 13:00:00 12.05 C 8.29 g/m*3 12.05 C 5.89167 km/h
2123 01-05-2015 14:00:00 13.19167 C 7.04 g/m*3 13.19 C 8.2 km/h
2124 01-05-2015 15:00:00 13.30833 C 6.11 g/m*3 13.31 C 5.89167 km/h
2125 01-05-2015 16:00:00 13.21667 C 6.16 g/m*3 13.22 C 5.48333 km/h
Sensor: Nr:Datum:Temp:Abs-Feuchte:Windchill:Wind:
Aussen-T/F 2126 01-05-2015 17:00:00 13.15833 C 6.17 g/m*3 13.16 C 5.35 km/h
2127 01-05-2015 18:00:00 12.925 C 6.05 g/m*3 12.93 C 3.73333 km/h
2128 01-05-2015 19:00:00 11.76667 C 7.41 g/m*3 11.77 C 0.53333 km/h
2129 01-05-2015 20:00:00 9.78333 C 7.02 g/m*3 9.78 C 2 km/h
2130 01-05-2015 21:00:00 8.24167 C 6.84 g/m*3 8.24 C 2.53333 km/h
2131 01-05-2015 22:00:00 7.14167 C 6.64 g/m*3 7.14 C 0.26667 km/h
2132 01-05-2015 23:00:00 6.07273 C 6.31 g/m*3 6.07 C 0 km/h
2133 02-05-2015 00:00:00 5.725 C 6.33 g/m*3 5.73 C 0 km/h
2134 02-05-2015 01:00:00 5.43333 C 6.31 g/m*3 5.43 C 0 km/h
2135 02-05-2015 02:00:00 4.675 C 6.14 g/m*3 4.68 C 0 km/h
2136 02-05-2015 03:00:00 4.18333 C 6.01 g/m*3 4.18 C 0 km/h
2137 02-05-2015 04:00:00 3.625 C 5.83 g/m*3 3.63 C 0.13333 km/h
2138 02-05-2015 05:00:00 2.925 C 5.58 g/m*3 2.93 C 0.26667 km/h
2139 02-05-2015 06:00:00 2.95833 C 5.63 g/m*3 2.96 C 0.4 km/h
2140 02-05-2015 07:00:00 3.69167 C 5.94 g/m*3 3.69 C 3.33333 km/h
2141 02-05-2015 08:00:00 4.73333 C 6.41 g/m*3 4.73 C 1.06667 km/h
2142 02-05-2015 09:00:00 6.51667 C 7.03 g/m*3 6.52 C 1.6 km/h
2143 02-05-2015 10:00:00 8.61667 C 7.22 g/m*3 8.62 C 1.73333 km/h
2144 02-05-2015 11:00:00 12.04167 C 7.79 g/m*3 12.04 C 2 km/h
2145 02-05-2015 12:00:00 14.29167 C 7.64 g/m*3 14.29 C 3.86667 km/h
2146 02-05-2015 13:00:00 15.9 C 7.45 g/m*3 15.9 C 4.93333 km/h
2147 02-05-2015 14:00:00 16.60833 C 7.29 g/m*3 16.61 C 6.7 km/h
2148 02-05-2015 15:00:00 17.46667 C 7.27 g/m*3 17.47 C 4.94167 km/h
2149 02-05-2015 16:00:00 16.94167 C 7.22 g/m*3 16.94 C 2.93333 km/h
2150 02-05-2015 17:00:00 16.46667 C 7.35 g/m*3 16.47 C 3.06667 km/h
Sensor: Nr:Datum:Temp:Abs-Feuchte:Windchill:Wind:
Aussen-T/F 2151 02-05-2015 18:00:00 16.05 C 7.82 g/m*3 16.05 C 3.075 km/h
2152 02-05-2015 19:00:00 14.70833 C 8.95 g/m*3 14.71 C 0.4 km/h
2153 02-05-2015 20:00:00 12.75 C 8.89 g/m*3 12.75 C 1.06667 km/h
2154 02-05-2015 21:00:00 10.74167 C 8.24 g/m*3 10.74 C 3.46667 km/h
2155 02-05-2015 22:00:00 10.20833 C 8.1 g/m*3 10.21 C 2.13333 km/h
2156 02-05-2015 23:00:00 10.09167 C 8.29 g/m*3 10.09 C 0 km/h
2157 03-05-2015 00:00:00 10.31667 C 8.48 g/m*3 10.32 C 0 km/h
2158 03-05-2015 01:00:00 10.41667 C 8.65 g/m*3 10.42 C 0 km/h
2159 03-05-2015 02:00:00 10.475 C 8.72 g/m*3 10.48 C 0 km/h
2160 03-05-2015 03:00:00 10.36667 C 8.78 g/m*3 10.37 C 0.66667 km/h
2161 03-05-2015 04:00:00 10.575 C 8.97 g/m*3 10.58 C 0.26667 km/h
2162 03-05-2015 05:00:00 10.68333 C 9.03 g/m*3 10.68 C 0 km/h
2163 03-05-2015 06:00:00 10.73333 C 9.15 g/m*3 10.73 C 0 km/h
2164 03-05-2015 07:00:00 11.23333 C 9.41 g/m*3 11.23 C 0 km/h
2165 03-05-2015 08:00:00 12.16667 C 9.91 g/m*3 12.17 C 1.06667 km/h
2166 03-05-2015 09:00:00 13.65833 C 10.53 g/m*3 13.66 C 4.13333 km/h
2167 03-05-2015 10:00:00 14.825 C 10.85 g/m*3 14.83 C 5.225 km/h
2168 03-05-2015 11:00:00 16.39167 C 11.4 g/m*3 16.39 C 5.475 km/h
2169 03-05-2015 12:00:00 16.88333 C 11.71 g/m*3 16.88 C 5.075 km/h
2170 03-05-2015 13:00:00 17.63333 C 12.05 g/m*3 17.63 C 6.71667 km/h
2171 03-05-2015 14:00:00 17.6 C 12.12 g/m*3 17.6 C 8.04167 km/h
2172 03-05-2015 15:00:00 16.95833 C 12.57 g/m*3 16.96 C 1.86667 km/h
2173 03-05-2015 16:00:00 15.83333 C 12.35 g/m*3 15.83 C 1.2 km/h
2174 03-05-2015 17:00:00 15.65 C 12.53 g/m*3 15.65 C 0.13333 km/h
2175 03-05-2015 18:00:00 15.4375 C 12.41 g/m*3 15.44 C 0 km/h
Sensor: Nr:Datum:Temp:Abs-Feuchte:Windchill:Wind:
Aussen-T/F 2176 03-05-2015 19:00:00 15.06 C 12.3 g/m*3 15.06 C 0 km/h
2177 03-05-2015 20:00:00 15.125 C 12.4 g/m*3 15.13 C 0 km/h
2178 03-05-2015 21:00:00 14.9 C 12.24 g/m*3 14.9 C 2.13333 km/h
2179 03-05-2015 22:00:00 14.99167 C 12.22 g/m*3 14.99 C 3.875 km/h
2180 03-05-2015 23:00:00 14.675 C 11.89 g/m*3 14.68 C 2.8 km/h
2181 04-05-2015 00:00:00 14.51667 C 11.74 g/m*3 14.52 C 1.73333 km/h
2182 04-05-2015 01:00:00 13.74167 C 11.34 g/m*3 13.74 C 0.8 km/h
2183 04-05-2015 02:00:00 13.76667 C 11.41 g/m*3 13.77 C 0.93333 km/h
2184 04-05-2015 03:00:00 13.11667 C 10.97 g/m*3 13.12 C 0.4 km/h
2185 04-05-2015 04:00:00 12.56667 C 10.61 g/m*3 12.57 C 0 km/h
2186 04-05-2015 05:00:00 12.21667 C 10.43 g/m*3 12.22 C 0.13333 km/h
2187 04-05-2015 06:00:00 12.11667 C 10.4 g/m*3 12.12 C 0.13333 km/h
2188 04-05-2015 07:00:00 12.525 C 10.68 g/m*3 12.53 C 0 km/h
2189 04-05-2015 08:00:00 13.25 C 11.17 g/m*3 13.25 C 0.93333 km/h
2190 04-05-2015 09:00:00 14.41667 C 11.57 g/m*3 14.42 C 5.76667 km/h
2191 04-05-2015 10:00:00 15.33333 C 11.14 g/m*3 15.33 C 5.90833 km/h
2192 04-05-2015 11:00:00 18.20833 C 10.61 g/m*3 18.21 C 12.9 km/h
2193 04-05-2015 12:00:00 19.54167 C 10.05 g/m*3 19.54 C 13.01667 km/h
2194 04-05-2015 13:00:00 21.26667 C 10.12 g/m*3 21.27 C 12.63333 km/h
2195 04-05-2015 14:00:00 22.3 C 10.15 g/m*3 22.3 C 12.35833 km/h
2196 04-05-2015 15:00:00 22.78333 C 10.01 g/m*3 22.78 C 10.36667 km/h
2197 04-05-2015 16:00:00 23.05 C 10.05 g/m*3 23.05 C 7.65833 km/h
2198 04-05-2015 17:00:00 21.93333 C 12.07 g/m*3 21.93 C 1.475 km/h
2199 04-05-2015 18:00:00 20.125 C 12.72 g/m*3 20.13 C 1.2 km/h
2200 04-05-2015 19:00:00 18.7 C 12.79 g/m*3 18.7 C 0.93333 km/h
Sensor: Nr:Datum:Temp:Abs-Feuchte:Windchill:Wind:
Aussen-T/F 2201 04-05-2015 20:00:00 17.025 C 12.05 g/m*3 17.02 C 2.26667 km/h
2202 04-05-2015 21:00:00 16.05833 C 11.82 g/m*3 16.06 C 2 km/h
2203 04-05-2015 22:00:00 15.325 C 12.07 g/m*3 15.33 C 1.73333 km/h
2204 04-05-2015 23:00:00 14.96667 C 12.03 g/m*3 14.97 C 1.33333 km/h
2205 05-05-2015 00:00:00 15.06667 C 12.17 g/m*3 15.07 C 2 km/h
2206 05-05-2015 01:00:00 16.1 C 12.5 g/m*3 16.1 C 5.08333 km/h
2207 05-05-2015 02:00:00 15.88333 C 12.31 g/m*3 15.88 C 3.06667 km/h
2208 05-05-2015 03:00:00 15.66667 C 12.25 g/m*3 15.67 C 2.4 km/h
2209 05-05-2015 04:00:00 15.28333 C 12.12 g/m*3 15.28 C 2 km/h
2210 05-05-2015 05:00:00 15.275 C 12.12 g/m*3 15.28 C 1.2 km/h
2211 05-05-2015 06:00:00 16.025 C 12.52 g/m*3 16.02 C 3.06667 km/h
2212 05-05-2015 07:00:00 16.025 C 12.69 g/m*3 16.02 C 1.46667 km/h
2213 05-05-2015 08:00:00 16.51667 C 13.24 g/m*3 16.52 C 0.26667 km/h
2214 05-05-2015 09:00:00 17.19167 C 13.86 g/m*3 17.19 C 0.26667 km/h
2215 05-05-2015 10:00:00 19.08333 C 14.27 g/m*3 19.08 C 4.40833 km/h
2216 05-05-2015 11:00:00 22.29167 C 13.24 g/m*3 22.29 C 14.475 km/h
2217 05-05-2015 12:00:00 24.2 C 12.29 g/m*3 24.2 C 16.23333 km/h
2218 05-05-2015 13:00:00 24.51667 C 11.28 g/m*3 24.52 C 20.24167 km/h
2219 05-05-2015 14:00:00 24.35833 C 10.71 g/m*3 24.36 C 28.14167 km/h
2220 05-05-2015 15:00:00 24.11667 C 10.17 g/m*3 24.12 C 26.68333 km/h
2221 05-05-2015 16:00:00 22.53333 C 10.26 g/m*3 22.53 C 21.71667 km/h
2222 05-05-2015 17:00:00 20.54167 C 10.15 g/m*3 20.54 C 15.83333 km/h
2223 05-05-2015 18:00:00 20.55833 C 9.89 g/m*3 20.56 C 13.03333 km/h
2224 05-05-2015 19:00:00 19.19167 C 9.63 g/m*3 19.19 C 7.775 km/h
2225 05-05-2015 20:00:00 17.76667 C 9.83 g/m*3 17.77 C 4.825 km/h
Sensor: Nr:Datum:Temp:Abs-Feuchte:Windchill:Wind:
Aussen-T/F 2226 05-05-2015 21:00:00 16.6 C 9.63 g/m*3 16.6 C 2.93333 km/h
2227 05-05-2015 22:00:00 14.65833 C 9.07 g/m*3 14.66 C 1.73333 km/h
2228 05-05-2015 23:00:00 13.35833 C 8.88 g/m*3 13.36 C 0.66667 km/h
2229 06-05-2015 00:00:00 11.925 C 8.64 g/m*3 11.93 C 0.26667 km/h
2230 06-05-2015 01:00:00 10.90833 C 8.43 g/m*3 10.91 C 0 km/h
2231 06-05-2015 02:00:00 10.25 C 8.28 g/m*3 10.25 C 0 km/h
2232 06-05-2015 03:00:00 9.625 C 8.14 g/m*3 9.63 C 0 km/h
2233 06-05-2015 04:00:00 9.2 C 8.08 g/m*3 9.2 C 0 km/h
2234 06-05-2015 05:00:00 8.95 C 8.04 g/m*3 8.95 C 0 km/h
2235 06-05-2015 06:00:00 8.50833 C 7.9 g/m*3 8.51 C 0 km/h
2236 06-05-2015 07:00:00 8.84167 C 8.12 g/m*3 8.84 C 0 km/h
2237 06-05-2015 08:00:00 10.11667 C 8.48 g/m*3 10.12 C 2.275 km/h
2238 06-05-2015 09:00:00 12.875 C 7.97 g/m*3 12.88 C 11.825 km/h
2239 06-05-2015 10:00:00 14.14167 C 7.02 g/m*3 14.14 C 16.1 km/h
2240 06-05-2015 11:00:00 15.85833 C 6.79 g/m*3 15.86 C 15.3 km/h
2241 06-05-2015 12:00:00 16.60833 C 7.13 g/m*3 16.61 C 17.43333 km/h
2242 06-05-2015 13:00:00 17.39167 C 7.33 g/m*3 17.39 C 17.30833 km/h
2243 06-05-2015 14:00:00 18.19167 C 7.39 g/m*3 18.19 C 14.225 km/h
2244 06-05-2015 15:00:00 18.75 C 7.24 g/m*3 18.75 C 18.5 km/h
2245 06-05-2015 16:00:00 19.05 C 7.04 g/m*3 19.05 C 20.50833 km/h
2246 06-05-2015 17:00:00 17.36667 C 7.3 g/m*3 17.37 C 21.31667 km/h
2247 06-05-2015 18:00:00 15.69167 C 7.82 g/m*3 15.69 C 17.975 km/h
2248 06-05-2015 19:00:00 16.15 C 7.63 g/m*3 16.15 C 12.09167 km/h
2249 06-05-2015 20:00:00 15.04167 C 8.05 g/m*3 15.04 C 3.34167 km/h
2250 06-05-2015 21:00:00 12.7 C 7.93 g/m*3 12.7 C 1.33333 km/h
Sensor: Nr:Datum:Temp:Abs-Feuchte:Windchill:Wind:
Aussen-T/F 2251 06-05-2015 22:00:00 11.88333 C 7.83 g/m*3 11.88 C 1.73333 km/h
2252 06-05-2015 23:00:00 10.53333 C 7.98 g/m*3 10.53 C 0.53333 km/h
2253 07-05-2015 00:00:00 10.175 C 7.98 g/m*3 10.18 C 0.8 km/h
2254 07-05-2015 01:00:00 10.36667 C 7.94 g/m*3 10.37 C 3.33333 km/h
2255 07-05-2015 02:00:00 10.51667 C 7.9 g/m*3 10.52 C 3.73333 km/h
2256 07-05-2015 03:00:00 10.1 C 7.86 g/m*3 10.1 C 2.675 km/h
2257 07-05-2015 04:00:00 9.39167 C 7.78 g/m*3 9.39 C 2 km/h
2258 07-05-2015 05:00:00 9.58333 C 7.78 g/m*3 9.58 C 2.8 km/h
2259 07-05-2015 06:00:00 9.175 C 7.7 g/m*3 9.18 C 2.53333 km/h
2260 07-05-2015 07:00:00 9.9 C 7.9 g/m*3 8.64 C 9.275 km/h
2261 07-05-2015 08:00:00 10.59167 C 7.94 g/m*3 9.53 C 8.875 km/h
2262 07-05-2015 09:00:00 11.78333 C 7.84 g/m*3 11.78 C 11.55833 km/h
2263 07-05-2015 10:00:00 13.34167 C 7.64 g/m*3 13.34 C 12.49167 km/h
2264 07-05-2015 11:00:00 14.875 C 7.31 g/m*3 14.88 C 13.7 km/h
2265 07-05-2015 12:00:00 16.025 C 6.96 g/m*3 16.02 C 15.7 km/h
2266 07-05-2015 13:00:00 17.03333 C 6.75 g/m*3 17.03 C 11.55833 km/h
2267 07-05-2015 14:00:00 17.63333 C 6.56 g/m*3 17.63 C 10.9 km/h
2268 07-05-2015 15:00:00 18.525 C 6.77 g/m*3 18.52 C 12.9 km/h
2269 07-05-2015 16:00:00 19.30833 C 6.82 g/m*3 19.31 C 14.36667 km/h
2270 07-05-2015 17:00:00 19.70833 C 6.61 g/m*3 19.71 C 11.825 km/h
2271 07-05-2015 18:00:00 17.975 C 6.48 g/m*3 17.98 C 7.66667 km/h
2272 07-05-2015 19:00:00 17.75 C 6.6 g/m*3 17.75 C 7.24167 km/h
2273 07-05-2015 20:00:00 14.575 C 7.35 g/m*3 14.58 C 2.13333 km/h
2274 07-05-2015 21:00:00 11.93333 C 7.34 g/m*3 11.93 C 0.4 km/h
2275 07-05-2015 22:00:00 10.51667 C 7.18 g/m*3 10.52 C 0 km/h
Sensor: Nr:Datum:Temp:Abs-Feuchte:Windchill:Wind:
Aussen-T/F 2276 07-05-2015 23:00:00 9.8 C 7.11 g/m*3 9.8 C 0 km/h
2277 08-05-2015 00:00:00 8.75 C 6.83 g/m*3 8.75 C 0 km/h
2278 08-05-2015 01:00:00 8.725 C 7.02 g/m*3 8.73 C 0 km/h
2279 08-05-2015 02:00:00 8.51667 C 7.07 g/m*3 8.52 C 0 km/h
2280 08-05-2015 03:00:00 8.35833 C 7.19 g/m*3 8.36 C 0 km/h
2281 08-05-2015 04:00:00 8.19167 C 7.23 g/m*3 8.19 C 0 km/h
2282 08-05-2015 05:00:00 8.03333 C 7.22 g/m*3 8.03 C 0 km/h
2283 08-05-2015 06:00:00 7.9 C 7.26 g/m*3 7.9 C 0 km/h
2284 08-05-2015 07:00:00 8.4 C 7.53 g/m*3 8.4 C 0 km/h
2285 08-05-2015 08:00:00 10.11667 C 8.01 g/m*3 10.12 C 0 km/h
2286 08-05-2015 09:00:00 12.225 C 8.31 g/m*3 12.23 C 0.4 km/h
2287 08-05-2015 10:00:00 14.91667 C 8.7 g/m*3 14.92 C 3.46667 km/h
2288 08-05-2015 11:00:00 18.525 C 8.82 g/m*3 18.52 C 6.3 km/h
2289 08-05-2015 12:00:00 19.89167 C 8 g/m*3 19.89 C 9.825 km/h
2290 08-05-2015 13:00:00 21.35 C 8.15 g/m*3 21.35 C 7.94167 km/h
2291 08-05-2015 14:00:00 22.05 C 8.27 g/m*3 22.05 C 7.375 km/h
2292 08-05-2015 15:00:00 23.03333 C 8.24 g/m*3 23.03 C 7.25833 km/h
2293 08-05-2015 16:00:00 22.625 C 8.2 g/m*3 22.63 C 3.46667 km/h
2294 08-05-2015 17:00:00 21.05833 C 9.47 g/m*3 21.06 C 2 km/h
2295 08-05-2015 18:00:00 18.88333 C 9.08 g/m*3 18.88 C 1.73333 km/h
2296 08-05-2015 19:00:00 16.91667 C 9.55 g/m*3 16.92 C 0.53333 km/h
2297 08-05-2015 20:00:00 15.50833 C 9.46 g/m*3 15.51 C 1.2 km/h
2298 08-05-2015 21:00:00 15.10833 C 9.3 g/m*3 15.11 C 0.66667 km/h
2299 08-05-2015 22:00:00 14.51667 C 9.56 g/m*3 14.52 C 0.13333 km/h
2300 08-05-2015 23:00:00 13.59167 C 9.39 g/m*3 13.59 C 0 km/h
Sensor: Nr:Datum:Temp:Abs-Feuchte:Windchill:Wind:
Aussen-T/F 2301 09-05-2015 00:00:00 12.38333 C 8.9 g/m*3 12.38 C 0 km/h
2302 09-05-2015 01:00:00 11.25833 C 8.51 g/m*3 11.26 C 0 km/h
2303 09-05-2015 02:00:00 10.96667 C 8.55 g/m*3 10.97 C 0 km/h
2304 09-05-2015 03:00:00 10.825 C 8.66 g/m*3 10.83 C 0 km/h
2305 09-05-2015 04:00:00 10.79167 C 8.64 g/m*3 10.79 C 0.66667 km/h
2306 09-05-2015 05:00:00 10.59167 C 8.68 g/m*3 10.59 C 0 km/h
2307 09-05-2015 06:00:00 10.71667 C 8.93 g/m*3 10.72 C 0 km/h
2308 09-05-2015 07:00:00 12.11667 C 9.64 g/m*3 12.12 C 3.48333 km/h
2309 09-05-2015 08:00:00 14.975 C 10.62 g/m*3 14.98 C 9.68333 km/h
2310 09-05-2015 09:00:00 16.08333 C 10.87 g/m*3 16.08 C 9.81667 km/h
2311 09-05-2015 10:00:00 16.93333 C 11.07 g/m*3 16.93 C 12.76667 km/h
2312 09-05-2015 11:00:00 18.24167 C 10.96 g/m*3 18.24 C 13.825 km/h
2313 09-05-2015 12:00:00 18.38333 C 10.62 g/m*3 18.38 C 14.36667 km/h
2314 09-05-2015 13:00:00 19.55833 C 10.44 g/m*3 19.56 C 15.16667 km/h
2315 09-05-2015 14:00:00 21.275 C 9.83 g/m*3 21.28 C 18.5 km/h
2316 09-05-2015 15:00:00 21.8 C 9.24 g/m*3 21.8 C 16.1 km/h
2317 09-05-2015 16:00:00 21.38333 C 9.05 g/m*3 21.38 C 18.25 km/h
2318 09-05-2015 17:00:00 20.88333 C 8.98 g/m*3 20.88 C 16.63333 km/h
2319 09-05-2015 18:00:00 20.24167 C 8.49 g/m*3 20.24 C 13.69167 km/h
2320 09-05-2015 19:00:00 16.34167 C 10.16 g/m*3 16.34 C 11 km/h
2321 09-05-2015 20:00:00 13.93333 C 10.73 g/m*3 13.93 C 2.8 km/h
2322 09-05-2015 21:00:00 12.55 C 10.31 g/m*3 12.55 C 2 km/h
2323 09-05-2015 22:00:00 12.125 C 9.94 g/m*3 12.13 C 2.66667 km/h
2324 09-05-2015 23:00:00 11.5 C 9.55 g/m*3 11.5 C 2.53333 km/h
2325 10-05-2015 00:00:00 11.025 C 9.24 g/m*3 11.03 C 1.06667 km/h
Sensor: Nr:Datum:Temp:Abs-Feuchte:Windchill:Wind:
Aussen-T/F 2326 10-05-2015 01:00:00 10.58333 C 9.06 g/m*3 10.58 C 2 km/h
2327 10-05-2015 02:00:00 10.3 C 8.87 g/m*3 10.3 C 0.66667 km/h
2328 10-05-2015 03:00:00 9.84167 C 8.67 g/m*3 9.84 C 1.06667 km/h
2329 10-05-2015 04:00:00 10.21667 C 8.58 g/m*3 10.22 C 3.06667 km/h
2330 10-05-2015 05:00:00 9.44167 C 8.24 g/m*3 9.44 C 1.46667 km/h
2331 10-05-2015 06:00:00 9.21667 C 8.29 g/m*3 9.22 C 2.26667 km/h
2332 10-05-2015 07:00:00 10.11667 C 8.63 g/m*3 9.56 C 6.15833 km/h
2333 10-05-2015 08:00:00 11.225 C 9.11 g/m*3 11.23 C 8.475 km/h
2334 10-05-2015 09:00:00 12.75 C 9.43 g/m*3 12.75 C 4.93333 km/h
2335 10-05-2015 10:00:00 14.5 C 9.18 g/m*3 14.5 C 5.225 km/h
2336 10-05-2015 11:00:00 16.53333 C 9.65 g/m*3 16.53 C 6.29167 km/h
2337 10-05-2015 12:00:00 16.925 C 9.51 g/m*3 16.93 C 3.33333 km/h
2338 10-05-2015 13:00:00 18.13333 C 9.68 g/m*3 18.13 C 3.86667 km/h
2339 10-05-2015 14:00:00 20.26667 C 9.43 g/m*3 20.27 C 6.85 km/h
2340 10-05-2015 15:00:00 21.16667 C 9.34 g/m*3 21.17 C 7.51667 km/h
2341 10-05-2015 16:00:00 22.11667 C 9.05 g/m*3 22.12 C 7.79167 km/h
2342 10-05-2015 17:00:00 22.48333 C 8.96 g/m*3 22.48 C 5.9 km/h
2343 10-05-2015 18:00:00 21.45833 C 9.01 g/m*3 21.46 C 4.80833 km/h
2344 10-05-2015 19:00:00 19.90833 C 10.6 g/m*3 19.91 C 1.33333 km/h
2345 10-05-2015 20:00:00 16.6 C 10.58 g/m*3 16.6 C 0.8 km/h
2346 10-05-2015 21:00:00 14.25 C 9.71 g/m*3 14.25 C 1.6 km/h
2347 10-05-2015 22:00:00 13.25833 C 9.35 g/m*3 13.26 C 0.13333 km/h
2348 10-05-2015 23:00:00 12.45833 C 9.15 g/m*3 12.46 C 0.26667 km/h
2349 11-05-2015 00:00:00 11.5 C 8.93 g/m*3 11.5 C 0.53333 km/h
2350 11-05-2015 01:00:00 11.35833 C 8.92 g/m*3 11.36 C 0 km/h
Sensor: Nr:Datum:Temp:Abs-Feuchte:Windchill:Wind:
Aussen-T/F 2351 11-05-2015 02:00:00 10.50833 C 8.6 g/m*3 10.51 C 0 km/h
2352 11-05-2015 03:00:00 9.60833 C 8.39 g/m*3 9.61 C 0 km/h
2353 11-05-2015 04:00:00 9.2 C 8.29 g/m*3 9.2 C 0 km/h
2354 11-05-2015 05:00:00 8.71667 C 8.1 g/m*3 8.72 C 0 km/h
2355 11-05-2015 06:00:00 8.76667 C 8.19 g/m*3 8.77 C 0 km/h
2356 11-05-2015 07:00:00 9.8 C 8.72 g/m*3 9.8 C 0 km/h
2357 11-05-2015 08:00:00 11.40833 C 9.29 g/m*3 11.41 C 0 km/h
2358 11-05-2015 09:00:00 13.575 C 9.68 g/m*3 13.58 C 0 km/h
2359 11-05-2015 10:00:00 15.975 C 10.69 g/m*3 15.98 C 0 km/h
2360 11-05-2015 11:00:00 19.825 C 10.96 g/m*3 19.83 C 4.13333 km/h
2361 11-05-2015 12:00:00 22.25833 C 11.33 g/m*3 22.26 C 5.48333 km/h
2362 11-05-2015 13:00:00 23.95833 C 11.45 g/m*3 23.96 C 5.88333 km/h
2363 11-05-2015 14:00:00 24.425 C 11.76 g/m*3 24.43 C 6.16667 km/h
2364 11-05-2015 15:00:00 26.49167 C 11.74 g/m*3 26.49 C 6.975 km/h
2365 11-05-2015 16:00:00 26.64167 C 11.31 g/m*3 26.64 C 6.58333 km/h
2366 11-05-2015 17:00:00 26.11667 C 11.93 g/m*3 26.12 C 5.21667 km/h
2367 11-05-2015 18:00:00 26.43333 C 12.72 g/m*3 26.43 C 3.875 km/h
2368 11-05-2015 19:00:00 22.76667 C 13.45 g/m*3 22.77 C 1.6 km/h
2369 11-05-2015 20:00:00 20.06667 C 12.56 g/m*3 20.07 C 2.13333 km/h
2370 11-05-2015 21:00:00 18.625 C 11.94 g/m*3 18.63 C 1.33333 km/h
2371 11-05-2015 22:00:00 17.16667 C 11.47 g/m*3 17.17 C 0.13333 km/h
2372 11-05-2015 23:00:00 15.88333 C 11.12 g/m*3 15.88 C 0 km/h
2373 12-05-2015 00:00:00 14.79167 C 10.74 g/m*3 14.79 C 0 km/h
2374 12-05-2015 01:00:00 14 C 10.58 g/m*3 14 C 0 km/h
2375 12-05-2015 02:00:00 13.625 C 10.56 g/m*3 13.63 C 0 km/h
Sensor: Nr:Datum:Temp:Abs-Feuchte:Windchill:Wind:
Aussen-T/F 2376 12-05-2015 03:00:00 13.29167 C 10.46 g/m*3 13.29 C 0.13333 km/h
2377 12-05-2015 04:00:00 12.975 C 10.4 g/m*3 12.98 C 0.13333 km/h
2378 12-05-2015 05:00:00 12.95833 C 10.43 g/m*3 12.96 C 0.13333 km/h
2379 12-05-2015 06:00:00 12.94167 C 10.45 g/m*3 12.94 C 0 km/h
2380 12-05-2015 07:00:00 13.61667 C 10.88 g/m*3 13.62 C 0.4 km/h
2381 12-05-2015 08:00:00 15.33333 C 11.41 g/m*3 15.33 C 1.06667 km/h
2382 12-05-2015 09:00:00 17.5 C 12.51 g/m*3 17.5 C 0.26667 km/h
2383 12-05-2015 10:00:00 19.75833 C 13.8 g/m*3 19.76 C 0.66667 km/h
2384 12-05-2015 11:00:00 23.09167 C 13.6 g/m*3 23.09 C 10.04167 km/h
2385 12-05-2015 12:00:00 25.33333 C 13.11 g/m*3 25.33 C 15.03333 km/h
2386 12-05-2015 13:00:00 27.10833 C 13.18 g/m*3 27.11 C 15.3 km/h
2387 12-05-2015 14:00:00 27.20833 C 13.58 g/m*3 27.21 C 10.61667 km/h
2388 12-05-2015 15:00:00 24.74167 C 14.12 g/m*3 24.74 C 13.01667 km/h
2389 12-05-2015 16:00:00 20.95 C 14.76 g/m*3 20.95 C 3.06667 km/h
2390 12-05-2015 17:00:00 19.26667 C 13.35 g/m*3 19.27 C 4.425 km/h
2391 12-05-2015 18:00:00 19.25833 C 10.67 g/m*3 19.26 C 8.59167 km/h
2392 12-05-2015 19:00:00 19.74167 C 9.87 g/m*3 19.74 C 11.96667 km/h
2393 12-05-2015 20:00:00 18.73333 C 9.33 g/m*3 18.73 C 10.86667 km/h
2394 12-05-2015 21:00:00 16.71667 C 9.14 g/m*3 16.72 C 8.725 km/h
2395 12-05-2015 22:00:00 15.48333 C 8.12 g/m*3 15.48 C 4.425 km/h
2396 12-05-2015 23:00:00 14.31667 C 7.64 g/m*3 14.32 C 5.63333 km/h
2397 13-05-2015 00:00:00 13.25 C 7.79 g/m*3 13.25 C 4.95 km/h
2398 13-05-2015 01:00:00 11.51667 C 7.9 g/m*3 11.52 C 0.26667 km/h
2399 13-05-2015 02:00:00 10.16667 C 7.77 g/m*3 10.17 C 0.13333 km/h
2400 13-05-2015 03:00:00 8.9 C 7.53 g/m*3 8.9 C 0.13333 km/h
Sensor: Nr:Datum:Temp:Abs-Feuchte:Windchill:Wind:
Aussen-T/F 2401 13-05-2015 04:00:00 8.18333 C 7.4 g/m*3 8.18 C 0.4 km/h
2402 13-05-2015 05:00:00 7.25833 C 7.12 g/m*3 7.26 C 0.13333 km/h
2403 13-05-2015 06:00:00 6.80833 C 7.04 g/m*3 6.81 C 0 km/h
2404 13-05-2015 07:00:00 7.14167 C 7.27 g/m*3 7.14 C 0 km/h
2405 13-05-2015 08:00:00 8.95833 C 7.84 g/m*3 8.96 C 0 km/h
2406 13-05-2015 09:00:00 10.25 C 8.21 g/m*3 10.25 C 0 km/h
2407 13-05-2015 10:00:00 12.83333 C 8.84 g/m*3 12.83 C 1.33333 km/h
2408 13-05-2015 11:00:00 17.3 C 8.53 g/m*3 17.3 C 3.6 km/h
2409 13-05-2015 12:00:00 18.88333 C 7.98 g/m*3 18.88 C 5.35833 km/h
2410 13-05-2015 13:00:00 21.04167 C 7.79 g/m*3 21.04 C 7.09167 km/h
2411 13-05-2015 14:00:00 22.35833 C 7.18 g/m*3 22.36 C 7.10833 km/h
2412 13-05-2015 15:00:00 22.88333 C 6.43 g/m*3 22.88 C 10.075 km/h
2413 13-05-2015 16:00:00 20.575 C 8.52 g/m*3 20.58 C 1.33333 km/h
2414 13-05-2015 17:00:00 18.975 C 9.86 g/m*3 18.98 C 0.93333 km/h
2415 13-05-2015 18:00:00 17.94167 C 9.41 g/m*3 17.94 C 1.875 km/h
2416 13-05-2015 19:00:00 18.10833 C 9.28 g/m*3 18.11 C 1.46667 km/h
2417 13-05-2015 20:00:00 17.575 C 8.27 g/m*3 17.58 C 4.81667 km/h
2418 13-05-2015 21:00:00 16.73333 C 8.08 g/m*3 16.73 C 4.275 km/h
2419 13-05-2015 22:00:00 15.04167 C 8.25 g/m*3 15.04 C 2.26667 km/h
2420 13-05-2015 23:00:00 14.16667 C 8.36 g/m*3 14.17 C 0.8 km/h
2421 14-05-2015 00:00:00 14.175 C 8.37 g/m*3 14.18 C 2.8 km/h
2422 14-05-2015 01:00:00 13.84167 C 7.94 g/m*3 13.84 C 4.55833 km/h
2423 14-05-2015 02:00:00 13.06667 C 7.64 g/m*3 13.07 C 5.5 km/h
2424 14-05-2015 03:00:00 11.65 C 7.48 g/m*3 11.65 C 5.5 km/h
2425 14-05-2015 04:00:00 10.35 C 7.37 g/m*3 10.35 C 2.53333 km/h
Sensor: Nr:Datum:Temp:Abs-Feuchte:Windchill:Wind:
Aussen-T/F 2426 14-05-2015 05:00:00 9.05833 C 7.19 g/m*3 9.06 C 2.66667 km/h
2427 14-05-2015 06:00:00 8.45 C 7.17 g/m*3 8.45 C 0.93333 km/h
2428 14-05-2015 07:00:00 8.55833 C 7.32 g/m*3 8.56 C 1.46667 km/h
2429 14-05-2015 08:00:00 10.04167 C 7.72 g/m*3 10.04 C 0.93333 km/h
2430 14-05-2015 09:00:00 10.98333 C 7.87 g/m*3 10.98 C 2.4 km/h
2431 14-05-2015 10:00:00 13.125 C 8.23 g/m*3 13.13 C 3.46667 km/h
2432 14-05-2015 11:00:00 15.76667 C 8.44 g/m*3 15.77 C 3.33333 km/h
2433 14-05-2015 12:00:00 17.50833 C 8.5 g/m*3 17.51 C 4.14167 km/h
2434 14-05-2015 13:00:00 18.36667 C 8.15 g/m*3 18.37 C 4.98889 km/h
2435 14-05-2015 14:00:00 19.84167 C 8.16 g/m*3 19.84 C 6.425 km/h
2436 14-05-2015 15:00:00 21.16667 C 8.17 g/m*3 21.17 C 6.3 km/h
2437 14-05-2015 16:00:00 20 C 8.01 g/m*3 20 C 5.21667 km/h
2438 14-05-2015 17:00:00 19.475 C 9.05 g/m*3 19.48 C 3.075 km/h
2439 14-05-2015 18:00:00 16.54167 C 11.19 g/m*3 16.54 C 0.66667 km/h
2440 14-05-2015 19:00:00 14.89167 C 11.07 g/m*3 14.89 C 0.26667 km/h
2441 14-05-2015 20:00:00 13.78333 C 10.96 g/m*3 13.78 C 0.4 km/h
2442 14-05-2015 21:00:00 13.35 C 10.87 g/m*3 13.35 C 0.26667 km/h
2443 14-05-2015 22:00:00 13.25 C 10.92 g/m*3 13.25 C 0 km/h
2444 14-05-2015 23:00:00 13.25833 C 10.95 g/m*3 13.26 C 0 km/h
2445 15-05-2015 00:00:00 12.50833 C 10.45 g/m*3 12.51 C 0 km/h
2446 15-05-2015 01:00:00 12.63333 C 10.63 g/m*3 12.63 C 0 km/h
2447 15-05-2015 02:00:00 12.65 C 10.65 g/m*3 12.65 C 0 km/h
2448 15-05-2015 03:00:00 12.63333 C 10.64 g/m*3 12.63 C 0 km/h
2449 15-05-2015 04:00:00 12.56667 C 10.6 g/m*3 12.57 C 0 km/h
2450 15-05-2015 05:00:00 11.99167 C 10.23 g/m*3 11.99 C 0.26667 km/h
Sensor: Nr:Datum:Temp:Abs-Feuchte:Windchill:Wind:
Aussen-T/F 2451 15-05-2015 06:00:00 11.4 C 9.85 g/m*3 11.4 C 0.66667 km/h
2452 15-05-2015 07:00:00 11.34167 C 9.82 g/m*3 11.34 C 0 km/h
2453 15-05-2015 08:00:00 11.56667 C 9.87 g/m*3 11.57 C 0.8 km/h
2454 15-05-2015 09:00:00 12.48333 C 10.15 g/m*3 12.48 C 5.08333 km/h
2455 15-05-2015 10:00:00 12.94167 C 9.95 g/m*3 12.94 C 9.275 km/h
2456 15-05-2015 11:00:00 13.725 C 10.21 g/m*3 13.73 C 9.275 km/h
2457 15-05-2015 12:00:00 15.11667 C 10.54 g/m*3 15.12 C 10.9 km/h
2458 15-05-2015 13:00:00 17.7 C 10.88 g/m*3 17.7 C 10.1 km/h
2459 15-05-2015 14:00:00 19.13333 C 10.33 g/m*3 19.13 C 14.1 km/h
2460 15-05-2015 15:00:00 20.26667 C 10.43 g/m*3 20.27 C 13.16667 km/h
2461 15-05-2015 16:00:00 21.175 C 9.75 g/m*3 21.18 C 12.36667 km/h
2462 15-05-2015 17:00:00 21.20833 C 9.29 g/m*3 21.21 C 15.43333 km/h
2463 15-05-2015 18:00:00 20.76667 C 9.01 g/m*3 20.77 C 13.16667 km/h
2464 15-05-2015 19:00:00 19.1 C 8.65 g/m*3 19.1 C 10.625 km/h
2465 15-05-2015 20:00:00 17.08333 C 8.17 g/m*3 17.08 C 10.49167 km/h
2466 15-05-2015 21:00:00 15.03333 C 7.88 g/m*3 15.03 C 5.90833 km/h
2467 15-05-2015 22:00:00 13.58333 C 7.64 g/m*3 13.58 C 5.35833 km/h
2468 15-05-2015 23:00:00 12.08333 C 7.54 g/m*3 12.08 C 1.46667 km/h
2469 16-05-2015 00:00:00 10.73333 C 7.36 g/m*3 10.73 C 1.46667 km/h
2470 16-05-2015 01:00:00 9.93333 C 7.28 g/m*3 9.93 C 0.13333 km/h
2471 16-05-2015 02:00:00 8.775 C 7.2 g/m*3 8.78 C 0 km/h
2472 16-05-2015 03:00:00 8.05833 C 7.19 g/m*3 8.06 C 0.8 km/h
2473 16-05-2015 04:00:00 7.48333 C 7.09 g/m*3 7.48 C 0.53333 km/h
2474 16-05-2015 05:00:00 6.84167 C 6.93 g/m*3 6.84 C 0.4 km/h
2475 16-05-2015 06:00:00 6.525 C 6.93 g/m*3 6.53 C 1.06667 km/h
Sensor: Nr:Datum:Temp:Abs-Feuchte:Windchill:Wind:
Aussen-T/F 2476 16-05-2015 07:00:00 6.79167 C 7.05 g/m*3 6.79 C 1.2 km/h
2477 16-05-2015 08:00:00 9 C 7.63 g/m*3 8.55 C 5.225 km/h
2478 16-05-2015 09:00:00 11.20833 C 7.93 g/m*3 11.21 C 6.15833 km/h
2479 16-05-2015 10:00:00 12.53333 C 8.1 g/m*3 12.53 C 5.48333 km/h
2480 16-05-2015 11:00:00 13.39167 C 8.46 g/m*3 13.39 C 4.675 km/h
2481 16-05-2015 12:00:00 14.29167 C 8.38 g/m*3 14.29 C 8.05 km/h
2482 16-05-2015 13:00:00 15.11667 C 8.33 g/m*3 15.12 C 9.80833 km/h
2483 16-05-2015 14:00:00 15.175 C 8.31 g/m*3 15.18 C 12.36667 km/h
2484 16-05-2015 15:00:00 14.99167 C 8.62 g/m*3 14.99 C 9.94167 km/h
2485 16-05-2015 16:00:00 15.68333 C 9.07 g/m*3 15.68 C 5.34167 km/h
2486 16-05-2015 17:00:00 15.85833 C 9.69 g/m*3 15.86 C 5.63333 km/h
2487 16-05-2015 18:00:00 14.5 C 10.03 g/m*3 14.5 C 5.225 km/h
2488 16-05-2015 19:00:00 14.175 C 10.27 g/m*3 14.18 C 1.33333 km/h
2489 16-05-2015 20:00:00 14.425 C 10.18 g/m*3 14.43 C 5.23333 km/h
2490 16-05-2015 21:00:00 14.63333 C 9.91 g/m*3 14.63 C 7.10833 km/h
2491 16-05-2015 22:00:00 14.39167 C 9.94 g/m*3 14.39 C 4.28333 km/h
2492 16-05-2015 23:00:00 13.85 C 9.95 g/m*3 13.85 C 5.225 km/h
2493 17-05-2015 00:00:00 12.91667 C 9.89 g/m*3 12.92 C 1.86667 km/h
2494 17-05-2015 01:00:00 11.93333 C 9.44 g/m*3 11.93 C 1.46667 km/h
2495 17-05-2015 02:00:00 11.20833 C 8.87 g/m*3 11.21 C 2 km/h
2496 17-05-2015 03:00:00 10.5 C 8.52 g/m*3 10.5 C 1.33333 km/h
2497 17-05-2015 04:00:00 9.31667 C 8.13 g/m*3 9.32 C 0.26667 km/h
2498 17-05-2015 05:00:00 8.48333 C 7.83 g/m*3 8.48 C 0 km/h
2499 17-05-2015 06:00:00 8.225 C 7.72 g/m*3 8.23 C 0 km/h
2500 17-05-2015 07:00:00 8.68333 C 7.9 g/m*3 8.68 C 0.26667 km/h
Sensor: Nr:Datum:Temp:Abs-Feuchte:Windchill:Wind:
Aussen-T/F 2501 17-05-2015 08:00:00 10.71667 C 8.4 g/m*3 10.72 C 2.53333 km/h
2502 17-05-2015 09:00:00 12.33333 C 8.51 g/m*3 12.33 C 4 km/h
2503 17-05-2015 10:00:00 14.575 C 7.97 g/m*3 14.58 C 5.225 km/h
2504 17-05-2015 11:00:00 16.45 C 6.92 g/m*3 16.45 C 5.5 km/h
2505 17-05-2015 12:00:00 17.75 C 7.12 g/m*3 17.75 C 8.86667 km/h
2506 17-05-2015 13:00:00 18.15 C 7.22 g/m*3 18.15 C 6.98333 km/h
2507 17-05-2015 14:00:00 17.96667 C 7.4 g/m*3 17.97 C 7.925 km/h
2508 17-05-2015 15:00:00 18.86667 C 7.61 g/m*3 18.87 C 5.075 km/h
2509 17-05-2015 16:00:00 18.94167 C 7.88 g/m*3 18.94 C 4.15 km/h
2510 17-05-2015 17:00:00 19.225 C 8.12 g/m*3 19.23 C 3.73333 km/h
2511 17-05-2015 18:00:00 20.13333 C 7.97 g/m*3 20.13 C 4 km/h
2512 17-05-2015 19:00:00 17.59167 C 9.97 g/m*3 17.59 C 0.26667 km/h
2513 17-05-2015 20:00:00 15.63333 C 9.57 g/m*3 15.63 C 0.26667 km/h
2514 17-05-2015 21:00:00 14.79167 C 9.07 g/m*3 14.79 C 0.93333 km/h
2515 17-05-2015 22:00:00 13.55 C 8.83 g/m*3 13.55 C 1.06667 km/h
2516 17-05-2015 23:00:00 12.6 C 8.52 g/m*3 12.6 C 0.26667 km/h
2517 18-05-2015 00:00:00 11.41667 C 8.21 g/m*3 11.42 C 0 km/h
2518 18-05-2015 01:00:00 10.23333 C 7.85 g/m*3 10.23 C 0 km/h
2519 18-05-2015 02:00:00 9.55 C 7.75 g/m*3 9.55 C 0.26667 km/h
2520 18-05-2015 03:00:00 8.59167 C 7.59 g/m*3 8.59 C 0 km/h
2521 18-05-2015 04:00:00 7.90833 C 7.43 g/m*3 7.91 C 0 km/h
2522 18-05-2015 05:00:00 7.325 C 7.25 g/m*3 7.33 C 0.13333 km/h
2523 18-05-2015 06:00:00 7.10833 C 7.25 g/m*3 7.11 C 0 km/h
2524 18-05-2015 07:00:00 7.54167 C 7.48 g/m*3 7.54 C 0.4 km/h
2525 18-05-2015 08:00:00 9.475 C 8.2 g/m*3 9.48 C 0 km/h
Sensor: Nr:Datum:Temp:Abs-Feuchte:Windchill:Wind:
Aussen-T/F 2526 18-05-2015 09:00:00 11.54167 C 8.93 g/m*3 11.54 C 0.8 km/h
2527 18-05-2015 10:00:00 15.3 C 9.36 g/m*3 15.3 C 10.34167 km/h
2528 18-05-2015 11:00:00 17.9 C 8.82 g/m*3 17.9 C 15.425 km/h
2529 18-05-2015 12:00:00 18.90833 C 8.43 g/m*3 18.91 C 15.56667 km/h
2530 18-05-2015 13:00:00 20.54167 C 8.16 g/m*3 20.54 C 15.975 km/h
2531 18-05-2015 14:00:00 21.96667 C 7.75 g/m*3 21.97 C 15.96667 km/h
2532 18-05-2015 15:00:00 22.78333 C 7.31 g/m*3 22.78 C 17.84167 km/h
2533 18-05-2015 16:00:00 23.425 C 7.51 g/m*3 23.43 C 15.43333 km/h
2534 18-05-2015 17:00:00 23.39167 C 7.6 g/m*3 23.39 C 14.9 km/h
2535 18-05-2015 18:00:00 22.5 C 7.64 g/m*3 22.5 C 12.225 km/h
2536 18-05-2015 19:00:00 21.625 C 8.02 g/m*3 21.63 C 10.74167 km/h
2537 18-05-2015 20:00:00 19.625 C 8.48 g/m*3 19.63 C 3.74167 km/h
2538 18-05-2015 21:00:00 17.675 C 8.36 g/m*3 17.68 C 2.4 km/h
2539 18-05-2015 22:00:00 15.84167 C 8.64 g/m*3 15.84 C 1.6 km/h
2540 18-05-2015 23:00:00 14.43333 C 8.62 g/m*3 14.43 C 0.8 km/h
2541 19-05-2015 00:00:00 13.48333 C 8.68 g/m*3 13.48 C 3.75833 km/h
2542 19-05-2015 01:00:00 13.15833 C 9.01 g/m*3 13.16 C 6.44167 km/h
2543 19-05-2015 02:00:00 12.36667 C 8.52 g/m*3 12.37 C 5.9 km/h
2544 19-05-2015 03:00:00 11.72727 C 8.38 g/m*3 11.73 C 2.61818 km/h
2545 19-05-2015 06:00:00 8.25 C 7.31 g/m*3 8.25 C 4.8 km/h
2546 19-05-2015 07:00:00 8.55 C 7 g/m*3 7.91 C 5.625 km/h
2547 19-05-2015 08:00:00 10.43333 C 7.06 g/m*3 9.07 C 10.48333 km/h
2548 19-05-2015 09:00:00 11.125 C 6.93 g/m*3 11.13 C 12.23333 km/h
2549 19-05-2015 10:00:00 12.50833 C 6.96 g/m*3 12.51 C 11.83333 km/h
2550 19-05-2015 11:00:00 13.68333 C 6.65 g/m*3 13.68 C 14.35833 km/h
Sensor: Nr:Datum:Temp:Abs-Feuchte:Windchill:Wind:
Aussen-T/F 2551 19-05-2015 12:00:00 14.6 C 6.55 g/m*3 14.6 C 16.5 km/h
2552 19-05-2015 13:00:00 15.36667 C 6.35 g/m*3 15.37 C 15.83333 km/h
2553 19-05-2015 14:00:00 16.99167 C 6.35 g/m*3 16.99 C 18.23333 km/h
2554 19-05-2015 15:00:00 16.99167 C 6.17 g/m*3 16.99 C 15.56667 km/h
2555 19-05-2015 16:00:00 16.95833 C 6.16 g/m*3 16.96 C 15.16667 km/h
2556 19-05-2015 17:00:00 16.51667 C 6.21 g/m*3 16.52 C 13.83333 km/h
2557 19-05-2015 18:00:00 16.56667 C 6.46 g/m*3 16.57 C 12.625 km/h
2558 19-05-2015 19:00:00 16.05833 C 6.21 g/m*3 16.06 C 10.08333 km/h
2559 19-05-2015 20:00:00 14.59167 C 6.45 g/m*3 14.59 C 5.61667 km/h
2560 19-05-2015 21:00:00 13.23333 C 6.85 g/m*3 13.23 C 1.46667 km/h
2561 19-05-2015 22:00:00 11.43333 C 7.05 g/m*3 11.43 C 1.46667 km/h
2562 19-05-2015 23:00:00 11.03333 C 7.18 g/m*3 11.03 C 0.53333 km/h
2563 20-05-2015 00:00:00 10.43333 C 7.36 g/m*3 10.43 C 0.26667 km/h
2564 20-05-2015 01:00:00 10.61667 C 7.35 g/m*3 10.62 C 1.86667 km/h
2565 20-05-2015 02:00:00 10.39167 C 7.54 g/m*3 10.39 C 2.53333 km/h
2566 20-05-2015 03:00:00 9.74167 C 7.72 g/m*3 9.74 C 0.53333 km/h
2567 20-05-2015 04:00:00 9.21667 C 7.7 g/m*3 9.22 C 0.13333 km/h
2568 20-05-2015 05:00:00 8.825 C 7.6 g/m*3 8.82 C 2.68333 km/h
2569 20-05-2015 06:00:00 9.21667 C 7.66 g/m*3 9.22 C 0.26667 km/h
2570 20-05-2015 07:00:00 9.7 C 7.68 g/m*3 9.7 C 4 km/h
2571 20-05-2015 08:00:00 10.13333 C 7.58 g/m*3 9.45 C 6.70833 km/h
2572 20-05-2015 09:00:00 11.03333 C 7.47 g/m*3 11.03 C 9.54167 km/h
2573 20-05-2015 10:00:00 13.225 C 6.98 g/m*3 13.23 C 10.35 km/h
2574 20-05-2015 11:00:00 13.475 C 6.55 g/m*3 13.48 C 9.675 km/h
2575 20-05-2015 12:00:00 14.75833 C 6.4 g/m*3 14.76 C 7.78333 km/h
Sensor: Nr:Datum:Temp:Abs-Feuchte:Windchill:Wind:
Aussen-T/F 2576 20-05-2015 13:00:00 15.725 C 6.24 g/m*3 15.73 C 11.94167 km/h
2577 20-05-2015 14:00:00 14.3 C 6.76 g/m*3 14.3 C 8.6 km/h
2578 20-05-2015 15:00:00 15.95833 C 7.12 g/m*3 15.96 C 10.75 km/h
2579 20-05-2015 16:00:00 13.6 C 7.19 g/m*3 13.6 C 7.65 km/h
2580 20-05-2015 17:00:00 14.95 C 8.05 g/m*3 14.95 C 3.2 km/h
2581 20-05-2015 18:00:00 14.47778 C 7.67 g/m*3 14.48 C 3.56667 km/h
2582 20-05-2015 19:00:00 14.04167 C 7.42 g/m*3 14.04 C 5.225 km/h
2583 20-05-2015 20:00:00 13.5 C 7.46 g/m*3 13.5 C 4.00833 km/h
2584 20-05-2015 21:00:00 10.69167 C 7.28 g/m*3 10.69 C 0.66667 km/h
2585 20-05-2015 22:00:00 8.90833 C 7.03 g/m*3 8.91 C 0.66667 km/h
2586 20-05-2015 23:00:00 8.175 C 7.03 g/m*3 8.18 C 0.8 km/h
2587 21-05-2015 00:00:00 7.08333 C 6.8 g/m*3 7.08 C 0.13333 km/h
2588 21-05-2015 01:00:00 6.7 C 6.81 g/m*3 6.7 C 0.93333 km/h
2589 21-05-2015 02:00:00 5.925 C 6.6 g/m*3 5.93 C 1.46667 km/h
2590 21-05-2015 03:00:00 5.58333 C 6.54 g/m*3 5.58 C 1.46667 km/h
2591 21-05-2015 04:00:00 5.15833 C 6.39 g/m*3 5.16 C 1.6 km/h
2592 21-05-2015 05:00:00 4.45 C 6.14 g/m*3 4.45 C 1.06667 km/h
2593 21-05-2015 06:00:00 4.70833 C 6.3 g/m*3 3.47 C 5.775 km/h
2594 21-05-2015 07:00:00 5.575 C 6.66 g/m*3 3.9 C 7.65833 km/h
2595 21-05-2015 08:00:00 7.25 C 7.11 g/m*3 5.86 C 7.65833 km/h
2596 21-05-2015 09:00:00 9.65833 C 7.59 g/m*3 9.22 C 5.48333 km/h
2597 21-05-2015 10:00:00 12.49167 C 7.97 g/m*3 12.49 C 5.09167 km/h
2598 21-05-2015 11:00:00 13.35833 C 7.98 g/m*3 13.36 C 6.56667 km/h
2599 21-05-2015 12:00:00 15.04167 C 7.15 g/m*3 15.04 C 8.46667 km/h
2600 21-05-2015 13:00:00 16.30833 C 6.78 g/m*3 16.31 C 11.025 km/h
Sensor: Nr:Datum:Temp:Abs-Feuchte:Windchill:Wind:
Aussen-T/F 2601 21-05-2015 14:00:00 17.23333 C 6.46 g/m*3 17.23 C 10.60833 km/h
2602 21-05-2015 15:00:00 17.1 C 6.4 g/m*3 17.1 C 7.65833 km/h
2603 21-05-2015 16:00:00 18.375 C 6.35 g/m*3 18.38 C 8.86667 km/h
2604 21-05-2015 17:00:00 18.68333 C 6.24 g/m*3 18.68 C 8.075 km/h
2605 21-05-2015 18:00:00 18.58333 C 6.21 g/m*3 18.58 C 6.84167 km/h
2606 21-05-2015 19:00:00 18.23333 C 6.44 g/m*3 18.23 C 9.69167 km/h
2607 21-05-2015 20:00:00 15.93333 C 7.15 g/m*3 15.93 C 4.15 km/h
2608 21-05-2015 21:00:00 12.53333 C 7.55 g/m*3 12.53 C 1.86667 km/h
2609 21-05-2015 22:00:00 11.625 C 7.56 g/m*3 11.63 C 0.93333 km/h
2610 21-05-2015 23:00:00 10.99167 C 7.64 g/m*3 10.99 C 0 km/h
2611 22-05-2015 00:00:00 10.925 C 7.7 g/m*3 10.93 C 0 km/h
2612 22-05-2015 01:00:00 11.1 C 7.77 g/m*3 11.1 C 1.06667 km/h
2613 22-05-2015 02:00:00 10.73333 C 7.86 g/m*3 10.73 C 0 km/h
2614 22-05-2015 03:00:00 9.69167 C 7.75 g/m*3 9.69 C 0.13333 km/h
2615 22-05-2015 04:00:00 9.55833 C 7.81 g/m*3 9.56 C 0.26667 km/h
2616 22-05-2015 05:00:00 9.025 C 7.72 g/m*3 9.03 C 0.13333 km/h
2617 22-05-2015 06:00:00 8.76667 C 7.71 g/m*3 8.77 C 0 km/h
2618 22-05-2015 07:00:00 9.86667 C 8.08 g/m*3 9.87 C 1.33333 km/h
2619 22-05-2015 08:00:00 12.9 C 8.67 g/m*3 12.9 C 0.26667 km/h
2620 22-05-2015 09:00:00 13.59167 C 8.69 g/m*3 13.59 C 1.46667 km/h
2621 22-05-2015 10:00:00 15.81667 C 8.67 g/m*3 15.82 C 2.66667 km/h
2622 22-05-2015 11:00:00 18.10833 C 8.61 g/m*3 18.11 C 4.4 km/h
2623 22-05-2015 12:00:00 19.09167 C 8.14 g/m*3 19.09 C 6.29167 km/h
2624 22-05-2015 13:00:00 20.4 C 7.71 g/m*3 20.4 C 7.10833 km/h
2625 22-05-2015 14:00:00 21.525 C 7.24 g/m*3 21.53 C 7.38333 km/h
Sensor: Nr:Datum:Temp:Abs-Feuchte:Windchill:Wind:
Aussen-T/F 2626 22-05-2015 15:00:00 22.34167 C 6.89 g/m*3 22.34 C 5.9 km/h
2627 22-05-2015 16:00:00 22.98333 C 6.11 g/m*3 22.98 C 6.575 km/h
2628 22-05-2015 17:00:00 23.21667 C 5.91 g/m*3 23.22 C 7.38333 km/h
2629 22-05-2015 18:00:00 23.025 C 6.62 g/m*3 23.03 C 6.7 km/h
2630 22-05-2015 19:00:00 20.41667 C 7.57 g/m*3 20.42 C 2.675 km/h
2631 22-05-2015 20:00:00 19.50833 C 7.5 g/m*3 19.51 C 4.41667 km/h
2632 22-05-2015 21:00:00 16.43333 C 7.6 g/m*3 16.43 C 1.06667 km/h
2633 22-05-2015 22:00:00 14.45 C 7.83 g/m*3 14.45 C 0.93333 km/h
2634 22-05-2015 23:00:00 14.45833 C 8.29 g/m*3 14.46 C 0 km/h
2635 23-05-2015 00:00:00 13.95 C 8.47 g/m*3 13.95 C 0 km/h
2636 23-05-2015 01:00:00 13.20833 C 8.44 g/m*3 13.21 C 0 km/h
2637 23-05-2015 02:00:00 12.68333 C 8.41 g/m*3 12.68 C 0.26667 km/h
2638 23-05-2015 03:00:00 12.275 C 8.46 g/m*3 12.28 C 0 km/h
2639 23-05-2015 04:00:00 12.41667 C 8.52 g/m*3 12.42 C 0.26667 km/h
2640 23-05-2015 05:00:00 11.83333 C 8.45 g/m*3 11.83 C 0 km/h
2641 23-05-2015 06:00:00 11.875 C 8.73 g/m*3 11.88 C 0.26667 km/h
2642 23-05-2015 07:00:00 12.45 C 8.91 g/m*3 12.45 C 0.66667 km/h
2643 23-05-2015 08:00:00 13.35833 C 9.11 g/m*3 13.36 C 0.53333 km/h
2644 23-05-2015 09:00:00 14.5 C 9.29 g/m*3 14.5 C 3.34167 km/h
2645 23-05-2015 10:00:00 15.84167 C 9.6 g/m*3 15.84 C 4.13333 km/h
2646 23-05-2015 11:00:00 16.85 C 9.87 g/m*3 16.85 C 4.275 km/h
2647 23-05-2015 12:00:00 18.14167 C 10.15 g/m*3 18.14 C 5.75833 km/h
2648 23-05-2015 13:00:00 19.8 C 9.91 g/m*3 19.8 C 8.59167 km/h
2649 23-05-2015 14:00:00 20.26667 C 9.68 g/m*3 20.27 C 7.65833 km/h
2650 23-05-2015 15:00:00 19.51667 C 9.79 g/m*3 19.52 C 5.34167 km/h
Sensor: Nr:Datum:Temp:Abs-Feuchte:Windchill:Wind:
Aussen-T/F 2651 23-05-2015 16:00:00 19.76667 C 9.49 g/m*3 19.77 C 5.89167 km/h
2652 23-05-2015 17:00:00 19.56667 C 9.73 g/m*3 19.57 C 4.275 km/h
2653 23-05-2015 18:00:00 17.95833 C 10.79 g/m*3 17.96 C 0.13333 km/h
2654 23-05-2015 19:00:00 17.475 C 11.04 g/m*3 17.48 C 0 km/h
2655 23-05-2015 20:00:00 17.5 C 10.03 g/m*3 17.5 C 4.28333 km/h
2656 23-05-2015 21:00:00 17.30833 C 10.73 g/m*3 17.31 C 6.55833 km/h
2657 23-05-2015 22:00:00 16.325 C 10.83 g/m*3 16.33 C 6.44167 km/h
2658 23-05-2015 23:00:00 15.6 C 10.64 g/m*3 15.6 C 5.63333 km/h
2659 24-05-2015 00:00:00 14.95 C 10.56 g/m*3 14.95 C 3.2 km/h
2660 24-05-2015 01:00:00 14.51667 C 10.46 g/m*3 14.52 C 2 km/h
2661 24-05-2015 02:00:00 14.24167 C 10.28 g/m*3 14.24 C 3.33333 km/h
2662 24-05-2015 03:00:00 13.95833 C 10.21 g/m*3 13.96 C 1.86667 km/h
2663 24-05-2015 04:00:00 13.24167 C 10.09 g/m*3 13.24 C 0.26667 km/h
2664 24-05-2015 05:00:00 13.2 C 10.13 g/m*3 13.2 C 0.4 km/h
2665 24-05-2015 06:00:00 13.23333 C 10.17 g/m*3 13.23 C 0.13333 km/h
2666 24-05-2015 07:00:00 13.61667 C 10.21 g/m*3 13.62 C 0.93333 km/h
2667 24-05-2015 08:00:00 14.06667 C 10.38 g/m*3 14.07 C 3.6 km/h
2668 24-05-2015 09:00:00 14.675 C 10.43 g/m*3 14.68 C 3.46667 km/h
2669 24-05-2015 10:00:00 15.15833 C 10.5 g/m*3 15.16 C 2.53333 km/h
2670 24-05-2015 11:00:00 16.05833 C 10.78 g/m*3 16.06 C 2.8 km/h
2671 24-05-2015 12:00:00 18.25833 C 11.33 g/m*3 18.26 C 4.66667 km/h
2672 24-05-2015 13:00:00 20.51667 C 11.4 g/m*3 20.52 C 6.98333 km/h
2673 24-05-2015 14:00:00 22.1 C 11.32 g/m*3 22.1 C 6.56667 km/h
2674 24-05-2015 15:00:00 23.45 C 10.35 g/m*3 23.45 C 8.325 km/h
2675 24-05-2015 16:00:00 22.875 C 10.65 g/m*3 22.88 C 7.25 km/h
Sensor: Nr:Datum:Temp:Abs-Feuchte:Windchill:Wind:
Aussen-T/F 2676 24-05-2015 17:00:00 22.54167 C 10.9 g/m*3 22.54 C 3.075 km/h
2677 24-05-2015 18:00:00 22.99167 C 10.7 g/m*3 22.99 C 7.66667 km/h
2678 24-05-2015 19:00:00 20.4 C 10.64 g/m*3 20.4 C 4.81667 km/h
2679 24-05-2015 20:00:00 17.85833 C 11.58 g/m*3 17.86 C 0.8 km/h
2680 24-05-2015 21:00:00 16.21667 C 11.81 g/m*3 16.22 C 3.08333 km/h
2681 24-05-2015 22:00:00 15.21667 C 11.93 g/m*3 15.22 C 1.2 km/h
2682 24-05-2015 23:00:00 14.5125 C 11.68 g/m*3 14.51 C 0.4 km/h
2683 25-05-2015 00:00:00 13.89167 C 11.27 g/m*3 13.89 C 0.13333 km/h
2684 25-05-2015 01:00:00 13.125 C 10.86 g/m*3 13.13 C 0.4 km/h
2685 25-05-2015 02:00:00 12.475 C 10.44 g/m*3 12.48 C 0.53333 km/h
2686 25-05-2015 03:00:00 11.61667 C 9.89 g/m*3 11.62 C 0.8 km/h
2687 25-05-2015 04:00:00 10.49167 C 9.21 g/m*3 10.49 C 0.66667 km/h
2688 25-05-2015 10:00:00 15.1 C 9.89 g/m*3 15.1 C 0.53333 km/h
2689 25-05-2015 11:00:00 15.31667 C 9.98 g/m*3 15.32 C 3.35 km/h
2690 25-05-2015 12:00:00 14.65714 C 9.83 g/m*3 14.66 C 4.6 km/h
2691 25-05-2015 14:00:00 15.375 C 10.94 g/m*3 15.38 C 2 km/h
2692 25-05-2015 15:00:00 15.56 C 11.38 g/m*3 15.56 C 0.64 km/h
2693 25-05-2015 16:00:00 16.45 C 11.34 g/m*3 16.45 C 2.26667 km/h
2694 25-05-2015 17:00:00 15.75 C 11.05 g/m*3 15.75 C 3.61667 km/h
2695 25-05-2015 18:00:00 14.94167 C 11.56 g/m*3 14.94 C 3.75 km/h
2696 25-05-2015 19:00:00 16 C 11.58 g/m*3 16 C 2 km/h
2697 25-05-2015 22:00:00 11.725 C 9.7 g/m*3 11.73 C 4.425 km/h
2698 25-05-2015 23:00:00 12.36667 C 9.44 g/m*3 12.37 C 4.95 km/h
2699 26-05-2015 00:00:00 11.625 C 9.07 g/m*3 11.63 C 4.68333 km/h
2700 26-05-2015 01:00:00 11.575 C 8.85 g/m*3 11.58 C 5.5 km/h
Sensor: Nr:Datum:Temp:Abs-Feuchte:Windchill:Wind:
Aussen-T/F 2701 26-05-2015 02:00:00 11.11667 C 8.54 g/m*3 11.12 C 4.29167 km/h
2702 26-05-2015 03:00:00 10.25833 C 8.45 g/m*3 10.26 C 1.2 km/h
2703 26-05-2015 04:00:00 10.36667 C 8.37 g/m*3 10.37 C 2.26667 km/h
2704 26-05-2015 05:00:00 10.10833 C 8.14 g/m*3 10.11 C 1.73333 km/h
2705 26-05-2015 06:00:00 9.875 C 8.01 g/m*3 9.88 C 3.2 km/h
2706 26-05-2015 07:00:00 10.16667 C 8.03 g/m*3 10.17 C 4.95 km/h
2707 26-05-2015 08:00:00 10.75833 C 8.17 g/m*3 10.37 C 5.89167 km/h
2708 26-05-2015 09:00:00 12.16667 C 8.09 g/m*3 12.17 C 10.75 km/h
2709 26-05-2015 10:00:00 13.25 C 7.7 g/m*3 13.25 C 9.81667 km/h
2710 26-05-2015 11:00:00 13.23333 C 7.2 g/m*3 13.23 C 11.55833 km/h
2711 26-05-2015 12:00:00 12.725 C 6.97 g/m*3 12.73 C 10.35833 km/h
2712 26-05-2015 13:00:00 13.15 C 6.93 g/m*3 13.15 C 8.46667 km/h
2713 26-05-2015 14:00:00 14.125 C 7.04 g/m*3 14.13 C 7.10833 km/h
2714 26-05-2015 15:00:00 13.80833 C 6.9 g/m*3 13.81 C 8.06667 km/h
2715 26-05-2015 16:00:00 13.7 C 6.93 g/m*3 13.7 C 6.29167 km/h
2716 26-05-2015 17:00:00 14.01667 C 7.32 g/m*3 14.02 C 4.40833 km/h
2717 26-05-2015 18:00:00 13.31667 C 8.26 g/m*3 13.32 C 0.53333 km/h
2718 26-05-2015 19:00:00 12.5 C 8.74 g/m*3 12.5 C 0 km/h
2719 26-05-2015 20:00:00 11.775 C 8.66 g/m*3 11.78 C 0.13333 km/h
2720 26-05-2015 21:00:00 11.11667 C 8.4 g/m*3 11.12 C 0 km/h
2721 26-05-2015 22:00:00 10.81667 C 8.03 g/m*3 10.82 C 0.8 km/h
2722 26-05-2015 23:00:00 9.475 C 7.64 g/m*3 9.48 C 0.13333 km/h
2723 27-05-2015 00:00:00 9.1 C 7.31 g/m*3 9.1 C 0.8 km/h
2724 27-05-2015 01:00:00 8.225 C 7.09 g/m*3 8.23 C 0 km/h
2725 27-05-2015 02:00:00 7.24167 C 6.91 g/m*3 7.24 C 0.26667 km/h
Sensor: Nr:Datum:Temp:Abs-Feuchte:Windchill:Wind:
Aussen-T/F 2726 27-05-2015 03:00:00 6.34167 C 6.77 g/m*3 6.34 C 0.66667 km/h
2727 27-05-2015 04:00:00 6.625 C 6.94 g/m*3 6.63 C 2.66667 km/h
2728 27-05-2015 05:00:00 7.06667 C 7.08 g/m*3 7.07 C 2 km/h
2729 27-05-2015 06:00:00 7.375 C 7.23 g/m*3 7.38 C 2.13333 km/h
2730 27-05-2015 07:00:00 8.09167 C 7.51 g/m*3 8.09 C 3.89167 km/h
2731 27-05-2015 08:00:00 9.45 C 7.77 g/m*3 9.45 C 4.00833 km/h
2732 27-05-2015 09:00:00 10.70833 C 7.71 g/m*3 10.71 C 3.2 km/h
2733 27-05-2015 10:00:00 11.775 C 7.47 g/m*3 11.78 C 4.54167 km/h
2734 27-05-2015 11:00:00 12.85833 C 6.59 g/m*3 12.86 C 3.34167 km/h
2735 27-05-2015 12:00:00 13.08333 C 6.64 g/m*3 13.08 C 4.81667 km/h
2736 27-05-2015 13:00:00 14.25833 C 6.88 g/m*3 14.26 C 4.275 km/h
2737 27-05-2015 14:00:00 15.45 C 6.78 g/m*3 15.45 C 5.48333 km/h
2738 27-05-2015 15:00:00 15.625 C 6.65 g/m*3 15.63 C 3.46667 km/h
2739 27-05-2015 16:00:00 16.99167 C 6.76 g/m*3 16.99 C 6.45 km/h
2740 27-05-2015 17:00:00 17.425 C 6.68 g/m*3 17.43 C 4.40833 km/h
2741 27-05-2015 18:00:00 17.45 C 6.74 g/m*3 17.45 C 4.66667 km/h
2742 27-05-2015 19:00:00 16.95 C 6.66 g/m*3 16.95 C 4.80833 km/h
2743 27-05-2015 20:00:00 15.34167 C 7.43 g/m*3 15.34 C 0.93333 km/h
2744 27-05-2015 21:00:00 11.66667 C 7.68 g/m*3 11.67 C 0.13333 km/h
2745 27-05-2015 22:00:00 10.525 C 7.4 g/m*3 10.53 C 0.53333 km/h
2746 27-05-2015 23:00:00 9.725 C 7.23 g/m*3 9.73 C 0.26667 km/h
2747 28-05-2015 00:00:00 9.1 C 7.15 g/m*3 9.1 C 0 km/h
2748 28-05-2015 01:00:00 8.85 C 7.04 g/m*3 8.85 C 0 km/h
2749 28-05-2015 02:00:00 7.98333 C 6.89 g/m*3 7.98 C 0 km/h
2750 28-05-2015 03:00:00 7.60833 C 6.86 g/m*3 7.61 C 0 km/h
Sensor: Nr:Datum:Temp:Abs-Feuchte:Windchill:Wind:
Aussen-T/F 2751 28-05-2015 04:00:00 7.34167 C 6.93 g/m*3 7.34 C 0 km/h
2752 28-05-2015 05:00:00 7.38333 C 7.06 g/m*3 7.38 C 0.4 km/h
2753 28-05-2015 06:00:00 8.30833 C 7.38 g/m*3 8.31 C 0.66667 km/h
2754 28-05-2015 07:00:00 9.35833 C 7.79 g/m*3 9.36 C 0.93333 km/h
2755 28-05-2015 08:00:00 11.275 C 8.1 g/m*3 11.28 C 0.26667 km/h
2756 28-05-2015 09:00:00 12.35 C 8.38 g/m*3 12.35 C 0.8 km/h
2757 28-05-2015 10:00:00 14.56667 C 8.85 g/m*3 14.57 C 4.95 km/h
2758 28-05-2015 11:00:00 17.725 C 9.15 g/m*3 17.73 C 12.23333 km/h
2759 28-05-2015 12:00:00 19.26667 C 9.52 g/m*3 19.27 C 11.7 km/h
2760 28-05-2015 13:00:00 21.06667 C 9.35 g/m*3 21.07 C 14.9 km/h
2761 28-05-2015 14:00:00 19.15 C 9.07 g/m*3 19.15 C 9.26667 km/h
2762 28-05-2015 15:00:00 19.15 C 9.48 g/m*3 19.15 C 6.7 km/h
2763 28-05-2015 16:00:00 19.63333 C 9.39 g/m*3 19.63 C 12.34167 km/h
2764 28-05-2015 17:00:00 20.06667 C 9.47 g/m*3 20.07 C 10.35833 km/h
2765 28-05-2015 18:00:00 20.125 C 9.2 g/m*3 20.13 C 9.80833 km/h
2766 28-05-2015 19:00:00 19 C 8.81 g/m*3 19 C 13.83333 km/h
2767 28-05-2015 20:00:00 17.575 C 8.55 g/m*3 17.58 C 7.39167 km/h
2768 28-05-2015 21:00:00 15.98333 C 8.57 g/m*3 15.98 C 1.6 km/h
2769 28-05-2015 22:00:00 14.825 C 8.61 g/m*3 14.83 C 1.73333 km/h
2770 28-05-2015 23:00:00 13.575 C 8.74 g/m*3 13.58 C 0.26667 km/h
2771 29-05-2015 00:00:00 13.24167 C 9.01 g/m*3 13.24 C 0.4 km/h
2772 29-05-2015 01:00:00 12.35833 C 8.81 g/m*3 12.36 C 0.8 km/h
2773 29-05-2015 02:00:00 12.55 C 8.16 g/m*3 12.55 C 2.13333 km/h
2774 29-05-2015 03:00:00 11.21667 C 7.86 g/m*3 11.22 C 0.53333 km/h
2775 29-05-2015 04:00:00 9.525 C 7.48 g/m*3 9.53 C 0.66667 km/h
Sensor: Nr:Datum:Temp:Abs-Feuchte:Windchill:Wind:
Aussen-T/F 2776 29-05-2015 05:00:00 8.85 C 7.48 g/m*3 8.85 C 0.66667 km/h
2777 29-05-2015 06:00:00 8.74167 C 7.65 g/m*3 8.74 C 2.41667 km/h
2778 29-05-2015 07:00:00 9.425 C 7.96 g/m*3 9.43 C 4.15 km/h
2779 29-05-2015 08:00:00 11.43333 C 8.44 g/m*3 11.43 C 3.06667 km/h
2780 29-05-2015 09:00:00 13.74167 C 8.29 g/m*3 13.74 C 8.34167 km/h
2781 29-05-2015 10:00:00 13.29167 C 8.43 g/m*3 13.29 C 5.91667 km/h
2782 29-05-2015 11:00:00 14.34167 C 8.6 g/m*3 14.34 C 4.01667 km/h
2783 29-05-2015 12:00:00 15.64167 C 9.29 g/m*3 15.64 C 6.025 km/h
2784 29-05-2015 13:00:00 15.71667 C 9.43 g/m*3 15.72 C 8.61667 km/h
2785 29-05-2015 14:00:00 14.55455 C 9.62 g/m*3 14.55 C 6 km/h
2786 29-05-2015 15:00:00 13.66667 C 10.52 g/m*3 13.67 C 1.6 km/h
2787 29-05-2015 16:00:00 14.31667 C 10.59 g/m*3 14.32 C 7.79167 km/h
2788 29-05-2015 17:00:00 15.46667 C 10.69 g/m*3 15.47 C 10.34167 km/h
2789 29-05-2015 18:00:00 16.35 C 10.19 g/m*3 16.35 C 13.425 km/h
2790 29-05-2015 19:00:00 16.05 C 9.24 g/m*3 16.05 C 11.15 km/h
2791 29-05-2015 20:00:00 15.24167 C 8.62 g/m*3 15.24 C 9.26667 km/h
2792 29-05-2015 21:00:00 14.8 C 8.41 g/m*3 14.8 C 7.91667 km/h
2793 29-05-2015 22:00:00 14.4 C 8.16 g/m*3 14.4 C 4.55833 km/h
2794 29-05-2015 23:00:00 13.95 C 8.47 g/m*3 13.95 C 2.13333 km/h
2795 30-05-2015 00:00:00 13.225 C 8.57 g/m*3 13.23 C 1.2 km/h
2796 30-05-2015 01:00:00 12.20833 C 8.72 g/m*3 12.21 C 8.30833 km/h
2797 30-05-2015 02:00:00 9.88333 C 8.5 g/m*3 9.88 C 2.26667 km/h
2798 30-05-2015 03:00:00 9.40833 C 8.32 g/m*3 9.41 C 2.26667 km/h
2799 30-05-2015 04:00:00 9.125 C 8.19 g/m*3 9.13 C 2.4 km/h
2800 30-05-2015 05:00:00 9.025 C 8.01 g/m*3 9.03 C 2.13333 km/h
Sensor: Nr:Datum:Temp:Abs-Feuchte:Windchill:Wind:
Aussen-T/F 2801 30-05-2015 06:00:00 8.46667 C 7.92 g/m*3 8.47 C 0.4 km/h
2802 30-05-2015 07:00:00 8.94167 C 8.13 g/m*3 8.94 C 4.41667 km/h
2803 30-05-2015 08:00:00 11.15833 C 8.5 g/m*3 11.16 C 5.75833 km/h
2804 30-05-2015 09:00:00 12.14167 C 8.15 g/m*3 12.14 C 10.60833 km/h
2805 30-05-2015 10:00:00 13.21667 C 7.67 g/m*3 13.22 C 12.625 km/h
2806 30-05-2015 11:00:00 14.4 C 7.47 g/m*3 14.4 C 14.63333 km/h
2807 30-05-2015 12:00:00 15.40833 C 6.88 g/m*3 15.41 C 15.56667 km/h
2808 30-05-2015 13:00:00 16.225 C 6.74 g/m*3 16.23 C 15.56667 km/h
2809 30-05-2015 14:00:00 16.8 C 6.45 g/m*3 16.8 C 15.3 km/h
2810 30-05-2015 15:00:00 17.31667 C 6.93 g/m*3 17.32 C 15.43333 km/h
2811 30-05-2015 16:00:00 16.34167 C 6.43 g/m*3 16.34 C 13.15 km/h
2812 30-05-2015 17:00:00 16.525 C 7.09 g/m*3 16.52 C 10.625 km/h
2813 30-05-2015 18:00:00 15.29167 C 7.62 g/m*3 15.29 C 6.425 km/h
2814 30-05-2015 19:00:00 14.80833 C 7.64 g/m*3 14.81 C 6.16667 km/h
2815 30-05-2015 20:00:00 14.11667 C 7.82 g/m*3 14.12 C 2.93333 km/h
2816 30-05-2015 21:00:00 11.16667 C 7.74 g/m*3 11.17 C 0.53333 km/h
2817 30-05-2015 22:00:00 10 C 7.62 g/m*3 10 C 0 km/h
2818 30-05-2015 23:00:00 8.71667 C 7.36 g/m*3 8.72 C 0 km/h
2819 31-05-2015 00:00:00 7.86667 C 7.22 g/m*3 7.87 C 0 km/h
2820 31-05-2015 01:00:00 7.325 C 7.1 g/m*3 7.33 C 0 km/h
2821 31-05-2015 02:00:00 6.98333 C 7.09 g/m*3 6.98 C 0.26667 km/h
2822 31-05-2015 03:00:00 6.69167 C 7.01 g/m*3 6.69 C 0 km/h
2823 31-05-2015 04:00:00 6.51667 C 6.98 g/m*3 6.52 C 0 km/h
2824 31-05-2015 05:00:00 6.33333 C 6.9 g/m*3 6.33 C 0.4 km/h
2825 31-05-2015 06:00:00 6.31667 C 6.94 g/m*3 6.32 C 0.13333 km/h
Sensor: Nr:Datum:Temp:Abs-Feuchte:Windchill:Wind:
Aussen-T/F 2826 31-05-2015 07:00:00 7.85833 C 7.5 g/m*3 7.86 C 1.6 km/h
2827 31-05-2015 08:00:00 9.925 C 7.92 g/m*3 9.93 C 4.14167 km/h
2828 31-05-2015 09:00:00 12.24167 C 8.7 g/m*3 12.24 C 5.48333 km/h
2829 31-05-2015 10:00:00 16.06667 C 9.29 g/m*3 16.07 C 7.39167 km/h
2830 31-05-2015 11:00:00 18.3 C 9.26 g/m*3 18.3 C 7.38333 km/h
2831 31-05-2015 12:00:00 20.13333 C 9.3 g/m*3 20.13 C 13.83333 km/h
2832 31-05-2015 13:00:00 20.65 C 9.62 g/m*3 20.65 C 12.36667 km/h
2833 31-05-2015 14:00:00 21.25833 C 9.89 g/m*3 21.26 C 12.36667 km/h
2834 31-05-2015 15:00:00 21.9 C 10.24 g/m*3 21.9 C 10.875 km/h
2835 31-05-2015 16:00:00 21.725 C 9.98 g/m*3 21.73 C 14.23333 km/h
2836 31-05-2015 17:00:00 20.65833 C 9.76 g/m*3 20.66 C 11.15833 km/h
2837 31-05-2015 18:00:00 20.25 C 10.02 g/m*3 20.25 C 11.68333 km/h
2838 31-05-2015 19:00:00 19.29167 C 10.33 g/m*3 19.29 C 18.65 km/h
2839 31-05-2015 20:00:00 18.125 C 10.91 g/m*3 18.13 C 19.70833 km/h
2840 31-05-2015 21:00:00 17.53333 C 11.1 g/m*3 17.53 C 15.16667 km/h
2841 31-05-2015 22:00:00 17.24167 C 11.23 g/m*3 17.24 C 11.15 km/h
2842 31-05-2015 23:00:00 17.025 C 11.22 g/m*3 17.02 C 14.76667 km/h
2843 01-06-2015 00:00:00 16.575 C 11.44 g/m*3 16.58 C 13.96667 km/h
2844 01-06-2015 01:00:00 16.05 C 11.72 g/m*3 16.05 C 16.1 km/h
2845 01-06-2015 02:00:00 16.10833 C 11.85 g/m*3 16.11 C 13.56667 km/h
2846 01-06-2015 03:00:00 15.05 C 11.55 g/m*3 15.05 C 7.66667 km/h
2847 01-06-2015 04:00:00 13.04167 C 10.56 g/m*3 13.04 C 0.53333 km/h
2848 01-06-2015 05:00:00 12.35 C 10.26 g/m*3 12.35 C 0 km/h
2849 01-06-2015 06:00:00 12.225 C 10.27 g/m*3 12.23 C 0 km/h
2850 01-06-2015 07:00:00 12.05833 C 10.12 g/m*3 12.06 C 2.675 km/h
Sensor: Nr:Datum:Temp:Abs-Feuchte:Windchill:Wind:
Aussen-T/F 2851 01-06-2015 08:00:00 11.38333 C 9.62 g/m*3 11.38 C 2.13333 km/h
2852 01-06-2015 09:00:00 12.125 C 9.71 g/m*3 12.13 C 2.4 km/h
2853 01-06-2015 10:00:00 12.725 C 9.83 g/m*3 12.73 C 0.93333 km/h
2854 01-06-2015 11:00:00 13.48333 C 9.91 g/m*3 13.48 C 1.33333 km/h
2855 01-06-2015 12:00:00 14.55833 C 9.8 g/m*3 14.56 C 0.4 km/h
2856 01-06-2015 13:00:00 15.325 C 9.78 g/m*3 15.33 C 3.73333 km/h
2857 01-06-2015 14:00:00 16.525 C 9.72 g/m*3 16.52 C 6.025 km/h
2858 01-06-2015 15:00:00 17.54167 C 9.83 g/m*3 17.54 C 6.45833 km/h
2859 01-06-2015 16:00:00 18.36667 C 9.73 g/m*3 18.37 C 5.20833 km/h
2860 01-06-2015 17:00:00 18.375 C 9.62 g/m*3 18.38 C 2.93333 km/h
2861 01-06-2015 18:00:00 18.425 C 10.13 g/m*3 18.43 C 3.74167 km/h
2862 01-06-2015 19:00:00 18.775 C 9.11 g/m*3 18.77 C 10.21667 km/h
2863 01-06-2015 20:00:00 17.09167 C 9.03 g/m*3 17.09 C 3.74167 km/h
2864 01-06-2015 21:00:00 14.29167 C 8.9 g/m*3 14.29 C 2.26667 km/h
2865 01-06-2015 22:00:00 12.58333 C 8.67 g/m*3 12.58 C 2 km/h
2866 01-06-2015 23:00:00 11.76667 C 8.62 g/m*3 11.77 C 0.8 km/h
2867 02-06-2015 00:00:00 10.78333 C 8.52 g/m*3 10.78 C 0.53333 km/h
2868 02-06-2015 01:00:00 9.54167 C 8.18 g/m*3 9.54 C 0 km/h
2869 02-06-2015 02:00:00 9.1 C 8.15 g/m*3 9.1 C 0 km/h
2870 02-06-2015 03:00:00 9.275 C 8.33 g/m*3 9.28 C 0 km/h
2871 02-06-2015 04:00:00 9.78333 C 8.6 g/m*3 9.78 C 0 km/h
2872 02-06-2015 05:00:00 10.275 C 8.85 g/m*3 10.28 C 0 km/h
2873 02-06-2015 06:00:00 10.91667 C 9.19 g/m*3 10.92 C 0 km/h
2874 02-06-2015 07:00:00 11.43333 C 9.51 g/m*3 11.43 C 0 km/h
2875 02-06-2015 08:00:00 12.35 C 10.26 g/m*3 12.35 C 0.26667 km/h
Sensor: Nr:Datum:Temp:Abs-Feuchte:Windchill:Wind:
Aussen-T/F 2876 02-06-2015 09:00:00 12.91667 C 10.62 g/m*3 12.92 C 0.8 km/h
2877 02-06-2015 10:00:00 13.38333 C 10.91 g/m*3 13.38 C 0.66667 km/h
2878 02-06-2015 11:00:00 14.05833 C 11.22 g/m*3 14.06 C 2.13333 km/h
2879 02-06-2015 12:00:00 15.54167 C 10.27 g/m*3 15.54 C 7.90833 km/h
2880 02-06-2015 13:00:00 18.675 C 9.55 g/m*3 18.68 C 13.68333 km/h
2881 02-06-2015 14:00:00 22.325 C 10.2 g/m*3 22.33 C 18.23333 km/h
2882 02-06-2015 15:00:00 24.125 C 10.63 g/m*3 24.13 C 18.23333 km/h
2883 02-06-2015 16:00:00 25.04167 C 10.52 g/m*3 25.04 C 20.91667 km/h
2884 02-06-2015 17:00:00 25.6 C 10.02 g/m*3 25.6 C 19.325 km/h
2885 02-06-2015 18:00:00 25.74167 C 9.72 g/m*3 25.74 C 19.175 km/h
2886 02-06-2015 19:00:00 25.08333 C 9.94 g/m*3 25.08 C 11.54167 km/h
2887 02-06-2015 20:00:00 23.61667 C 10.13 g/m*3 23.62 C 11.41667 km/h
2888 02-06-2015 21:00:00 22.09167 C 10.23 g/m*3 22.09 C 8.59167 km/h
2889 02-06-2015 22:00:00 19.21667 C 11.16 g/m*3 19.22 C 1.46667 km/h
2890 02-06-2015 23:00:00 16.95833 C 11.19 g/m*3 16.96 C 0.4 km/h
2891 03-06-2015 00:00:00 18.26667 C 11.16 g/m*3 18.27 C 2 km/h
2892 03-06-2015 01:00:00 17.025 C 11.16 g/m*3 17.02 C 1.33333 km/h
2893 03-06-2015 02:00:00 15.04167 C 10.73 g/m*3 15.04 C 0 km/h
2894 03-06-2015 03:00:00 14.15 C 10.58 g/m*3 14.15 C 0 km/h
2895 03-06-2015 04:00:00 13.425 C 10.33 g/m*3 13.43 C 0 km/h
2896 03-06-2015 05:00:00 13.025 C 10.32 g/m*3 13.03 C 0.26667 km/h
2897 03-06-2015 06:00:00 13.43333 C 10.62 g/m*3 13.43 C 0.53333 km/h
2898 03-06-2015 07:00:00 15.25833 C 11.32 g/m*3 15.26 C 3.89167 km/h
2899 03-06-2015 08:00:00 18.125 C 11.68 g/m*3 18.13 C 10.075 km/h
2900 03-06-2015 09:00:00 18.13333 C 11.66 g/m*3 18.13 C 9.40833 km/h
Sensor: Nr:Datum:Temp:Abs-Feuchte:Windchill:Wind:
Aussen-T/F 2901 03-06-2015 10:00:00 16.65833 C 11.32 g/m*3 16.66 C 4.8 km/h
2902 03-06-2015 11:00:00 16.675 C 11.21 g/m*3 16.68 C 5.06667 km/h
2903 03-06-2015 12:00:00 18.05833 C 11.64 g/m*3 18.06 C 4.53333 km/h
2904 03-06-2015 13:00:00 20.325 C 11.95 g/m*3 20.33 C 8.04167 km/h
2905 03-06-2015 14:00:00 22.55833 C 11.17 g/m*3 22.56 C 14.36667 km/h
2906 03-06-2015 15:00:00 21.63333 C 10.18 g/m*3 21.63 C 11.96667 km/h
2907 03-06-2015 16:00:00 22.425 C 10.26 g/m*3 22.43 C 9.83333 km/h
2908 03-06-2015 17:00:00 23.575 C 9.95 g/m*3 23.58 C 11.43333 km/h
2909 03-06-2015 18:00:00 22.04167 C 9.32 g/m*3 22.04 C 10.09167 km/h
2910 03-06-2015 19:00:00 20.15833 C 9.06 g/m*3 20.16 C 10.21667 km/h
2911 03-06-2015 20:00:00 19.01667 C 8.77 g/m*3 19.02 C 6.7 km/h
2912 03-06-2015 21:00:00 17.49167 C 9.23 g/m*3 17.49 C 1.86667 km/h
2913 03-06-2015 22:00:00 15.05 C 9.36 g/m*3 15.05 C 0.4 km/h
2914 03-06-2015 23:00:00 14.44167 C 9.32 g/m*3 14.44 C 0.13333 km/h
2915 04-06-2015 00:00:00 13.275 C 8.86 g/m*3 13.28 C 0 km/h
2916 04-06-2015 01:00:00 11.875 C 8.64 g/m*3 11.88 C 0 km/h
2917 04-06-2015 02:00:00 10.96667 C 8.5 g/m*3 10.97 C 0 km/h
2918 04-06-2015 03:00:00 10.76667 C 8.63 g/m*3 10.77 C 0 km/h
2919 04-06-2015 04:00:00 10.875 C 8.74 g/m*3 10.88 C 0 km/h
2920 04-06-2015 05:00:00 10.86667 C 8.78 g/m*3 10.87 C 0 km/h
2921 04-06-2015 06:00:00 10.95 C 8.91 g/m*3 10.95 C 0 km/h
2922 04-06-2015 07:00:00 11.725 C 9.31 g/m*3 11.73 C 0 km/h
2923 04-06-2015 08:00:00 13.50833 C 9.76 g/m*3 13.51 C 0.26667 km/h
2924 04-06-2015 09:00:00 15.01667 C 10.23 g/m*3 15.02 C 1.73333 km/h
2925 04-06-2015 10:00:00 19.30833 C 10.41 g/m*3 19.31 C 5.225 km/h
Sensor: Nr:Datum:Temp:Abs-Feuchte:Windchill:Wind:
Aussen-T/F 2926 04-06-2015 11:00:00 21.53333 C 9.75 g/m*3 21.53 C 6.43333 km/h
2927 04-06-2015 12:00:00 23.125 C 10.02 g/m*3 23.13 C 6.43333 km/h
2928 04-06-2015 13:00:00 24.10833 C 10.05 g/m*3 24.11 C 7.675 km/h
2929 04-06-2015 14:00:00 25.7 C 10.45 g/m*3 25.7 C 8.2 km/h
2930 04-06-2015 15:00:00 26.08333 C 10.39 g/m*3 26.08 C 6.575 km/h
2931 04-06-2015 16:00:00 27.25833 C 10.4 g/m*3 27.26 C 8.05833 km/h
2932 04-06-2015 17:00:00 27.95 C 10.73 g/m*3 27.95 C 7.66667 km/h
2933 04-06-2015 18:00:00 27.675 C 10.55 g/m*3 27.68 C 8.06667 km/h
2934 04-06-2015 19:00:00 26.24167 C 10.24 g/m*3 26.24 C 7.11667 km/h
2935 04-06-2015 20:00:00 23.48333 C 11.59 g/m*3 23.48 C 1.875 km/h
2936 04-06-2015 21:00:00 19.36667 C 10.85 g/m*3 19.37 C 1.73333 km/h
2937 04-06-2015 22:00:00 17.45833 C 10.52 g/m*3 17.46 C 0.66667 km/h
2938 04-06-2015 23:00:00 16.05833 C 10.22 g/m*3 16.06 C 0 km/h
2939 05-06-2015 00:00:00 14.78333 C 10.01 g/m*3 14.78 C 0 km/h
2940 05-06-2015 01:00:00 13.76667 C 9.87 g/m*3 13.77 C 0.53333 km/h
2941 05-06-2015 02:00:00 12.88333 C 9.68 g/m*3 12.88 C 0 km/h
2942 05-06-2015 03:00:00 12.14167 C 9.56 g/m*3 12.14 C 0 km/h
2943 05-06-2015 04:00:00 11.60833 C 9.42 g/m*3 11.61 C 0 km/h
2944 05-06-2015 05:00:00 11.275 C 9.34 g/m*3 11.28 C 0 km/h
2945 05-06-2015 06:00:00 11.30833 C 9.45 g/m*3 11.31 C 0 km/h
2946 05-06-2015 07:00:00 12.025 C 9.92 g/m*3 12.03 C 0 km/h
2947 05-06-2015 08:00:00 15.45 C 11.22 g/m*3 15.45 C 0 km/h
2948 05-06-2015 09:00:00 17.125 C 11.91 g/m*3 17.13 C 0 km/h
2949 05-06-2015 10:00:00 19.9 C 13.07 g/m*3 19.9 C 0.26667 km/h
2950 05-06-2015 11:00:00 23.06667 C 14.27 g/m*3 23.07 C 2.13333 km/h
Sensor: Nr:Datum:Temp:Abs-Feuchte:Windchill:Wind:
Aussen-T/F 2951 05-06-2015 12:00:00 27.94167 C 14.98 g/m*3 27.94 C 5.49167 km/h
2952 05-06-2015 13:00:00 31.18333 C 14.89 g/m*3 31.18 C 7.65833 km/h
2953 05-06-2015 14:00:00 32.775 C 14.28 g/m*3 32.78 C 6.29167 km/h
2954 05-06-2015 15:00:00 33.675 C 13.96 g/m*3 33.67 C 6.825 km/h
2955 05-06-2015 16:00:00 33.64167 C 14.7 g/m*3 33.64 C 4.81667 km/h
2956 05-06-2015 17:00:00 34.63333 C 13.9 g/m*3 34.63 C 7.10833 km/h
2957 05-06-2015 18:00:00 34.3 C 14.71 g/m*3 34.3 C 6.45 km/h
2958 05-06-2015 19:00:00 30.91667 C 16.09 g/m*3 30.92 C 3.08333 km/h
2959 05-06-2015 20:00:00 26.96667 C 15.58 g/m*3 26.97 C 1.46667 km/h
2960 05-06-2015 21:00:00 24.08333 C 14.45 g/m*3 24.08 C 2.26667 km/h
2961 05-06-2015 22:00:00 22.96667 C 14.1 g/m*3 22.97 C 0.93333 km/h
2962 05-06-2015 23:00:00 22.44167 C 14.3 g/m*3 22.44 C 2.00833 km/h
2963 06-06-2015 00:00:00 23.71667 C 13.81 g/m*3 23.72 C 7.64167 km/h
2964 06-06-2015 01:00:00 20.89167 C 14.87 g/m*3 20.89 C 4.025 km/h
2965 06-06-2015 02:00:00 19.10833 C 14.77 g/m*3 19.11 C 0 km/h
2966 06-06-2015 03:00:00 19.025 C 14.8 g/m*3 19.02 C 4.00833 km/h
2967 06-06-2015 04:00:00 18.43333 C 14.56 g/m*3 18.43 C 5.35 km/h
2968 06-06-2015 05:00:00 17.65833 C 14.18 g/m*3 17.66 C 0.13333 km/h
2969 06-06-2015 06:00:00 17.46667 C 14.17 g/m*3 17.47 C 0.13333 km/h
2970 06-06-2015 07:00:00 18.16667 C 14.89 g/m*3 18.17 C 0.13333 km/h
2971 06-06-2015 08:00:00 18.90833 C 15.47 g/m*3 18.91 C 2.675 km/h
2972 06-06-2015 09:00:00 20.275 C 15.76 g/m*3 20.27 C 7.375 km/h
2973 06-06-2015 10:00:00 19.28333 C 14.11 g/m*3 19.28 C 10.23333 km/h
2974 06-06-2015 11:00:00 19.01667 C 13.57 g/m*3 19.02 C 9.94167 km/h
2975 06-06-2015 12:00:00 18.875 C 13.33 g/m*3 18.88 C 10.61667 km/h
Sensor: Nr:Datum:Temp:Abs-Feuchte:Windchill:Wind:
Aussen-T/F 2976 06-06-2015 13:00:00 18.80833 C 13.09 g/m*3 18.81 C 11.3 km/h
2977 06-06-2015 14:00:00 19.275 C 13.35 g/m*3 19.27 C 8.33333 km/h
2978 06-06-2015 15:00:00 21.64167 C 14.15 g/m*3 21.64 C 10.08333 km/h
2979 06-06-2015 16:00:00 23.675 C 13.76 g/m*3 23.68 C 9.28333 km/h
2980 06-06-2015 17:00:00 24.41667 C 13.48 g/m*3 24.42 C 9.95833 km/h
2981 06-06-2015 18:00:00 23.6 C 13.04 g/m*3 23.6 C 11.3 km/h
2982 06-06-2015 19:00:00 22.91667 C 12.56 g/m*3 22.92 C 7.25833 km/h
2983 06-06-2015 20:00:00 21.64167 C 11.74 g/m*3 21.64 C 6.41667 km/h
2984 06-06-2015 21:00:00 19.325 C 11.77 g/m*3 19.33 C 1.6 km/h
2985 06-06-2015 22:00:00 16.61667 C 11.5 g/m*3 16.62 C 0.4 km/h
2986 06-06-2015 23:00:00 15.825 C 11.04 g/m*3 15.83 C 0.66667 km/h
2987 07-06-2015 00:00:00 14.975 C 10.48 g/m*3 14.98 C 0.13333 km/h
2988 07-06-2015 01:00:00 14.15 C 10.01 g/m*3 14.15 C 0.26667 km/h
2989 07-06-2015 02:00:00 13.44167 C 9.74 g/m*3 13.44 C 0 km/h
2990 07-06-2015 03:00:00 12.58333 C 9.47 g/m*3 12.58 C 0.13333 km/h
2991 07-06-2015 04:00:00 12.21667 C 9.11 g/m*3 12.22 C 0.8 km/h
2992 07-06-2015 05:00:00 12.075 C 8.67 g/m*3 12.08 C 2 km/h
2993 07-06-2015 06:00:00 12.38333 C 8.65 g/m*3 12.38 C 0.53333 km/h
2994 07-06-2015 07:00:00 12.6 C 8.63 g/m*3 12.6 C 0.53333 km/h
2995 07-06-2015 08:00:00 13.93333 C 8.93 g/m*3 13.93 C 0.93333 km/h
2996 07-06-2015 09:00:00 15.7 C 8.54 g/m*3 15.7 C 4.68333 km/h
2997 07-06-2015 10:00:00 18.11667 C 8.76 g/m*3 18.12 C 6.83333 km/h
2998 07-06-2015 11:00:00 20.23333 C 8.93 g/m*3 20.23 C 8.58333 km/h
2999 07-06-2015 12:00:00 21.51667 C 8.84 g/m*3 21.52 C 11.15833 km/h
3000 07-06-2015 13:00:00 22.75833 C 9.19 g/m*3 22.76 C 11.56667 km/h
Sensor: Nr:Datum:Temp:Abs-Feuchte:Windchill:Wind:
Aussen-T/F 3001 07-06-2015 14:00:00 24.175 C 8.64 g/m*3 24.18 C 11.43333 km/h
3002 07-06-2015 15:00:00 24.31667 C 7.72 g/m*3 24.32 C 13.83333 km/h
3003 07-06-2015 16:00:00 25.08333 C 7.54 g/m*3 25.08 C 10.76667 km/h
3004 07-06-2015 17:00:00 25.34167 C 7.84 g/m*3 25.34 C 11.56667 km/h
3005 07-06-2015 18:00:00 24.90833 C 7.44 g/m*3 24.91 C 12.1 km/h
3006 07-06-2015 19:00:00 22.98333 C 7.58 g/m*3 22.98 C 9.28333 km/h
3007 07-06-2015 20:00:00 20.41667 C 8.16 g/m*3 20.42 C 2.94167 km/h
3008 07-06-2015 21:00:00 18.025 C 8.54 g/m*3 18.02 C 2.40833 km/h
3009 07-06-2015 22:00:00 15.95833 C 8.64 g/m*3 15.96 C 0.4 km/h
3010 07-06-2015 23:00:00 15.14167 C 8.78 g/m*3 15.14 C 0.93333 km/h
3011 08-06-2015 00:00:00 14.38333 C 8.72 g/m*3 14.38 C 0.66667 km/h
3012 08-06-2015 01:00:00 13.81667 C 8.57 g/m*3 13.82 C 0.8 km/h
3013 08-06-2015 02:00:00 13.225 C 8.32 g/m*3 13.23 C 5.36667 km/h
3014 08-06-2015 03:00:00 13.13333 C 8.23 g/m*3 13.13 C 5.63333 km/h
3015 08-06-2015 04:00:00 12.23333 C 8.24 g/m*3 12.23 C 3.475 km/h
3016 08-06-2015 05:00:00 11.61667 C 8.19 g/m*3 11.62 C 6.70833 km/h
3017 08-06-2015 06:00:00 11.15 C 8.32 g/m*3 11.15 C 2.66667 km/h
3018 08-06-2015 07:00:00 11.46667 C 8.56 g/m*3 11.47 C 3.34167 km/h
3019 08-06-2015 08:00:00 12.44167 C 8.87 g/m*3 12.44 C 5.20833 km/h
3020 08-06-2015 09:00:00 13.575 C 9.19 g/m*3 13.58 C 7.24167 km/h
3021 08-06-2015 10:00:00 14.89167 C 9.36 g/m*3 14.89 C 8.74167 km/h
3022 08-06-2015 11:00:00 16.41667 C 9.58 g/m*3 16.42 C 8.48333 km/h
3023 08-06-2015 12:00:00 18.81667 C 9.82 g/m*3 18.82 C 11.96667 km/h
3024 08-06-2015 13:00:00 20.075 C 9.65 g/m*3 20.08 C 11.3 km/h
3025 08-06-2015 14:00:00 20.95 C 9.73 g/m*3 20.95 C 12.23333 km/h
Sensor: Nr:Datum:Temp:Abs-Feuchte:Windchill:Wind:
Aussen-T/F 3026 08-06-2015 15:00:00 20.64167 C 9.15 g/m*3 20.64 C 11.56667 km/h
3027 08-06-2015 16:00:00 21.05833 C 8.85 g/m*3 21.06 C 12.75833 km/h
3028 08-06-2015 17:00:00 21.25833 C 8.68 g/m*3 21.26 C 11.7 km/h
3029 08-06-2015 18:00:00 20.79167 C 8.37 g/m*3 20.79 C 12.36667 km/h
3030 08-06-2015 19:00:00 19.5 C 8.03 g/m*3 19.5 C 11.96667 km/h
3031 08-06-2015 20:00:00 18.31667 C 7.6 g/m*3 18.32 C 14.1 km/h
3032 08-06-2015 21:00:00 16.88333 C 7.53 g/m*3 16.88 C 9.68333 km/h
3033 08-06-2015 22:00:00 16.03333 C 7.51 g/m*3 16.03 C 6.56667 km/h
3034 08-06-2015 23:00:00 15.45833 C 7.57 g/m*3 15.46 C 4.93333 km/h
3035 09-06-2015 00:00:00 14.58333 C 7.68 g/m*3 14.58 C 2.4 km/h
3036 09-06-2015 01:00:00 13.775 C 7.77 g/m*3 13.78 C 2.93333 km/h
3037 09-06-2015 02:00:00 12.75 C 7.62 g/m*3 12.75 C 3.73333 km/h
3038 09-06-2015 03:00:00 12.65 C 7.62 g/m*3 12.65 C 4.95833 km/h
3039 09-06-2015 04:00:00 12.01667 C 7.57 g/m*3 12.02 C 2.93333 km/h
3040 09-06-2015 05:00:00 11.60833 C 7.55 g/m*3 11.61 C 2.4 km/h
3041 09-06-2015 06:00:00 11.53333 C 7.63 g/m*3 11.53 C 3.74167 km/h
3042 09-06-2015 07:00:00 11.88333 C 7.86 g/m*3 11.88 C 6.15833 km/h
3043 09-06-2015 08:00:00 12.825 C 8.12 g/m*3 12.83 C 9.825 km/h
3044 09-06-2015 09:00:00 13.85833 C 8.44 g/m*3 13.86 C 9.96667 km/h
3045 09-06-2015 10:00:00 15.20833 C 8.71 g/m*3 15.21 C 9.00833 km/h
3046 09-06-2015 11:00:00 16.375 C 8.81 g/m*3 16.38 C 8.88333 km/h
3047 09-06-2015 12:00:00 16.725 C 8.65 g/m*3 16.73 C 10.48333 km/h
3048 09-06-2015 13:00:00 17.225 C 7.99 g/m*3 17.23 C 9.81667 km/h
3049 09-06-2015 14:00:00 18.075 C 8.01 g/m*3 18.08 C 12.5 km/h
3050 09-06-2015 15:00:00 18.6 C 7.59 g/m*3 18.6 C 10.625 km/h
Sensor: Nr:Datum:Temp:Abs-Feuchte:Windchill:Wind:
Aussen-T/F 3051 09-06-2015 16:00:00 18.74167 C 7.65 g/m*3 18.74 C 8.45833 km/h
3052 09-06-2015 17:00:00 19.20833 C 7.71 g/m*3 19.21 C 7.25833 km/h
3053 09-06-2015 18:00:00 18.91667 C 7.61 g/m*3 18.92 C 7.51667 km/h
3054 09-06-2015 19:00:00 18.15833 C 7.6 g/m*3 18.16 C 6.975 km/h
3055 09-06-2015 20:00:00 15.86667 C 7.81 g/m*3 15.87 C 1.33333 km/h
3056 09-06-2015 21:00:00 14.01667 C 7.78 g/m*3 14.02 C 1.2 km/h
3057 09-06-2015 22:00:00 12.50833 C 7.74 g/m*3 12.51 C 0.26667 km/h
3058 09-06-2015 23:00:00 11.64167 C 7.62 g/m*3 11.64 C 0 km/h
3059 10-06-2015 00:00:00 11.11667 C 7.66 g/m*3 11.12 C 0 km/h
3060 10-06-2015 01:00:00 11.41667 C 7.91 g/m*3 11.42 C 0 km/h
3061 10-06-2015 02:00:00 11.59167 C 8.02 g/m*3 11.59 C 0 km/h
3062 10-06-2015 03:00:00 11.775 C 8.02 g/m*3 11.78 C 0 km/h
3063 10-06-2015 04:00:00 10.9 C 7.81 g/m*3 10.9 C 0 km/h
3064 10-06-2015 05:00:00 9.96667 C 7.7 g/m*3 9.97 C 0 km/h
3065 10-06-2015 06:00:00 10.2 C 8.03 g/m*3 10.2 C 0 km/h
3066 10-06-2015 07:00:00 11.20833 C 8.5 g/m*3 11.21 C 0 km/h
3067 10-06-2015 08:00:00 13.23333 C 9.03 g/m*3 13.23 C 0.13333 km/h
3068 10-06-2015 09:00:00 15.8 C 9.15 g/m*3 15.8 C 7.65 km/h
3069 10-06-2015 10:00:00 18.68333 C 9.41 g/m*3 18.68 C 9.94167 km/h
3070 10-06-2015 11:00:00 19.55 C 9.47 g/m*3 19.55 C 11.28333 km/h
3071 10-06-2015 12:00:00 20.68333 C 9.67 g/m*3 20.68 C 11.7 km/h
3072 10-06-2015 13:00:00 20.65833 C 10.13 g/m*3 20.66 C 8.85833 km/h
3073 10-06-2015 14:00:00 22.98333 C 10.59 g/m*3 22.98 C 9.14167 km/h
3074 10-06-2015 15:00:00 23.425 C 10.53 g/m*3 23.43 C 7.11667 km/h
3075 10-06-2015 16:00:00 23.45 C 10.46 g/m*3 23.45 C 8.6 km/h
Sensor: Nr:Datum:Temp:Abs-Feuchte:Windchill:Wind:
Aussen-T/F 3076 10-06-2015 17:00:00 23.45 C 10.68 g/m*3 23.45 C 7.25833 km/h
3077 10-06-2015 18:00:00 24.06667 C 10.59 g/m*3 24.07 C 7.91667 km/h
3078 10-06-2015 19:00:00 22.48333 C 10.48 g/m*3 22.48 C 3.2 km/h
3079 10-06-2015 20:00:00 20.325 C 11.52 g/m*3 20.33 C 0.13333 km/h
3080 10-06-2015 21:00:00 18.35833 C 11.09 g/m*3 18.36 C 0.13333 km/h
3081 10-06-2015 22:00:00 17.64167 C 10.69 g/m*3 17.64 C 0 km/h
3082 10-06-2015 23:00:00 17.48333 C 10.36 g/m*3 17.48 C 0.26667 km/h
3083 11-06-2015 00:00:00 17.575 C 9.73 g/m*3 17.58 C 1.86667 km/h
3084 11-06-2015 01:00:00 16.625 C 9.6 g/m*3 16.63 C 1.73333 km/h
3085 11-06-2015 02:00:00 17.01667 C 9.57 g/m*3 17.02 C 2.13333 km/h
3086 11-06-2015 03:00:00 16.38333 C 9.44 g/m*3 16.38 C 1.06667 km/h
3087 11-06-2015 04:00:00 16.09167 C 9.43 g/m*3 16.09 C 1.33333 km/h
3088 11-06-2015 05:00:00 14.2 C 9.22 g/m*3 14.2 C 0.13333 km/h
3089 11-06-2015 06:00:00 13.625 C 9.35 g/m*3 13.63 C 0 km/h
3090 11-06-2015 07:00:00 13.84167 C 9.76 g/m*3 13.84 C 0 km/h
3091 11-06-2015 08:00:00 16.35833 C 10.48 g/m*3 16.36 C 2.80833 km/h
3092 11-06-2015 09:00:00 19.06667 C 10.1 g/m*3 19.07 C 8.86667 km/h
3093 11-06-2015 10:00:00 21.075 C 10.56 g/m*3 21.08 C 9.4 km/h
3094 11-06-2015 11:00:00 22.9 C 11.05 g/m*3 22.9 C 9.29167 km/h
3095 11-06-2015 12:00:00 24.16667 C 11.11 g/m*3 24.17 C 10.75833 km/h
3096 11-06-2015 13:00:00 24.54167 C 11.2 g/m*3 24.54 C 10.475 km/h
3097 11-06-2015 14:00:00 24.18333 C 11.19 g/m*3 24.18 C 10.76667 km/h
3098 11-06-2015 15:00:00 24.71667 C 11.08 g/m*3 24.72 C 10.23333 km/h
3099 11-06-2015 16:00:00 25.625 C 11.21 g/m*3 25.63 C 9.26667 km/h
3100 11-06-2015 17:00:00 25.45833 C 11.18 g/m*3 25.46 C 9.13333 km/h
Sensor: Nr:Datum:Temp:Abs-Feuchte:Windchill:Wind:
Aussen-T/F 3101 11-06-2015 18:00:00 24.88333 C 11.07 g/m*3 24.88 C 8.2 km/h
3102 11-06-2015 19:00:00 24.18333 C 10.96 g/m*3 24.18 C 4.81667 km/h
3103 11-06-2015 20:00:00 23.08333 C 11.05 g/m*3 23.08 C 4.54167 km/h
3104 11-06-2015 21:00:00 19.87778 C 11.4 g/m*3 19.88 C 0 km/h
3105 11-06-2015 22:00:00 17.24167 C 10.78 g/m*3 17.24 C 0.4 km/h
3106 11-06-2015 23:00:00 16.275 C 10.7 g/m*3 16.27 C 0.13333 km/h
3107 12-06-2015 00:00:00 15.45 C 10.56 g/m*3 15.45 C 0 km/h
3108 12-06-2015 01:00:00 14.81667 C 10.46 g/m*3 14.82 C 0 km/h
3109 12-06-2015 02:00:00 14.21667 C 10.33 g/m*3 14.22 C 0 km/h
3110 12-06-2015 03:00:00 13.78333 C 10.26 g/m*3 13.78 C 0.13333 km/h
3111 12-06-2015 04:00:00 13.125 C 10.06 g/m*3 13.13 C 0 km/h
3112 12-06-2015 05:00:00 12.51667 C 9.88 g/m*3 12.52 C 0 km/h
3113 12-06-2015 06:00:00 13.05833 C 10.26 g/m*3 13.06 C 0 km/h
3114 12-06-2015 07:00:00 13.79167 C 10.67 g/m*3 13.79 C 0 km/h
3115 12-06-2015 08:00:00 16.35833 C 11.39 g/m*3 16.36 C 2.40833 km/h
3116 12-06-2015 09:00:00 19.44167 C 11.72 g/m*3 19.44 C 5.08333 km/h
3117 12-06-2015 10:00:00 22.21667 C 12.9 g/m*3 22.22 C 6.16667 km/h
3118 12-06-2015 11:00:00 24.85 C 13.52 g/m*3 24.85 C 8.74167 km/h
3119 12-06-2015 12:00:00 26.95833 C 14.31 g/m*3 26.96 C 6.025 km/h
3120 12-06-2015 13:00:00 29.075 C 14.85 g/m*3 29.08 C 7.11667 km/h
3121 12-06-2015 14:00:00 29.90833 C 14.86 g/m*3 29.91 C 6.01667 km/h
3122 12-06-2015 15:00:00 30.78333 C 17.29 g/m*3 30.78 C 5.88333 km/h
3123 12-06-2015 16:00:00 28.175 C 15.95 g/m*3 28.18 C 2.275 km/h
3124 12-06-2015 17:00:00 22.65 C 16.32 g/m*3 22.65 C 1.6 km/h
3125 12-06-2015 18:00:00 21.62857 C 16.34 g/m*3 21.63 C 2.05714 km/h
Sensor: Nr:Datum:Temp:Abs-Feuchte:Windchill:Wind:
Aussen-T/F 3126 12-06-2015 19:00:00 20.91667 C 15.81 g/m*3 20.92 C 2.80833 km/h
3127 12-06-2015 20:00:00 19.1 C 15.08 g/m*3 19.1 C 1.2 km/h
3128 12-06-2015 21:00:00 18.35833 C 14.8 g/m*3 18.36 C 0.26667 km/h
3129 12-06-2015 22:00:00 17.8 C 14.42 g/m*3 17.8 C 1.2 km/h
3130 12-06-2015 23:00:00 17.35833 C 14.13 g/m*3 17.36 C 0.93333 km/h
3131 13-06-2015 00:00:00 16.64167 C 13.6 g/m*3 16.64 C 0 km/h
3132 13-06-2015 01:00:00 16.19167 C 13.23 g/m*3 16.19 C 0 km/h
3133 13-06-2015 02:00:00 15.79167 C 12.92 g/m*3 15.79 C 0 km/h
3134 13-06-2015 03:00:00 15.53333 C 12.72 g/m*3 15.53 C 0 km/h
3135 13-06-2015 04:00:00 15.00833 C 12.34 g/m*3 15.01 C 0 km/h
3136 13-06-2015 05:00:00 14.90833 C 12.37 g/m*3 14.91 C 0.13333 km/h
3137 13-06-2015 06:00:00 15.19167 C 12.58 g/m*3 15.19 C 2.26667 km/h
3138 13-06-2015 07:00:00 15.40833 C 12.75 g/m*3 15.41 C 0.4 km/h
3139 13-06-2015 08:00:00 15.925 C 13.16 g/m*3 15.93 C 1.34167 km/h
3140 13-06-2015 09:00:00 16.93333 C 13.86 g/m*3 16.93 C 6.16667 km/h
3141 13-06-2015 10:00:00 16.99167 C 13.65 g/m*3 16.99 C 3.49167 km/h
3142 13-